GFSSE_sfc_dewp_000.txt.gz
Dewpoint
61 66 69 69 71 68 66 65 63 62 61 59 57 60 61 62 61 60 60 61 62 60 60 60 60 61 62 60 62 64 63 63 61 60 62 62 61 62 62 64 65 64 63
63 66 70 70 70 68 65 64 62 61 61 60 59 61 62 62 62 61 61 61 62 61 59 60 60 61 61 62 64 63 62 62 60 59 63 64 64 61 64 62 61 60 66
61 64 69 71 69 67 65 63 63 62 62 61 59 62 64 61 60 60 59 58 60 61 60 59 60 59 58 60 63 63 62 61 59 60 64 60 61 62 61 61 62 63 64
61 63 67 71 70 67 65 64 63 61 61 60 61 62 64 62 60 61 61 59 56 58 58 58 59 58 58 58 60 61 61 59 59 61 58 59 59 61 62 60 60 61 62
61 62 66 71 69 67 65 63 62 61 61 60 64 63 63 62 59 59 58 56 57 57 56 57 58 57 57 60 59 61 58 58 59 59 57 60 58 59 58 59 58 58 59
58 65 70 71 69 68 66 64 63 61 61 60 60 63 63 62 60 59 56 56 56 57 57 56 57 57 57 58 58 58 57 57 59 55 57 59 56 58 59 58 58 57 57
56 65 68 72 69 67 65 64 63 62 62 60 61 61 60 62 59 58 59 58 58 59 58 57 57 57 58 57 58 58 57 57 56 53 55 56 56 57 57 56 56 56 55
56 63 67 69 68 68 66 64 64 63 63 62 62 60 59 57 59 59 59 61 60 60 58 56 56 57 58 58 57 58 56 58 52 51 55 56 58 56 55 55 55 55 55
56 59 64 65 66 67 67 66 66 64 64 64 62 60 61 62 61 61 62 62 62 59 57 55 54 55 58 58 58 58 56 58 55 52 52 56 60 55 55 53 53 54 54
55 56 59 62 63 61 60 66 66 66 65 65 65 64 63 63 64 63 64 63 62 59 57 53 52 54 57 59 58 57 59 59 51 50 53 57 57 54 53 52 50 50 51
54 54 54 57 59 59 58 63 66 66 65 65 64 63 62 59 60 61 62 63 61 60 57 53 53 55 56 58 58 59 60 55 46 50 54 61 57 55 54 53 50 50 50
54 54 54 55 56 56 53 61 59 61 62 61 60 61 59 57 57 59 62 63 61 61 59 55 54 55 56 49 50 59 57 50 45 48 56 61 58 57 56 55 53 52 52
55 55 55 55 56 55 51 59 58 58 58 58 57 56 57 55 58 58 60 60 60 62 59 57 55 55 50 47 48 53 52 46 41 41 54 62 59 58 59 58 57 55 54
53 55 56 56 57 56 54 51 54 56 57 56 57 55 56 55 54 55 55 57 57 57 57 55 52 51 47 44 43 40 42 41 41 37 49 62 60 58 59 59 59 58 55
50 52 54 56 56 57 55 52 52 54 55 55 56 55 55 55 54 53 53 54 53 53 53 52 50 48 48 44 42 40 37 37 38 39 37 60 62 59 57 58 58 58 58
47 49 52 56 57 58 58 56 53 53 54 54 55 56 55 55 55 53 52 53 53 53 52 52 50 49 49 50 47 41 38 38 38 38 41 45 60 60 55 54 55 56 56
47 48 49 52 58 59 58 58 57 56 55 55 54 55 56 55 55 54 52 52 54 54 53 53 52 51 50 50 49 46 42 39 39 38 39 40 50 58 57 53 53 54 54
49 48 48 49 54 59 59 58 59 58 57 57 55 55 55 56 56 56 55 53 54 54 54 54 54 53 52 51 50 50 46 44 41 40 39 39 41 45 55 58 57 55 55
47 49 50 50 51 56 59 59 59 59 58 58 57 56 55 55 56 56 56 55 53 54 54 54 54 53 53 53 51 50 50 49 46 42 41 40 41 43 42 53 57 57 57
41 44 48 51 51 52 56 59 60 60 59 59 59 58 57 56 56 56 56 56 55 53 54 55 54 54 53 53 52 51 50 50 50 50 48 47 46 44 44 43 47 53 57
35 39 43 46 51 53 56 57 59 59 59 60 60 59 58 57 56 56 56 56 57 55 54 54 55 54 54 54 53 52 52 52 50 49 50 50 49 48 46 45 45 45 46
42 42 41 43 47 51 54 57 58 59 59 59 60 60 59 59 58 57 57 57 57 57 57 54 55 55 55 55 53 51 50 50 51 51 51 50 50 50 49 46 44 46 46
46 45 45 44 45 49 52 55 56 57 58 58 58 59 59 59 59 59 58 58 58 58 58 58 56 55 55 56 55 53 49 48 48 49 50 50 51 50 50 48 46 45 45
46 48 46 44 44 45 49 53 54 55 56 57 57 58 59 59 59 60 60 59 59 60 59 59 59 57 56 55 56 55 53 50 48 47 48 47 46 45 46 47 45 47 48
46 46 45 45 44 45 44 45 49 54 56 57 57 56 56 57 59 60 60 60 60 60 60 60 60 59 58 57 56 55 55 54 53 51 49 49 49 48 47 48 49 48 48
46 45 44 42 41 42 46 49 49 48 49 51 53 54 54 55 56 59 60 60 60 60 61 61 61 60 59 58 57 57 56 54 53 52 51 51 50 50 50 49 49 48 50

GFSSE_sfc_dewp_003.txt.gz
Dewpoint
65 67 70 70 71 70 68 67 65 63 62 59 61 61 61 63 61 61 62 62 62 61 60 60 60 64 62 62 65 64 63 62 60 61 61 61 62 62 64 62 63 64 64
65 67 71 70 71 69 67 65 64 63 61 60 60 60 63 63 62 62 63 63 63 60 61 59 61 62 60 62 64 63 62 60 58 59 63 65 65 63 62 61 61 64 65
66 68 69 72 70 68 67 65 64 62 62 61 60 63 64 63 62 60 60 60 62 61 60 60 60 60 59 63 64 63 61 59 59 60 63 60 60 61 61 62 63 64 65
65 68 69 72 70 67 66 65 64 63 62 62 62 65 65 64 62 62 61 59 58 60 59 60 58 58 57 57 62 61 59 58 60 62 59 61 58 61 59 59 60 62 62
64 67 69 72 71 68 66 65 64 62 63 62 64 64 65 64 61 60 59 57 59 58 58 58 58 58 57 56 61 60 57 57 60 59 58 59 59 57 58 58 58 58 59
62 64 71 72 70 69 68 65 64 62 62 62 64 65 63 64 62 59 58 57 58 58 58 57 58 58 56 57 59 59 57 57 59 53 58 58 56 59 58 58 57 57 56
65 68 70 72 70 69 66 65 64 63 63 62 64 64 62 62 59 60 60 59 59 59 59 58 57 58 58 58 59 59 58 57 55 52 57 56 57 58 57 57 56 55 55
64 67 69 71 70 69 67 67 65 64 64 62 62 62 61 60 61 62 60 61 61 61 60 58 58 58 60 59 58 60 58 59 55 51 56 57 59 58 56 56 55 56 55
65 67 68 67 67 69 68 67 67 66 64 65 63 62 62 62 62 61 62 63 62 62 60 58 56 57 60 60 59 60 58 59 55 51 54 56 61 58 56 54 55 55 55
63 65 66 66 66 65 65 67 67 66 65 65 66 65 63 63 64 65 65 65 63 62 60 58 55 54 56 59 60 59 61 60 54 48 54 56 59 57 57 54 53 53 54
55 59 64 65 64 63 61 65 66 66 65 65 65 64 63 61 62 63 64 65 64 62 60 57 54 55 59 61 61 61 61 57 52 47 52 60 59 57 56 56 54 52 53
55 55 58 62 62 62 59 61 63 63 63 63 62 62 60 60 59 61 62 64 63 62 62 58 55 57 59 52 53 60 57 55 51 48 52 62 60 57 57 56 55 53 53
55 55 56 57 60 59 57 61 60 61 61 61 60 60 60 59 59 60 61 61 61 61 60 59 56 54 53 51 47 49 55 53 48 44 51 64 61 59 58 58 58 57 56
55 56 57 57 57 57 55 60 58 58 59 59 59 58 59 58 57 58 60 59 59 59 59 58 56 54 53 49 47 50 53 50 46 42 43 64 63 61 59 60 60 60 59
54 55 57 57 58 57 55 55 57 57 58 58 58 57 57 57 55 55 56 56 58 57 58 56 56 52 51 48 44 43 42 43 43 41 38 60 63 63 59 59 60 60 61
50 54 56 57 58 58 56 53 52 54 56 56 56 57 56 56 55 54 54 54 54 54 54 54 53 52 49 48 45 43 41 39 38 38 39 40 62 63 61 58 58 59 59
48 50 54 57 58 59 59 57 52 53 54 55 55 56 56 56 56 55 53 53 53 53 52 52 52 51 49 48 49 49 44 40 38 38 38 40 44 60 61 56 56 56 58
49 48 51 55 58 58 60 59 58 55 54 54 54 54 56 56 56 55 55 53 53 54 54 53 53 52 52 50 49 50 49 45 41 38 38 38 40 41 55 59 58 59 59
48 49 49 51 57 59 59 60 59 58 56 55 55 54 54 55 56 55 55 55 53 54 54 54 54 53 53 52 52 51 50 50 48 45 42 40 39 41 42 50 58 57 58
39 41 49 50 52 59 59 59 60 59 59 58 57 56 55 54 55 56 56 56 55 53 53 55 54 54 53 53 52 52 51 50 50 50 48 44 43 42 41 41 43 52 57
45 44 43 44 52 53 57 59 59 59 60 60 59 58 58 57 56 56 56 56 57 55 54 53 54 54 54 54 52 52 52 52 50 50 50 49 48 47 45 43 43 43 45
47 46 45 44 45 52 54 57 59 60 60 60 61 60 60 59 58 57 56 56 57 57 56 54 54 54 54 54 52 50 50 51 52 52 52 49 48 48 48 48 46 45 45
45 46 46 44 44 47 53 56 57 58 58 58 59 59 60 60 60 59 58 57 57 58 57 57 56 55 54 55 55 53 51 49 47 49 51 52 51 51 50 50 49 46 45
45 44 43 44 45 47 47 49 53 54 55 56 57 58 58 60 60 60 60 60 59 59 58 58 59 57 55 55 56 55 54 50 48 47 49 48 50 50 51 51 50 48 46
45 43 42 42 43 43 44 48 49 49 52 54 55 55 56 56 58 60 60 60 60 60 60 60 60 60 59 57 56 56 55 55 53 52 50 50 49 47 48 48 48 46 45
44 43 43 43 43 43 43 42 42 43 48 51 53 53 54 55 56 57 60 60 60 60 60 61 61 60 61 60 59 58 56 54 54 53 52 52 51 51 50 47 46 46 46

GFSSE_sfc_dewp_006.txt.gz
Dewpoint
63 66 71 71 71 70 69 67 66 63 62 61 61 61 61 62 60 62 61 62 61 60 60 59 61 65 63 64 65 64 62 60 61 61 60 61 61 63 62 62 64 63 63
65 67 71 70 71 70 68 67 65 63 61 59 59 60 62 63 62 62 62 63 61 60 59 59 59 62 61 61 64 62 61 59 59 60 62 65 65 61 61 61 64 64 65
65 68 69 71 71 69 67 66 65 63 62 60 61 62 65 63 62 61 60 61 63 62 58 58 58 61 61 65 64 62 60 58 58 60 61 61 60 61 61 63 63 65 65
66 68 68 72 70 68 67 66 64 63 62 61 61 64 65 64 63 62 60 59 58 59 59 60 58 57 57 61 63 62 59 58 59 61 59 60 58 60 59 60 61 62 62
66 68 69 72 70 68 66 66 64 63 62 62 62 65 66 64 63 61 59 58 58 59 58 60 58 58 57 56 60 60 57 57 60 56 57 59 59 57 58 57 59 59 59
66 68 71 72 70 69 67 66 64 62 63 62 65 66 65 64 63 59 58 59 59 58 58 58 59 58 58 57 58 59 56 57 58 52 58 59 55 58 57 57 57 57 55
63 68 70 72 71 68 67 66 64 63 63 62 62 64 63 64 61 60 59 59 59 59 59 58 58 59 58 59 60 59 59 57 54 51 56 56 56 59 58 57 56 55 54
64 67 70 71 71 70 67 67 65 64 64 63 63 63 62 62 61 60 61 60 60 62 61 60 58 59 60 60 59 61 60 60 55 51 56 56 59 59 58 57 57 56 55
66 68 69 69 69 69 68 68 67 65 66 65 63 63 64 63 62 63 61 62 62 62 62 61 59 59 59 61 60 60 61 61 56 51 53 56 61 59 58 57 57 57 57
65 67 68 67 66 66 66 68 67 66 66 65 65 65 64 63 64 64 65 64 64 64 62 61 59 57 57 60 61 61 62 62 56 51 49 54 61 59 59 57 56 57 57
64 65 66 65 65 65 65 66 67 67 66 65 65 64 63 61 61 63 64 64 65 64 63 61 60 57 58 60 62 62 62 58 54 49 47 58 61 59 59 58 56 55 56
58 62 65 65 64 63 62 62 64 62 62 62 63 62 61 60 59 61 63 64 64 64 63 62 61 58 59 56 56 61 58 56 54 51 47 54 62 61 60 59 58 56 55
55 55 63 63 64 62 60 60 62 61 61 61 61 61 60 59 59 59 60 61 62 62 61 61 58 56 54 53 51 49 52 54 53 50 47 55 59 62 61 59 59 57 56
55 55 55 61 62 61 59 60 60 60 60 60 60 60 59 59 57 57 59 60 60 59 59 58 57 55 53 52 51 48 47 51 52 49 46 53 59 63 61 61 60 59 59
55 56 56 56 59 59 57 60 59 59 59 59 59 59 59 59 57 57 58 59 59 58 58 57 57 56 54 52 50 47 47 49 51 48 44 51 57 64 61 61 61 61 61
52 55 56 57 57 57 56 57 58 58 58 58 58 59 58 58 57 56 56 57 57 58 57 57 56 56 54 52 50 47 44 44 45 46 44 42 53 62 63 59 60 61 61
52 51 55 57 57 57 57 54 55 56 57 57 57 57 57 57 56 56 55 54 55 55 55 55 54 53 52 50 49 48 45 43 41 40 38 38 41 55 62 60 59 61 62
51 48 52 55 57 58 58 57 54 52 53 55 55 56 56 56 56 55 55 55 53 53 53 52 52 52 52 50 50 48 48 48 46 43 40 38 38 38 47 60 60 60 60
40 48 49 53 56 57 58 59 58 54 53 53 54 54 54 55 56 55 55 55 54 53 53 53 53 53 52 52 52 51 50 50 50 48 45 42 39 40 39 46 54 58 58
44 43 46 50 53 57 58 59 59 59 57 56 55 55 54 54 55 56 56 55 55 54 53 53 53 53 53 53 52 52 52 52 52 51 50 48 45 42 40 40 41 46 56
46 45 44 44 46 55 59 58 58 59 59 59 58 57 56 56 55 55 55 55 56 55 55 54 53 53 53 53 52 52 53 53 52 52 52 51 50 48 45 43 42 42 43
43 45 44 44 45 50 56 58 59 59 59 60 60 60 59 58 57 56 56 56 56 56 56 55 54 53 54 54 53 53 51 52 53 53 53 52 51 51 49 47 45 44 44
43 42 42 44 46 47 53 57 57 58 58 58 59 59 60 60 60 59 58 57 57 57 56 56 56 54 54 55 54 54 52 50 48 50 51 52 52 52 51 49 49 48 48
43 42 42 43 43 43 48 49 50 52 52 55 56 57 57 58 59 60 60 59 59 58 57 57 57 57 57 55 57 55 55 55 52 51 51 49 50 51 51 52 51 50 49
43 43 43 43 43 43 42 43 45 44 50 51 51 49 50 52 54 55 58 59 60 60 60 59 59 59 59 58 57 57 56 55 55 54 52 52 52 51 50 50 51 51 51
43 43 43 43 43 43 43 42 42 41 42 43 43 45 46 48 51 49 48 53 58 60 60 61 61 61 61 60 60 59 57 56 55 54 54 53 53 53 53 50 49 48 48

GFSSE_sfc_dewp_009.txt.gz
Dewpoint
63 64 70 72 71 71 69 68 67 64 63 60 60 60 59 60 59 62 59 61 61 59 60 60 63 65 65 65 65 63 61 59 60 60 59 60 60 62 62 63 62 62 61
63 65 71 71 71 70 69 68 66 64 61 60 60 58 61 62 61 60 61 62 61 59 57 57 59 63 62 60 63 62 60 58 59 60 61 64 64 61 60 60 65 64 64
64 67 69 72 71 70 69 67 65 64 61 59 61 59 65 63 63 61 61 61 62 61 56 58 59 62 59 64 64 62 60 58 58 60 61 61 61 60 61 62 64 65 64
66 67 68 72 71 70 69 67 65 63 62 60 61 63 65 63 61 61 59 58 58 57 58 60 58 59 58 64 64 62 58 57 59 60 58 60 59 60 60 61 62 62 62
66 68 68 72 71 69 68 66 65 63 63 62 62 65 66 65 62 61 59 59 58 58 58 60 59 57 57 59 58 60 57 56 59 55 58 59 59 58 58 59 59 60 59
66 67 69 72 70 69 68 67 65 64 63 62 63 63 67 64 62 61 59 59 59 59 58 59 60 59 58 58 58 58 59 56 57 51 58 60 57 58 58 57 58 57 57
65 67 70 72 70 69 67 66 65 63 63 63 65 65 64 64 62 60 59 59 60 59 60 58 59 60 59 58 59 60 60 59 54 51 56 57 55 60 58 58 58 57 55
64 67 70 71 71 70 68 67 65 64 63 62 62 62 61 63 62 60 61 60 60 61 61 60 59 59 60 60 60 60 61 62 56 50 53 56 58 60 60 59 58 57 56
64 67 68 70 70 70 69 68 68 65 65 65 64 64 64 64 62 62 62 61 62 62 63 62 61 59 59 60 61 60 62 63 57 52 51 56 59 60 59 58 58 59 58
65 67 67 68 68 67 66 68 68 67 66 67 65 65 64 64 64 64 65 64 63 63 63 63 62 61 59 59 60 62 62 63 58 53 50 53 60 62 59 59 59 58 59
64 65 66 66 65 65 65 66 68 67 67 66 64 65 63 61 60 61 64 64 64 64 64 64 63 61 61 60 61 62 63 59 56 53 49 53 59 62 60 60 59 58 59
61 63 65 65 64 64 64 64 64 64 64 62 61 61 61 60 59 60 62 64 64 64 64 63 63 62 61 55 56 60 59 57 55 54 51 54 57 61 61 60 60 59 58
58 61 64 63 63 62 63 62 62 62 61 60 60 60 60 60 58 59 59 59 61 62 61 62 60 59 55 54 54 53 53 54 55 54 53 55 57 60 62 62 61 60 59
55 56 61 63 63 62 62 60 61 61 60 59 60 60 59 58 57 57 57 58 58 59 59 58 57 57 55 53 52 51 49 48 50 52 52 55 56 58 60 62 62 62 60
54 55 55 61 63 62 60 59 60 60 60 60 59 60 59 58 58 57 56 57 57 58 57 57 56 56 55 54 53 51 50 48 47 48 49 52 55 55 57 60 63 62 61
54 54 56 56 60 61 60 59 59 59 59 59 59 59 59 59 58 57 56 56 57 57 57 57 57 56 56 55 54 52 50 47 46 47 49 49 54 55 55 57 60 61 62
53 53 54 56 56 58 59 57 59 59 58 58 58 58 58 58 58 58 57 55 56 56 56 56 56 55 54 54 53 52 50 48 46 44 43 43 44 52 55 57 57 60 63
45 52 51 54 57 57 57 56 56 56 57 57 57 57 57 57 57 56 56 56 55 54 54 54 53 53 53 52 52 51 50 49 48 46 44 43 42 40 45 52 57 60 62
44 43 47 52 56 57 57 57 56 54 54 54 55 56 56 56 56 56 56 56 55 54 53 53 53 52 52 52 52 51 51 50 50 49 48 47 45 44 42 47 51 55 58
45 44 44 49 54 57 58 59 59 58 55 54 53 54 54 54 55 55 55 55 55 55 54 53 53 53 53 53 52 52 52 53 52 52 51 51 49 46 45 43 44 45 53
43 44 44 45 47 55 58 57 57 58 58 58 58 56 55 55 54 54 55 55 55 55 55 55 54 53 53 53 53 53 53 53 53 53 53 53 52 51 50 46 44 44 44
41 41 42 44 47 51 57 58 58 58 58 59 60 59 59 58 57 56 55 55 55 55 55 55 55 54 54 54 53 54 52 53 53 53 53 53 53 53 52 51 49 46 46
42 42 42 42 42 46 51 56 56 56 56 55 56 57 57 58 59 59 59 58 58 57 56 57 56 55 55 56 54 54 52 51 51 51 51 53 53 53 52 52 51 49 48
42 42 43 43 42 42 43 45 47 49 49 51 53 51 50 51 52 53 55 57 58 59 58 58 58 58 57 56 57 56 55 55 53 53 53 52 51 52 52 52 52 51 50
43 43 43 43 43 43 43 43 43 43 44 46 45 44 45 46 48 47 46 48 49 52 55 58 59 59 59 58 58 58 57 56 56 54 52 53 54 53 52 52 52 52 52
42 42 43 43 43 43 44 44 43 43 43 44 44 44 45 45 46 45 44 44 45 45 47 48 50 52 56 58 58 57 56 55 55 54 54 54 54 55 55 54 52 51 52

GFSSE_sfc_dewp_012.txt.gz
Dewpoint
62 63 71 72 70 70 70 69 67 66 63 61 61 60 59 59 59 58 58 60 60 58 60 61 62 66 66 65 64 63 60 59 60 60 59 60 61 63 61 63 61 61 61
62 64 71 72 71 71 69 68 66 65 63 62 60 58 59 61 61 59 60 61 58 57 57 58 61 63 62 60 61 62 60 58 59 60 61 63 63 63 59 61 64 64 63
63 64 69 72 71 71 69 68 66 65 62 60 61 59 61 63 63 61 61 61 61 59 56 58 58 59 58 62 63 62 60 59 58 59 61 60 61 61 60 62 64 65 65
64 66 68 72 71 70 70 68 66 65 63 60 61 61 66 64 60 59 59 58 58 57 57 59 58 58 59 61 65 62 58 57 58 61 58 60 60 61 61 61 62 63 63
65 67 68 72 71 71 69 67 66 64 63 61 61 62 66 64 63 62 59 59 58 58 57 60 60 60 58 59 60 60 58 56 59 55 57 59 59 60 60 60 61 61 61
65 66 69 72 71 70 69 67 66 64 63 62 62 63 66 66 63 62 59 58 59 59 59 59 61 60 59 59 59 59 59 57 58 52 55 59 60 61 59 58 60 60 59
64 66 68 71 71 70 69 68 66 64 63 62 63 65 65 66 63 61 60 59 59 60 59 59 59 60 60 60 59 60 60 61 55 52 52 58 58 61 59 59 58 58 57
64 66 68 71 71 70 69 68 66 64 63 63 62 63 62 62 64 60 61 61 60 60 61 61 60 59 59 61 60 60 61 63 57 52 51 56 59 61 61 60 59 59 58
64 66 68 69 70 70 69 69 68 66 65 64 64 64 64 64 62 62 62 62 62 61 62 63 63 62 60 60 60 61 62 63 58 54 51 53 60 62 62 60 60 60 59
63 65 66 67 68 68 67 69 68 68 67 67 66 65 64 64 63 64 65 65 63 62 63 64 64 63 62 61 60 61 63 63 59 57 53 51 59 62 63 60 60 60 59
62 64 65 66 67 66 66 66 68 68 67 67 66 65 64 61 60 61 62 64 64 63 63 64 64 63 63 63 61 61 62 59 57 57 54 55 57 62 62 62 61 61 60
59 62 66 65 65 65 66 64 65 64 64 63 62 60 61 60 59 60 61 63 63 64 64 63 63 64 63 58 55 57 57 57 57 56 55 59 59 59 61 62 62 61 61
55 61 64 64 64 63 64 63 62 62 61 61 60 60 60 60 58 58 58 58 58 61 60 61 60 59 58 56 55 53 53 52 54 55 56 59 60 59 59 60 61 63 62
54 57 62 63 63 62 62 61 61 61 60 60 59 59 58 58 57 57 56 56 56 57 58 58 58 57 56 56 54 53 52 51 50 51 52 56 58 59 58 58 60 62 64
53 55 57 62 63 62 61 60 59 60 61 60 59 59 59 58 57 57 56 56 56 57 57 57 57 57 57 56 55 54 53 52 50 49 48 52 54 56 58 57 58 60 61
54 54 55 56 62 62 62 60 60 59 59 59 59 59 58 58 58 57 56 56 56 57 57 57 57 57 57 56 55 54 54 53 51 49 48 47 53 55 57 58 58 57 59
47 52 54 55 57 61 61 60 60 59 59 58 59 58 58 58 58 58 57 56 56 56 56 56 56 56 56 55 55 55 54 53 51 50 48 47 48 54 55 58 58 58 57
43 43 44 53 56 57 59 59 59 59 59 58 58 58 58 58 57 57 57 57 57 55 55 55 55 54 54 54 53 53 53 52 51 50 49 48 47 46 48 53 56 57 59
45 44 45 49 54 57 57 57 57 56 57 57 57 57 57 57 57 57 57 56 56 55 54 54 54 53 53 53 52 52 52 51 51 51 50 49 48 48 47 49 53 55 57
44 45 46 48 49 55 57 57 57 56 54 54 53 54 54 55 55 56 56 55 55 55 55 54 54 54 53 53 53 53 53 53 53 52 52 52 51 50 48 47 48 49 54
41 42 43 46 50 56 57 56 56 56 57 57 58 58 56 55 55 54 54 55 55 55 55 55 55 54 54 54 53 53 54 54 53 53 53 53 53 52 51 50 49 48 48
41 41 41 42 44 51 56 57 57 57 58 58 57 55 55 58 58 57 57 56 56 56 56 55 55 55 56 55 54 54 52 53 54 54 54 54 53 53 53 52 51 48 48
42 42 42 42 42 43 46 51 51 52 51 50 50 48 49 49 47 47 49 51 53 56 56 57 57 57 56 56 56 55 52 52 54 54 52 53 53 53 53 53 53 52 50
42 42 43 43 43 43 43 44 44 45 45 46 47 45 45 46 46 44 45 45 46 49 48 50 50 55 56 55 56 57 57 56 53 51 54 54 52 52 53 53 53 52 52
42 42 43 43 44 44 44 44 44 44 44 44 44 43 44 43 45 44 43 44 43 44 45 46 46 47 48 50 50 52 53 53 53 52 48 49 52 54 54 53 53 53 53
42 43 43 44 44 45 45 45 44 44 43 42 42 42 42 42 43 42 41 42 43 43 44 45 46 46 46 47 48 47 47 48 48 49 48 47 48 49 51 53 54 53 53

GFSSE_sfc_dewp_015.txt.gz
Dewpoint
63 64 71 72 72 71 69 68 67 66 64 63 62 60 60 59 59 58 58 58 59 58 60 62 62 66 66 65 65 63 61 60 60 60 59 61 63 64 62 62 61 58 61
63 64 71 73 71 71 70 68 68 66 63 62 60 60 58 61 60 58 60 60 59 57 56 59 60 63 62 59 60 61 60 59 59 60 61 63 63 64 60 61 64 61 64
63 64 69 73 72 71 70 69 67 65 63 62 61 58 60 62 61 62 62 60 60 59 57 58 60 59 60 59 62 62 61 59 58 59 61 59 61 63 60 62 65 66 66
63 64 69 73 72 71 70 69 67 65 63 61 61 60 62 64 62 58 58 57 60 57 57 58 60 59 60 59 64 62 59 58 58 60 58 57 59 62 60 62 63 64 64
63 65 68 72 72 71 70 69 67 65 64 62 61 62 65 64 62 62 60 59 58 59 57 59 60 58 60 60 60 61 58 57 58 58 56 60 61 59 63 60 62 63 62
64 66 69 72 71 72 70 68 67 65 64 63 61 62 65 66 64 62 61 59 58 59 59 59 59 61 61 60 60 60 60 60 58 56 56 60 61 61 62 60 60 62 62
65 67 67 71 71 71 70 68 67 65 64 62 63 64 64 67 65 62 60 59 59 59 59 59 59 59 60 61 60 60 60 61 58 56 54 57 61 64 63 60 60 60 60
65 66 67 70 72 71 70 69 67 65 64 63 63 63 64 64 64 62 62 60 60 60 60 60 61 60 59 59 60 60 61 60 59 58 56 54 60 63 61 61 60 60 59
65 66 67 67 70 71 70 69 69 67 65 65 64 64 64 64 62 61 61 62 62 62 60 62 63 63 62 61 61 60 62 63 58 59 58 54 55 62 63 62 62 61 61
64 65 66 67 69 69 68 69 69 68 67 67 67 66 65 64 64 63 65 64 63 63 62 63 63 64 63 63 62 62 62 63 58 59 59 58 58 59 63 63 63 61 61
62 64 66 67 69 69 68 67 68 68 67 67 66 66 64 62 62 61 62 63 63 64 63 63 63 64 64 64 63 62 62 55 55 57 58 60 61 60 60 62 62 63 62
60 63 65 67 68 68 67 67 67 66 65 64 63 62 62 62 61 60 60 62 62 63 64 64 63 64 64 61 60 60 58 56 54 54 55 60 62 62 60 60 62 62 62
55 61 64 66 67 67 67 67 66 65 65 64 63 62 61 61 61 60 60 60 60 60 59 60 60 60 60 60 59 58 58 57 55 54 54 59 61 62 61 59 60 61 62
54 55 61 65 65 66 66 66 65 64 64 64 63 62 61 60 60 60 59 60 60 59 59 60 58 58 59 59 59 58 57 56 55 54 53 56 58 58 58 60 59 59 60
53 54 56 61 64 65 65 65 64 63 63 63 63 62 60 60 59 60 59 59 59 59 59 59 58 58 58 57 58 58 57 56 55 54 54 55 56 58 58 57 58 59 58
53 53 55 56 61 64 64 64 63 63 62 62 61 61 60 60 59 59 59 59 59 59 58 58 58 58 58 57 57 57 56 56 55 55 54 54 55 57 59 59 58 58 59
43 44 45 52 56 61 63 63 63 62 61 61 60 60 60 60 60 60 59 58 58 58 58 58 57 57 57 56 56 56 55 55 55 55 54 53 53 55 56 59 60 60 59
45 46 47 47 55 58 60 61 61 61 61 60 60 60 59 59 59 59 58 58 58 58 57 56 56 56 55 55 54 55 54 55 55 54 54 54 53 52 54 56 58 60 60
45 47 50 51 52 57 58 59 59 59 59 59 58 58 58 57 58 58 57 57 57 57 56 56 56 55 55 55 55 55 55 55 55 54 54 54 53 53 53 54 55 57 59
44 45 49 52 55 57 58 58 58 58 57 57 57 57 57 56 56 56 56 56 57 57 57 57 56 56 56 56 55 55 56 56 56 55 54 54 54 54 53 53 53 53 55
43 43 45 50 54 57 58 58 58 58 56 53 52 52 52 54 55 55 54 53 55 55 55 56 56 56 56 57 55 54 55 56 56 56 56 55 55 55 55 54 54 53 52
42 43 43 44 46 53 58 59 58 54 50 49 48 47 46 43 44 42 44 45 45 47 47 48 50 50 52 53 54 54 52 51 53 56 56 55 55 55 55 55 55 54 54
43 43 44 44 45 45 47 48 47 48 48 46 45 44 44 43 42 41 42 42 43 44 44 45 46 46 45 45 47 51 48 47 50 49 52 53 54 55 55 55 55 55 55
43 45 45 46 45 45 46 46 46 45 44 44 44 43 42 42 41 39 40 41 41 42 42 43 42 44 43 43 44 42 47 48 44 43 40 46 47 49 52 52 54 54 55
45 45 46 46 46 46 45 45 44 43 43 42 41 40 40 39 40 37 38 39 39 39 41 42 41 42 42 43 43 44 44 45 46 45 44 41 45 44 47 49 50 52 54
45 46 46 45 45 44 44 43 43 42 39 38 38 35 35 34 35 33 33 34 35 35 37 36 38 40 41 42 43 43 43 44 44 44 43 42 42 42 43 46 47 48 50

GFSSE_sfc_dewp_018.txt.gz
Dewpoint
60 61 72 72 72 71 70 69 67 65 64 62 61 59 59 59 59 58 59 57 58 58 59 61 62 64 66 65 65 63 60 61 61 60 60 61 63 65 61 61 62 57 60
59 60 71 72 72 71 70 68 68 66 64 62 61 59 58 58 58 58 59 59 60 56 57 59 61 62 64 59 60 61 60 60 60 59 61 62 63 62 62 61 64 60 63
59 59 68 73 72 71 70 69 68 67 64 62 60 57 59 61 61 59 61 60 60 57 58 60 62 61 61 60 63 62 61 59 58 59 61 57 55 61 62 61 63 66 65
59 59 66 73 72 72 70 70 68 66 64 61 60 59 61 63 61 62 58 58 60 59 57 59 61 61 60 61 64 63 60 58 58 60 55 52 54 58 62 60 62 64 65
60 60 64 73 72 72 71 70 68 66 65 62 60 62 62 66 61 59 59 59 59 59 58 59 60 60 61 61 60 61 61 58 58 59 53 55 58 56 60 63 60 62 63
59 61 68 73 72 72 71 70 68 66 65 63 62 61 63 66 64 63 61 59 58 59 59 59 59 59 61 61 61 61 61 60 60 57 53 54 59 59 61 62 61 61 63
59 61 64 71 72 71 71 69 68 66 64 63 62 63 64 64 66 62 62 60 58 59 59 59 59 60 59 60 61 61 61 62 57 57 55 53 56 61 64 63 62 61 61
60 62 61 69 72 72 70 69 68 66 65 63 62 62 63 65 63 63 62 60 60 60 59 61 60 61 61 60 60 60 59 63 57 56 57 55 56 61 64 63 62 61 61
61 62 61 62 67 71 71 70 69 67 66 64 63 64 63 62 62 61 61 62 62 63 62 62 63 64 64 63 62 62 63 63 57 55 54 55 59 59 62 63 62 63 62
61 62 61 62 63 66 66 69 69 69 68 67 67 66 65 65 64 62 64 63 63 63 63 63 63 64 64 64 63 63 63 63 56 54 54 54 59 60 60 61 63 63 63
60 62 63 62 63 64 64 65 68 68 68 67 66 66 64 59 59 60 62 62 62 62 63 63 63 63 64 65 64 64 63 56 53 51 51 58 59 62 61 61 62 63 63
57 59 61 63 63 64 63 64 65 62 63 61 60 59 57 57 58 59 61 61 62 63 63 63 63 63 64 58 57 62 58 55 54 53 51 59 57 61 61 61 61 61 62
52 56 59 61 63 63 64 64 63 63 62 61 61 60 58 56 57 58 59 59 59 60 58 58 58 57 57 57 57 56 56 56 55 54 55 59 58 61 60 60 61 60 61
52 53 56 59 61 63 63 64 63 62 62 62 61 61 59 58 57 57 56 57 58 57 57 58 57 57 57 57 56 56 56 56 56 55 56 60 58 60 61 59 58 60 61
52 53 54 56 59 61 63 63 63 62 62 61 62 61 60 59 57 57 57 57 57 57 57 57 57 57 57 57 57 57 57 57 57 56 56 59 60 59 61 62 61 59 59
51 52 53 54 56 58 61 62 62 62 62 62 61 61 61 60 59 59 59 58 58 58 58 57 57 57 57 57 57 57 57 57 57 57 57 57 61 59 60 62 63 62 61
44 44 45 46 51 57 59 60 62 62 62 61 61 61 61 60 60 60 60 59 58 58 58 58 58 58 57 57 57 57 56 56 56 56 57 57 57 59 60 60 62 63 63
46 48 50 50 47 54 58 60 60 61 61 61 61 60 60 59 60 60 59 58 58 58 58 58 58 58 58 58 57 57 56 56 56 56 56 56 56 56 58 60 60 60 62
47 49 52 52 52 56 58 59 59 59 59 59 59 58 58 58 58 58 58 59 59 59 58 58 57 57 56 56 56 56 56 55 56 56 56 56 56 56 56 57 59 59 59
48 51 53 56 57 57 57 58 58 59 59 59 58 58 58 57 57 57 55 52 52 53 52 51 52 52 52 52 51 52 52 53 54 53 54 54 55 56 56 56 56 56 58
46 48 53 56 57 56 57 57 56 52 51 48 47 44 43 43 43 44 44 42 43 43 43 42 43 43 43 44 42 43 45 47 50 48 52 54 52 52 53 55 55 56 56
43 44 46 51 56 58 58 56 50 48 46 46 45 44 42 40 40 39 41 40 41 40 41 41 42 42 41 41 40 41 38 39 40 43 42 40 43 44 47 51 52 54 55
45 45 45 46 48 48 48 47 47 47 47 45 43 42 41 39 38 38 39 39 39 40 39 40 39 41 38 39 39 39 38 37 40 38 38 38 38 42 41 43 45 47 47
46 47 47 46 46 47 47 46 46 44 43 42 41 40 39 38 35 32 33 34 34 34 34 35 32 35 35 35 36 34 39 38 36 36 35 38 38 39 40 41 41 42 43
47 47 47 46 45 44 44 43 42 42 41 40 37 36 35 34 32 28 28 29 29 28 29 30 29 30 31 32 32 34 36 37 36 36 36 32 33 32 34 36 38 40 41
47 47 46 44 43 43 42 41 41 39 36 34 33 29 28 26 26 25 23 23 24 25 25 24 26 29 33 32 31 33 36 36 34 32 29 30 31 30 30 34 37 39 43

GFSSE_sfc_dewp_021.txt.gz
Dewpoint
58 66 73 72 72 71 70 69 68 66 64 62 60 59 59 60 60 59 59 58 60 58 59 60 62 62 66 65 64 63 61 62 61 60 61 61 62 64 63 60 62 60 60
58 62 73 73 72 71 70 69 68 66 65 62 60 59 59 57 59 57 59 61 61 57 59 60 62 63 63 60 61 61 59 61 59 59 61 63 63 62 62 61 61 63 63
56 59 69 73 73 71 70 69 69 67 65 62 60 57 57 60 60 59 61 61 61 58 58 60 62 62 61 63 64 64 61 59 58 59 61 56 54 63 61 62 61 64 66
55 58 63 73 72 71 70 70 69 67 65 62 59 59 59 62 61 62 58 58 59 60 58 59 60 61 62 62 62 63 61 59 58 60 57 51 51 61 60 61 61 62 65
55 57 68 73 72 72 71 70 68 67 64 62 59 60 62 64 64 59 59 59 59 60 59 59 60 60 60 61 62 62 62 61 59 58 56 54 55 57 59 60 62 61 63
55 57 71 73 72 72 71 70 68 67 65 63 61 61 62 64 65 63 61 60 58 59 59 59 59 59 60 61 61 61 62 62 62 56 56 54 53 58 59 60 62 61 61
55 58 66 72 72 71 71 70 68 66 64 62 61 61 63 64 66 63 62 60 59 59 59 60 59 60 60 59 60 60 61 63 58 55 55 56 54 57 61 62 62 62 61
57 59 62 70 72 71 71 69 68 66 64 63 60 63 63 65 64 63 63 61 60 61 61 60 62 62 62 61 61 61 61 63 56 55 55 57 60 56 60 62 63 62 62
58 59 59 61 67 71 71 70 69 67 65 64 63 63 63 62 62 61 62 62 62 63 63 62 62 64 64 64 63 63 64 64 59 56 54 55 61 59 59 61 63 63 63
58 58 58 60 61 65 66 70 69 69 68 67 67 66 66 65 64 63 63 64 63 63 63 63 63 62 64 65 65 65 65 64 58 56 55 55 62 59 60 60 61 62 63
56 58 59 59 60 62 62 65 68 68 67 67 66 65 64 58 58 59 62 63 61 62 62 62 62 63 64 65 65 65 65 58 56 54 52 58 59 59 60 61 61 62 62
54 56 58 59 59 61 60 63 63 62 63 62 61 59 60 55 55 58 60 62 62 63 63 63 63 63 64 58 58 63 59 57 56 55 55 60 58 58 59 61 61 61 61
51 54 56 58 59 60 61 61 61 61 60 59 58 58 56 54 54 56 57 57 59 60 59 59 60 60 58 56 56 55 55 55 55 56 57 62 60 59 60 61 61 60 62
48 50 54 56 58 59 60 61 60 60 60 59 59 58 57 57 56 55 54 56 57 57 57 58 57 56 57 57 56 56 56 56 56 57 57 62 63 60 61 62 63 61 60
48 51 52 54 56 58 60 60 60 60 60 59 60 59 58 58 56 56 56 56 57 57 57 57 57 57 57 57 57 57 57 57 57 58 58 60 63 63 61 62 63 64 63
49 51 52 53 54 55 58 60 60 60 60 60 60 60 60 60 59 59 59 59 58 58 58 58 58 58 58 57 57 57 56 57 57 57 57 58 62 63 63 63 63 64 65
45 44 44 46 48 54 56 58 60 61 60 60 60 60 60 60 60 60 60 60 59 59 58 58 58 58 58 58 57 57 57 55 55 55 56 56 58 61 63 63 63 63 63
45 46 49 50 46 49 56 58 59 60 60 60 60 60 59 59 59 59 59 59 59 59 59 59 58 56 55 54 54 55 55 54 54 53 54 55 57 56 59 63 63 62 62
46 48 52 52 52 53 58 59 59 59 58 58 58 59 59 59 59 59 59 57 54 55 53 52 50 50 50 50 50 50 50 51 51 49 51 53 54 57 57 58 60 62 63
50 52 54 55 56 57 57 57 57 58 57 54 52 50 48 46 47 48 46 44 44 45 43 44 44 43 43 42 39 40 42 44 46 47 50 49 52 52 49 52 55 56 60
49 53 55 55 56 56 57 57 54 51 49 47 45 43 42 41 41 42 42 40 41 41 41 40 42 43 43 42 41 42 42 41 42 42 42 40 41 41 42 43 45 49 51
44 48 53 55 56 57 53 52 50 47 46 45 45 42 40 38 38 38 39 39 39 39 39 39 39 39 39 39 37 38 36 36 40 38 36 37 38 39 41 41 42 44 45
44 45 47 48 48 49 49 49 48 47 47 43 42 41 39 36 33 33 34 34 34 35 36 36 35 37 34 35 35 35 33 31 35 35 35 35 35 34 38 37 35 37 39
46 46 46 46 46 46 47 46 45 43 41 40 40 39 37 35 31 27 28 28 29 30 29 31 27 30 31 32 34 28 36 35 33 32 32 32 31 28 29 32 31 32 35
47 47 46 44 43 43 42 42 41 40 39 38 36 34 32 31 28 25 23 25 24 25 26 27 27 28 28 32 32 31 32 33 34 30 26 27 27 26 27 29 31 32 33
47 46 45 43 41 41 41 40 39 38 36 35 33 30 28 25 25 24 21 21 21 23 24 23 26 28 30 34 32 30 30 33 30 26 25 26 27 29 30 31 33 34 35

GFSSE_sfc_dewp_024.txt.gz
Dewpoint
62 70 74 73 72 71 71 70 68 66 65 63 61 60 61 61 61 61 61 60 62 60 60 62 63 63 66 66 63 62 62 62 61 60 61 61 59 63 64 60 62 62 59
65 69 74 73 72 71 71 69 68 66 65 63 61 60 60 59 60 58 59 62 61 59 61 62 65 65 63 61 63 62 61 62 60 59 61 63 63 61 62 61 62 63 64
61 69 72 74 73 72 71 69 68 67 65 63 60 58 58 59 60 61 61 60 62 60 60 61 62 62 64 64 64 65 62 60 59 60 61 60 57 61 63 62 61 62 65
58 68 69 73 73 72 71 70 69 67 65 63 60 59 59 62 61 61 59 60 60 61 60 60 61 61 61 62 62 62 62 59 58 60 58 57 53 62 62 60 59 61 63
55 63 68 74 73 72 71 70 69 67 65 62 60 60 62 63 64 58 60 61 60 60 59 59 59 59 60 61 61 61 62 62 61 60 57 56 54 56 61 60 60 62 61
55 70 73 73 73 73 72 70 68 67 66 63 61 60 61 63 66 63 62 61 60 60 60 59 59 59 58 59 61 61 61 61 62 58 55 55 54 56 59 60 61 62 61
57 68 71 73 73 72 72 70 69 67 65 63 61 61 64 64 65 64 63 61 60 59 59 59 58 59 61 60 60 60 60 63 60 56 55 54 56 56 57 61 62 62 62
57 64 69 72 72 72 72 70 69 67 65 64 60 61 63 65 64 64 64 62 61 61 61 60 60 63 63 63 62 62 63 63 59 55 55 55 58 60 58 59 62 62 64
58 59 64 69 70 71 72 70 70 68 67 65 63 63 64 65 63 63 63 63 63 62 63 63 62 62 63 64 64 65 65 65 61 59 56 55 60 60 60 60 60 62 64
58 58 60 61 65 66 70 70 70 69 68 67 67 66 65 64 64 65 65 65 63 63 62 62 63 62 62 63 65 66 66 65 62 59 57 55 61 60 60 60 61 61 63
57 58 58 59 61 64 66 68 69 69 68 67 66 65 64 61 59 61 63 64 63 61 61 62 63 63 65 65 65 65 65 62 59 57 55 60 62 58 59 60 61 61 62
55 57 58 59 60 62 61 66 65 64 65 64 63 62 62 60 58 59 61 62 63 64 64 63 63 64 64 61 59 61 62 60 59 57 56 62 62 59 59 60 61 61 62
53 56 57 59 59 61 61 64 64 63 63 63 62 59 59 55 55 57 58 59 60 62 60 61 62 62 60 59 57 56 59 59 56 56 58 63 64 62 61 61 62 62 62
50 53 56 56 59 59 61 61 61 61 61 60 59 58 57 57 56 55 55 56 57 58 59 58 58 57 57 57 56 56 56 56 56 57 58 62 64 64 63 63 63 63 63
47 50 52 55 56 59 59 61 61 60 60 60 60 59 58 58 57 57 57 57 58 58 57 57 58 58 58 58 58 57 57 57 57 57 58 60 63 65 65 64 64 64 64
49 51 52 53 54 56 59 59 60 60 60 60 61 60 60 60 59 60 59 60 60 59 59 59 58 58 58 58 57 57 56 56 56 55 55 56 61 64 65 64 64 64 64
45 45 45 46 48 54 55 59 60 61 61 61 60 60 60 60 60 60 60 60 60 59 59 59 58 59 58 57 56 55 54 55 54 53 54 54 55 59 62 65 65 64 63
45 46 50 49 46 46 55 59 60 61 60 60 60 59 59 59 59 59 59 56 57 59 57 56 53 50 51 51 51 52 53 53 53 52 51 51 53 53 59 63 65 64 64
47 50 52 51 48 51 58 59 59 59 58 58 57 54 49 48 51 53 48 45 46 48 46 45 44 45 44 43 43 41 43 42 45 45 46 45 46 43 41 50 57 60 62
51 54 54 56 57 58 58 58 56 50 48 47 46 45 44 43 43 45 44 42 43 43 43 42 41 43 43 42 38 39 40 41 42 41 42 35 34 37 40 39 41 44 54
54 54 55 56 56 57 57 56 51 49 46 45 44 41 40 40 41 40 42 41 41 40 40 37 39 38 38 39 38 35 37 36 36 35 30 30 35 34 37 36 39 39 37
51 54 55 56 54 52 52 50 49 46 46 45 44 40 37 35 35 33 35 36 34 36 35 34 33 35 35 35 34 33 33 32 34 30 34 35 32 35 30 34 28 27 30
46 48 48 49 49 49 48 47 46 47 46 43 42 40 37 32 30 30 30 30 31 32 32 31 31 30 31 33 32 32 32 31 30 32 31 33 28 26 30 26 22 26 26
46 47 47 47 47 48 48 47 45 43 41 41 40 39 37 31 28 26 27 27 27 29 27 28 26 28 29 31 34 30 31 32 29 29 33 28 27 24 24 25 25 26 30
47 46 44 43 43 43 43 42 42 40 40 38 36 33 30 30 27 24 24 25 24 27 25 25 25 27 29 31 34 32 30 31 30 31 27 24 24 25 26 28 30 29 30
47 45 43 41 41 41 40 39 38 36 35 34 30 29 28 27 28 24 22 21 21 23 24 24 24 25 29 31 33 30 30 27 24 26 26 23 22 23 26 29 30 26 26

GFSSE_sfc_dewp_027.txt.gz
Dewpoint
68 72 74 72 72 71 70 70 67 66 65 63 62 61 62 63 63 62 61 61 61 61 62 64 64 64 67 65 63 63 64 62 61 61 60 60 60 60 63 60 61 62 60
69 72 74 73 72 71 71 69 68 67 65 63 62 61 59 61 60 58 60 62 60 60 60 62 64 65 65 64 65 63 63 61 60 60 61 63 62 61 63 62 61 62 64
70 72 72 73 73 72 71 69 68 67 65 63 61 60 60 61 61 62 61 61 59 59 60 60 62 62 64 64 63 64 62 61 61 59 62 60 59 61 61 62 62 61 63
69 71 72 73 73 72 71 69 68 67 65 63 61 60 59 62 62 61 61 61 60 60 59 59 59 60 60 61 61 62 62 61 59 60 59 57 56 59 62 62 61 60 62
69 70 71 73 73 73 71 70 69 67 65 63 61 61 61 63 64 59 62 61 60 59 59 58 58 58 60 60 60 60 61 61 62 61 58 57 55 53 60 62 60 61 62
65 67 72 74 73 73 72 70 69 67 65 63 62 61 61 63 65 63 63 61 61 60 59 59 58 59 58 57 58 60 61 61 64 59 56 56 56 58 57 61 61 62 62
69 70 72 73 73 73 72 70 69 68 66 63 62 62 64 64 66 65 64 62 61 60 60 59 59 58 60 61 61 60 60 63 60 58 56 55 54 60 60 58 61 63 63
69 70 71 72 73 73 72 70 69 67 66 64 62 64 65 65 67 65 64 62 62 61 61 61 60 61 63 64 64 63 64 64 61 57 56 56 58 61 61 60 60 61 63
66 69 70 71 71 72 72 71 70 68 67 66 63 63 65 65 64 63 65 64 63 63 62 63 63 62 62 63 64 66 66 66 63 60 59 57 59 61 61 61 61 61 61
62 65 69 69 70 69 70 70 70 69 68 67 66 65 65 64 64 65 66 66 64 63 63 61 62 62 62 63 64 66 66 66 63 61 60 58 62 62 61 61 61 61 61
58 61 64 66 67 67 70 69 69 69 68 67 66 65 64 62 61 62 64 64 66 64 62 62 63 63 65 65 65 65 64 63 62 60 59 60 63 63 62 63 63 61 62
56 57 59 62 63 64 67 68 67 67 66 65 64 62 62 61 59 59 61 63 64 64 64 63 64 65 65 62 61 62 59 61 61 59 58 62 63 62 62 64 64 63 61
54 57 58 59 61 63 64 66 66 65 64 64 63 62 62 61 58 58 59 59 59 61 60 61 60 62 61 61 59 58 58 60 59 59 59 63 64 63 64 65 65 65 64
53 55 58 59 59 60 64 64 64 63 63 63 62 60 59 56 55 55 55 57 58 59 58 59 58 57 58 59 58 56 56 56 57 57 58 62 65 64 63 65 66 66 66
52 54 56 57 58 59 61 62 61 61 61 60 59 58 58 57 57 57 57 57 57 58 57 57 58 58 58 58 58 58 57 57 56 57 57 60 63 64 63 62 63 65 65
50 51 55 55 56 59 59 61 60 60 60 60 61 60 59 60 59 59 59 60 60 60 59 59 58 58 58 57 57 55 55 54 54 54 54 54 60 60 61 61 62 62 62
44 45 46 48 51 55 58 59 60 61 61 61 60 60 60 60 60 60 60 58 58 58 54 51 46 48 48 47 45 47 51 51 52 52 52 53 53 57 59 53 54 58 60
44 46 49 48 45 48 56 60 60 60 60 59 58 55 51 51 58 55 45 44 46 46 45 43 44 44 43 43 42 42 42 42 43 44 45 45 44 39 46 51 52 51 53
45 50 51 50 47 52 59 57 54 52 48 46 45 44 42 42 44 43 43 42 43 43 43 41 42 42 41 41 37 37 40 37 41 41 40 33 32 36 39 46 50 51 49
52 53 54 55 57 58 53 49 46 44 44 42 41 40 40 40 40 41 40 38 40 41 39 37 37 36 37 37 31 36 33 37 40 36 33 26 33 34 36 35 38 39 44
54 55 56 57 57 57 51 48 45 44 42 41 38 36 35 36 35 35 37 35 35 36 33 31 34 33 34 34 35 30 34 34 31 29 22 34 31 33 29 26 28 24 24
53 53 54 53 52 52 51 49 47 44 43 42 40 34 31 30 31 29 31 32 30 32 29 28 29 31 33 32 33 32 30 32 32 24 31 29 31 28 26 24 22 22 25
48 49 49 49 48 47 46 45 44 45 43 41 39 36 30 27 27 28 27 27 28 30 28 26 27 28 29 32 33 31 28 29 26 31 25 31 28 26 26 23 25 25 25
46 47 47 48 47 47 46 46 44 41 40 40 39 36 31 26 24 25 25 25 25 28 24 26 25 27 29 29 33 32 30 30 29 26 31 23 27 26 24 26 26 27 30
45 43 42 42 43 43 42 42 41 39 39 37 33 30 28 25 23 23 22 23 23 25 23 23 24 24 26 29 30 32 28 29 29 26 20 22 25 24 24 25 26 28 28
43 42 41 40 39 39 39 38 37 35 31 28 26 26 26 25 25 21 20 19 19 21 21 21 23 22 25 28 27 30 28 25 25 22 20 21 22 20 24 23 27 28 24

GFSSE_sfc_dewp_033.txt.gz
Dewpoint
66 71 74 72 71 71 70 69 67 66 65 64 64 65 66 68 66 63 61 61 59 60 62 64 62 68 68 67 66 64 63 61 60 60 60 61 60 59 63 61 61 61 64
68 72 74 73 72 71 70 69 67 66 64 63 62 63 64 65 64 62 59 60 59 59 60 63 65 66 66 66 64 62 61 61 60 59 61 62 61 61 60 63 63 61 63
70 72 72 73 73 71 69 68 67 66 64 63 62 60 61 61 60 60 60 59 58 60 58 61 62 63 64 63 63 63 62 61 60 60 61 57 58 60 62 61 63 62 61
71 71 71 73 73 71 69 68 68 66 65 63 61 61 61 61 61 61 60 60 60 59 59 59 59 61 61 61 62 62 62 62 61 61 58 58 57 60 62 61 63 63 62
71 71 71 73 73 72 70 69 68 67 65 63 61 61 61 61 63 61 61 60 59 59 58 58 58 59 60 61 61 61 61 61 62 61 59 57 57 59 61 61 64 62 62
70 70 72 73 73 73 72 69 68 67 66 63 62 61 62 64 65 63 63 62 62 60 59 58 58 58 57 58 58 58 59 60 63 59 58 57 57 59 61 61 60 62 62
69 70 71 73 73 73 71 69 68 67 66 64 61 63 63 64 66 62 64 63 62 61 60 59 59 59 59 61 62 62 63 64 61 58 57 56 55 61 61 62 62 61 63
69 70 71 72 73 73 71 70 69 68 66 64 62 63 64 65 66 65 64 63 63 62 61 61 61 60 61 63 63 63 64 65 63 60 60 59 60 63 62 61 62 62 61
68 70 70 72 72 72 71 71 70 69 68 65 64 66 66 66 68 66 65 64 63 63 63 63 63 63 63 62 62 64 66 66 64 62 62 61 62 64 64 63 62 62 62
68 69 70 71 71 71 70 70 70 69 69 67 66 67 66 65 66 67 67 66 64 63 64 63 62 61 62 63 63 65 65 65 62 61 62 61 64 65 65 65 65 64 63
67 68 69 70 70 70 69 69 70 69 68 67 66 65 65 62 61 62 64 65 66 64 64 64 63 63 65 65 65 65 65 62 60 60 61 62 64 65 66 66 65 65 64
64 65 69 69 69 69 69 68 67 67 66 65 64 62 62 61 60 60 61 64 65 65 66 64 64 66 65 62 61 62 60 59 58 59 60 63 64 65 65 65 65 65 64
61 63 66 67 68 68 68 67 67 66 65 64 63 62 61 61 60 59 59 59 60 61 60 59 59 58 58 59 59 59 58 57 57 58 59 61 60 61 61 61 62 62 63
54 59 63 65 66 66 66 67 67 66 64 63 63 62 61 60 59 57 57 57 58 58 58 58 58 58 57 57 55 53 51 54 54 54 54 56 57 57 56 57 59 59 60
48 55 59 62 63 64 65 66 65 65 64 64 63 63 61 60 56 56 56 58 58 58 58 57 53 49 46 45 43 44 45 45 44 47 49 54 50 49 52 53 54 55 56
39 50 57 60 62 62 64 64 64 64 63 63 62 61 59 58 59 59 56 54 48 48 46 45 44 43 41 40 37 38 39 39 39 40 44 39 46 45 48 51 51 53 53
45 50 57 58 60 61 63 64 63 63 62 61 60 60 60 60 51 47 46 46 44 43 42 40 39 38 36 35 32 33 33 36 34 40 35 28 36 43 43 46 47 47 47
45 48 55 58 59 60 61 61 61 60 57 50 49 48 47 45 44 43 43 42 40 38 37 36 34 33 33 32 30 30 33 31 34 34 25 27 35 34 36 42 41 40 42
45 48 48 51 56 58 59 55 51 48 46 44 43 43 41 40 39 38 39 38 35 33 32 33 32 32 31 30 29 32 31 30 38 25 22 30 33 31 29 33 35 34 37
46 49 49 53 55 53 49 45 43 42 41 41 39 38 36 35 34 34 33 33 32 29 29 28 29 28 32 30 30 30 28 31 34 23 25 27 31 28 27 26 25 26 34
52 52 51 54 49 49 47 44 42 40 37 35 33 31 30 30 31 30 31 30 29 26 25 25 27 27 29 31 29 29 31 32 29 22 27 24 25 23 28 25 26 24 27
53 54 55 52 49 49 46 43 41 38 34 31 30 27 27 26 27 26 28 27 25 25 24 24 25 26 27 30 30 31 26 25 28 20 26 27 21 24 26 20 26 23 25
53 54 54 51 48 45 42 39 36 33 32 29 27 26 25 24 25 25 25 25 25 25 24 24 24 24 24 27 29 24 19 21 27 26 21 26 19 25 20 26 26 23 26
52 51 50 48 45 42 41 38 36 34 32 35 30 25 23 22 22 23 23 22 23 24 21 22 22 22 25 25 27 26 28 29 22 20 25 20 22 15 22 26 24 25 25
49 48 47 46 44 43 41 39 38 37 35 32 26 22 20 21 20 20 20 20 20 22 20 20 19 19 23 25 25 26 27 26 26 25 17 18 15 15 19 21 24 24 23
45 45 45 45 43 42 40 39 37 34 30 27 26 24 22 21 21 19 17 17 17 19 18 19 19 18 20 21 22 21 22 21 23 21 17 15 14 14 20 20 21 22 24

GFSSE_sfc_dewp_036.txt.gz
Dewpoint
65 69 74 73 72 71 70 68 67 66 67 65 65 65 66 67 65 63 62 61 60 61 63 62 63 68 68 68 67 64 62 61 60 60 61 62 60 58 60 62 61 61 64
66 71 74 73 72 71 69 69 67 66 65 64 63 65 65 68 64 62 59 59 60 59 62 65 67 66 68 67 65 63 62 62 61 61 62 60 60 61 61 61 63 62 62
68 72 72 73 72 71 70 69 67 65 64 63 62 62 62 62 61 58 58 59 59 59 59 62 63 65 66 64 64 64 63 62 61 60 61 57 57 60 62 61 62 62 61
70 72 71 73 73 71 69 68 67 66 64 62 61 60 60 60 60 59 59 59 60 59 58 59 60 62 62 62 62 62 62 62 62 62 59 58 57 60 61 61 62 63 62
70 71 71 74 73 72 69 69 67 66 65 62 61 62 62 61 62 61 60 60 59 59 58 58 58 59 60 61 61 61 61 60 62 61 59 58 57 59 60 61 61 64 62
70 70 72 73 73 72 71 69 68 67 65 63 61 62 62 63 64 62 62 62 61 59 58 58 58 57 57 58 58 59 60 59 62 57 57 57 57 59 59 61 61 60 62
69 69 71 74 73 72 70 69 68 67 66 64 62 61 62 63 66 64 64 63 62 61 60 59 58 59 59 61 62 62 63 64 61 59 58 58 57 62 62 60 62 62 62
69 70 71 72 73 73 72 70 69 68 66 64 62 63 64 64 66 65 65 63 63 61 60 60 60 60 61 62 63 63 65 66 64 61 60 60 62 65 64 63 61 62 62
68 69 70 71 72 72 71 71 70 69 67 65 63 64 66 67 66 66 65 64 63 62 62 63 62 62 62 62 63 64 65 66 63 62 62 61 63 65 66 65 64 64 63
67 69 69 70 71 70 70 71 70 70 69 67 66 67 66 65 67 67 67 66 64 63 63 64 63 62 62 63 64 65 66 65 61 60 60 60 64 65 66 66 66 66 65
66 67 68 70 70 69 69 69 70 69 68 67 66 66 65 62 61 61 64 66 66 64 64 64 64 64 66 65 64 64 64 60 59 59 59 62 64 65 65 66 66 66 66
64 66 69 69 69 69 69 68 67 67 66 65 63 61 62 60 60 60 61 62 64 65 65 64 64 64 62 60 60 60 59 58 57 58 59 60 59 61 62 62 62 62 63
61 65 68 67 68 69 69 67 66 66 65 64 63 61 61 61 59 59 59 59 59 60 59 59 58 58 57 58 58 56 54 55 54 54 54 56 57 57 57 57 58 59 59
57 62 65 67 68 68 67 67 66 66 64 63 63 62 60 60 59 57 57 56 57 58 57 57 57 56 49 44 43 45 46 45 45 46 48 54 51 52 53 54 55 56 57
52 55 62 66 67 67 67 67 66 66 65 64 63 62 62 60 58 55 56 58 58 57 55 48 46 44 41 39 37 38 38 38 38 40 44 47 48 49 51 53 54 55 54
40 43 57 63 65 65 66 66 66 65 64 64 63 63 62 59 58 59 54 47 45 45 44 43 40 38 35 33 28 29 32 35 32 41 30 35 46 46 47 50 50 50 49
39 41 52 60 63 64 64 65 64 64 64 63 62 60 59 60 52 48 46 44 42 41 38 34 33 33 29 29 26 27 31 30 35 28 26 31 36 40 44 45 45 44 45
41 46 52 58 61 62 63 63 63 62 60 55 55 56 52 46 45 44 42 39 34 33 33 32 30 31 28 28 26 28 30 28 37 20 27 31 34 30 34 40 39 39 41
44 47 51 57 59 61 61 60 55 51 49 46 45 44 41 40 40 39 36 33 30 29 29 29 29 31 28 26 24 29 26 29 33 20 26 29 29 27 28 31 35 35 36
45 48 48 55 58 58 51 47 45 44 43 41 40 38 36 34 33 33 30 28 28 27 26 25 25 27 30 29 26 24 29 31 32 22 27 26 25 25 28 24 27 27 33
47 49 52 54 52 51 48 46 44 41 37 35 33 31 31 30 29 29 29 26 26 24 24 23 25 23 27 30 27 28 29 29 30 25 25 25 22 22 26 20 25 27 26
50 51 53 51 50 50 49 44 41 45 35 31 30 27 27 26 27 25 26 25 23 24 23 22 22 22 25 29 26 28 22 21 25 19 23 26 21 24 21 15 22 25 24
52 53 53 50 48 45 41 37 33 33 29 27 26 26 25 24 25 24 24 24 23 24 24 23 22 23 23 25 29 22 14 15 26 24 23 27 19 22 17 20 23 23 23
52 53 51 48 45 42 41 38 36 34 29 29 26 24 22 22 23 23 22 22 22 23 21 22 20 21 23 23 24 24 26 28 19 18 23 19 20 15 17 21 22 23 25
51 51 48 45 43 41 39 38 36 34 30 26 23 20 19 20 20 20 20 20 20 22 19 18 18 19 22 22 23 24 24 24 24 24 16 18 16 15 16 19 22 20 21
49 48 46 44 42 41 39 38 35 28 24 22 22 20 21 21 21 18 17 17 18 19 18 19 18 17 19 19 20 20 21 20 21 19 17 16 16 15 17 18 19 22 23

GFSSE_sfc_dewp_039.txt.gz
Dewpoint
66 69 74 73 72 71 70 69 68 68 67 66 67 68 67 67 65 63 62 61 61 61 63 61 62 66 68 68 67 65 63 62 62 62 62 60 59 59 58 62 61 58 62
66 69 75 73 72 71 70 69 68 67 66 65 66 66 66 67 65 62 60 59 59 60 63 66 69 68 68 68 66 64 63 62 62 62 61 60 60 60 60 62 62 59 62
66 70 71 73 73 71 70 69 67 66 65 63 62 63 64 65 62 58 59 59 60 60 60 63 65 67 66 65 65 64 63 62 61 61 61 58 58 59 60 62 62 62 61
68 71 70 73 73 71 69 68 67 65 64 63 61 61 60 59 60 60 60 60 60 59 59 60 61 63 63 63 63 62 61 61 62 62 60 59 57 58 60 61 62 63 63
70 71 71 73 73 71 70 68 67 66 64 62 61 61 61 61 61 60 60 60 60 59 58 59 59 60 61 61 60 59 59 59 62 61 59 58 58 56 59 61 61 62 65
70 71 72 73 73 72 71 69 67 66 65 63 62 62 62 62 62 63 62 62 61 60 59 58 58 58 58 59 60 61 61 61 61 59 60 59 60 60 61 60 62 61 61
69 71 71 74 73 72 70 69 68 67 66 63 62 62 62 63 65 64 64 63 62 60 60 59 58 59 59 61 62 62 62 65 62 62 62 62 62 64 64 62 61 62 62
70 70 71 72 73 72 71 70 69 68 67 64 62 62 63 64 65 65 65 64 63 61 60 60 61 62 62 62 62 63 64 66 62 62 62 62 63 65 65 64 64 63 63
70 70 70 70 71 72 71 71 70 69 68 66 63 64 65 66 66 67 66 64 63 62 62 63 63 62 62 62 63 64 66 65 62 61 61 61 62 65 66 65 66 65 65
69 70 70 71 70 70 69 70 70 70 69 67 66 66 66 64 66 68 66 66 64 63 63 64 64 63 63 63 64 65 65 64 61 61 60 60 64 65 66 65 65 66 66
67 69 70 70 71 71 70 69 70 69 68 67 65 66 64 63 62 62 64 66 65 64 64 64 64 65 66 64 63 63 62 60 59 59 59 62 61 62 63 63 63 63 63
65 67 69 69 70 70 70 69 69 68 67 65 62 64 63 63 61 60 61 61 62 64 63 63 62 61 60 59 59 60 58 57 56 55 54 57 58 59 59 59 59 60 61
63 66 68 68 68 69 69 69 69 68 67 65 63 62 62 61 61 60 60 60 60 61 60 59 59 59 58 53 49 48 48 45 45 45 48 54 54 54 55 56 56 57 58
60 63 66 67 67 68 68 68 68 67 66 65 64 63 62 61 61 60 58 58 59 59 59 60 55 46 44 40 38 40 40 39 38 39 44 51 51 52 52 54 55 57 55
54 57 64 67 67 67 67 67 68 67 66 65 64 63 62 61 60 57 58 59 58 56 50 47 44 40 35 31 28 30 32 34 31 41 32 50 49 50 51 53 53 53 52
43 46 56 64 67 67 66 67 67 67 66 65 64 63 62 62 58 60 50 48 46 45 42 40 36 34 29 26 24 27 31 28 36 30 33 40 45 47 49 49 49 48 49
42 42 46 57 65 67 67 67 67 66 66 65 64 63 63 60 59 51 47 44 42 39 33 31 32 30 27 24 22 27 29 26 37 27 32 33 32 42 44 44 44 44 44
43 43 45 53 63 65 66 66 66 65 65 64 63 61 59 53 49 46 42 36 33 32 32 29 30 30 26 25 22 26 26 30 25 28 30 30 29 27 33 37 37 38 40
41 43 47 55 61 63 65 65 64 63 60 57 53 49 47 45 44 40 36 31 28 28 29 27 28 30 26 24 23 24 28 32 25 25 27 29 28 29 27 28 32 32 35
44 46 49 55 61 62 62 57 53 51 52 51 48 42 40 38 36 33 31 28 27 27 25 27 24 27 25 26 21 20 31 35 28 26 25 26 25 26 26 23 21 21 31
45 49 50 57 60 57 54 53 50 48 50 44 39 34 34 34 30 29 27 26 26 24 22 20 25 24 25 27 23 24 27 27 32 31 21 26 25 24 22 19 16 17 20
45 49 53 57 56 55 54 51 48 49 47 46 35 32 32 30 27 25 26 25 24 24 22 22 23 23 23 28 21 25 20 19 25 22 27 25 23 22 18 15 15 17 21
49 50 53 53 53 51 45 44 41 42 39 36 30 31 32 26 25 25 25 24 25 25 23 23 24 26 22 26 24 20 16 14 21 21 21 24 19 18 17 17 17 17 19
50 53 53 51 49 46 44 44 43 45 40 35 31 29 25 23 23 23 23 23 23 24 22 22 21 22 24 20 23 20 25 22 15 12 20 19 19 14 17 17 16 18 20
52 54 52 49 46 44 44 45 45 41 37 28 23 21 20 21 22 22 22 23 22 22 21 21 20 21 20 21 21 21 21 20 23 21 12 14 15 16 17 17 17 18 19
53 52 49 47 44 43 42 40 38 32 27 22 21 20 21 19 20 20 20 21 21 21 21 20 20 21 19 21 21 20 19 17 16 16 15 16 17 14 17 18 18 17 18

GFSSE_sfc_dewp_042.txt.gz
Dewpoint
63 68 74 74 72 71 70 69 68 68 68 69 68 68 67 66 65 64 62 61 61 63 63 60 61 63 68 68 67 65 63 62 62 63 60 60 59 59 58 62 61 56 61
64 67 75 74 72 71 70 69 69 68 67 67 67 68 68 67 65 63 60 60 60 61 66 67 69 68 67 68 66 64 64 62 62 62 59 59 59 60 60 62 61 58 61
65 66 70 73 73 71 70 69 68 67 66 64 66 65 68 66 63 59 60 60 60 59 62 64 66 68 67 66 65 65 63 62 61 62 60 56 54 58 61 62 62 63 61
65 67 67 73 73 71 70 68 67 66 65 63 63 63 63 61 61 61 60 61 60 59 60 61 63 64 64 64 64 63 62 61 62 62 57 54 52 54 59 61 62 63 63
65 66 68 73 72 71 69 68 67 65 64 63 62 62 62 61 61 61 61 61 61 59 59 59 60 61 61 60 60 59 59 60 62 60 56 57 58 54 59 59 61 61 64
65 65 72 73 73 72 70 68 67 66 64 63 63 63 62 63 63 63 63 63 61 60 59 59 58 59 60 61 61 61 61 62 62 59 60 59 60 62 63 62 61 62 62
65 65 69 73 73 72 70 69 68 67 65 63 63 63 63 63 63 64 64 64 62 61 61 60 60 60 60 61 63 62 63 64 61 59 60 61 61 64 64 64 63 62 63
66 66 67 72 72 72 71 70 68 68 66 64 63 63 62 63 65 65 65 64 63 61 61 61 62 62 62 62 62 63 64 65 59 59 60 61 62 64 65 65 65 65 64
66 66 66 68 70 71 71 71 70 68 68 65 63 64 64 65 65 66 66 64 63 62 62 63 63 62 61 62 63 64 65 65 61 60 60 60 64 65 66 66 66 66 66
65 65 65 66 67 68 68 70 70 70 69 68 66 66 66 65 67 68 67 66 64 63 63 63 63 63 63 64 64 64 63 63 59 60 60 60 64 64 64 64 64 64 64
64 64 64 66 66 66 67 68 70 69 68 67 65 66 64 60 63 64 64 66 65 63 63 64 64 65 64 63 62 62 62 59 58 59 59 58 59 61 61 60 60 61 62
62 64 64 65 66 66 66 68 68 66 65 63 59 61 59 58 58 59 61 61 62 63 62 62 61 60 60 59 59 60 56 55 55 55 53 56 57 58 57 57 57 58 59
59 62 64 65 67 67 67 66 67 66 64 63 60 59 58 57 56 56 58 57 59 60 59 60 60 59 56 51 50 49 49 48 48 47 49 52 53 54 54 55 56 59 57
56 60 63 64 66 67 67 67 66 66 64 63 62 58 58 58 59 58 57 59 60 59 60 60 54 48 45 43 41 42 41 41 38 38 44 50 50 50 53 55 55 55 54
53 57 61 64 65 66 67 67 66 65 64 64 62 60 59 59 59 58 57 58 59 58 53 50 45 41 42 38 33 31 32 32 30 35 34 50 49 50 52 52 51 51 51
50 51 56 62 64 65 66 67 67 65 64 64 62 61 60 60 60 59 56 52 48 46 44 45 43 40 36 30 26 26 28 27 30 32 33 40 48 48 49 48 47 47 47
42 43 44 53 61 64 66 66 67 64 64 64 63 62 62 62 61 56 51 49 46 43 39 38 36 33 30 27 26 24 26 23 32 30 33 32 35 43 42 42 41 40 42
45 44 44 44 51 61 64 66 65 64 64 64 64 63 63 61 57 50 45 41 39 39 36 32 31 32 29 27 25 25 25 26 28 29 32 29 30 27 32 36 37 37 38
43 43 44 47 49 56 62 63 64 63 63 64 64 63 60 58 52 46 41 36 34 33 32 28 30 28 27 25 23 22 28 32 28 24 28 27 29 30 27 25 28 27 31
43 44 44 47 51 57 60 62 63 63 64 63 61 57 54 51 45 38 36 32 31 30 29 28 27 26 24 24 19 19 29 33 28 28 27 22 26 27 26 24 21 20 26
44 45 46 48 53 57 59 60 62 60 59 58 56 50 47 42 37 33 33 30 30 27 24 23 25 25 25 25 23 23 26 26 32 31 27 24 25 23 21 18 16 17 17
44 45 47 50 55 58 59 58 58 56 54 51 47 43 42 35 32 30 30 29 27 25 24 23 24 25 24 26 21 25 22 20 25 28 21 24 20 21 18 17 17 17 18
45 45 48 51 57 58 58 58 53 49 44 40 38 38 35 31 28 30 29 27 27 26 25 25 26 26 24 25 23 21 19 18 18 20 21 18 20 17 17 19 18 17 18
44 48 49 52 56 57 55 52 51 52 48 43 38 36 34 31 29 26 26 25 25 24 24 23 21 22 24 22 24 18 23 18 14 13 17 17 17 15 18 18 17 17 19
46 49 51 53 55 54 52 53 54 52 47 39 35 30 29 26 26 25 24 25 23 23 23 23 22 21 19 22 21 21 20 18 18 18 15 14 15 17 17 17 17 18 18
44 52 53 52 52 52 53 53 54 50 41 35 30 29 29 29 25 23 22 23 22 23 23 22 22 22 21 23 21 20 18 17 15 17 15 17 17 15 16 18 18 17 18

GFSSE_sfc_dewp_045.txt.gz
Dewpoint
62 69 75 74 73 72 70 70 70 70 69 69 68 68 67 66 65 64 63 62 63 66 63 63 61 63 68 67 66 65 64 63 63 62 60 59 59 60 58 61 63 58 62
64 68 75 74 73 71 70 69 69 69 69 69 68 68 68 66 64 62 62 60 61 63 66 68 69 64 67 68 65 65 64 63 62 62 60 60 59 61 61 63 63 59 60
64 67 70 73 73 72 70 69 69 68 67 67 67 67 68 66 63 61 61 61 61 60 64 66 68 69 69 67 66 65 64 63 62 62 63 58 54 58 59 62 62 62 61
63 66 68 73 73 71 70 69 68 67 65 65 65 67 67 63 61 61 61 61 60 60 60 63 65 65 65 64 64 63 62 62 62 62 57 52 50 58 57 59 62 62 64
63 65 69 73 72 71 69 68 67 65 64 63 64 63 62 61 61 61 62 62 60 60 60 60 61 61 61 61 61 60 60 60 61 60 57 59 59 61 61 60 59 62 63
62 64 71 73 72 71 70 68 66 65 64 62 63 63 63 63 62 62 63 62 61 60 60 59 60 61 61 63 63 62 61 62 65 59 58 60 60 64 64 62 62 61 62
61 66 69 73 72 71 69 68 67 65 64 63 63 63 63 64 64 64 64 64 61 61 61 61 61 61 62 61 62 63 65 64 60 58 58 60 62 63 65 64 64 65 64
61 64 68 71 72 71 70 69 68 67 65 63 64 63 64 63 64 65 65 64 63 62 62 62 62 62 62 62 62 63 64 65 60 58 59 60 63 64 65 65 65 66 67
61 62 66 68 69 71 71 70 70 68 67 65 65 64 64 64 64 66 66 65 63 62 62 63 63 62 61 62 63 64 64 64 61 59 59 60 65 65 65 65 65 64 65
62 61 63 66 67 67 68 70 70 69 69 67 66 67 66 66 67 68 67 66 64 63 63 64 64 63 64 64 64 63 63 64 60 58 60 59 61 62 62 62 61 62 63
61 61 61 62 65 65 66 68 69 69 68 67 65 66 64 60 63 64 65 67 65 64 64 64 64 64 63 64 62 61 63 58 57 58 57 59 59 60 60 59 59 60 61
60 60 60 62 63 65 66 68 67 66 65 62 58 61 59 57 59 61 62 64 64 64 63 62 61 61 62 59 60 61 54 52 52 52 52 55 55 56 56 57 57 60 60
58 60 60 62 62 62 64 68 66 66 64 63 58 58 57 55 57 56 58 57 59 60 60 60 61 59 54 51 51 51 50 48 48 48 50 52 52 52 53 55 58 57 56
54 58 61 61 62 62 64 64 65 65 64 63 60 57 57 55 54 55 56 58 59 58 58 60 54 51 48 46 44 42 42 42 40 40 48 52 52 53 54 55 54 54 53
50 55 59 60 62 64 64 64 62 64 64 62 61 57 57 57 57 57 56 57 57 58 56 53 50 47 46 42 39 35 34 34 32 36 42 52 51 53 53 52 50 50 50
49 52 55 59 61 62 65 66 64 62 64 64 62 59 58 58 58 58 58 57 54 52 50 49 47 44 41 36 32 28 29 31 29 34 36 44 49 49 47 47 45 44 44
43 49 50 55 58 61 63 65 66 63 63 64 62 59 59 60 61 59 56 54 52 49 46 44 41 37 33 32 30 28 27 26 29 29 35 36 42 43 41 41 40 40 41
45 44 44 44 54 59 61 65 66 64 63 64 63 60 60 61 61 57 54 50 47 46 43 39 35 34 33 30 28 31 28 29 29 27 32 32 37 32 38 34 33 34 35
44 44 45 46 46 52 59 62 64 63 61 63 63 61 61 61 59 53 50 44 43 41 38 33 33 30 30 30 29 27 33 33 31 25 29 29 32 33 32 30 25 29 27
41 43 43 46 47 49 54 60 61 61 62 64 63 62 62 60 55 49 44 41 39 37 34 33 32 29 27 27 21 23 31 34 35 34 30 26 27 28 29 30 28 26 29
40 42 44 44 46 49 54 58 60 61 64 64 65 63 60 56 49 45 41 38 37 34 31 29 29 29 29 27 30 31 32 31 34 34 34 28 28 27 25 24 22 22 21
41 44 45 45 47 51 55 58 59 62 59 59 59 57 53 49 44 39 38 36 32 30 28 27 29 29 28 28 25 31 31 29 30 32 31 26 24 26 23 21 20 21 23
42 43 45 45 49 53 56 58 59 55 50 48 48 46 45 43 40 40 40 33 33 33 32 31 31 33 30 29 26 26 26 26 23 26 25 24 23 25 23 23 22 21 21
41 46 47 48 50 54 58 58 57 53 50 46 47 46 43 39 37 35 33 31 30 31 29 28 25 25 30 26 28 20 28 22 19 18 25 22 22 17 21 22 21 21 22
37 46 50 49 51 56 57 58 56 53 53 45 43 39 38 38 32 29 31 32 30 29 26 27 25 24 21 25 24 24 22 22 21 21 20 21 20 21 21 21 20 21 21
39 46 52 51 53 56 57 54 53 55 45 39 37 38 39 36 32 30 27 29 28 28 27 25 25 25 23 25 23 21 21 20 19 21 19 20 20 19 20 20 21 21 22

GFSSE_sfc_dewp_048.txt.gz
Dewpoint
68 72 74 73 72 72 71 71 71 70 70 70 69 69 67 66 66 64 63 64 66 66 67 67 61 63 68 67 66 66 65 64 64 61 59 58 60 61 60 62 63 60 62
69 71 74 74 73 71 70 70 70 71 70 69 69 68 67 66 64 64 62 62 64 67 68 69 67 63 68 67 66 66 65 64 63 62 62 62 63 61 62 63 63 62 61
68 71 72 74 73 72 70 70 70 69 69 69 69 69 67 66 63 63 62 62 61 64 66 68 69 69 68 67 66 65 64 63 63 63 64 62 58 59 58 60 63 61 62
67 69 71 73 73 71 70 70 69 68 67 67 67 68 67 63 62 62 62 61 61 62 64 66 67 66 66 65 63 63 62 61 61 63 61 57 56 60 57 58 60 62 63
67 67 70 73 72 71 70 69 68 66 65 66 65 67 64 62 62 62 63 61 61 60 62 63 63 62 62 61 61 61 61 61 63 63 58 58 58 62 63 61 60 62 63
65 68 72 72 72 71 70 68 67 65 64 64 63 63 62 62 62 63 63 61 61 61 60 61 61 62 63 63 63 63 62 63 66 61 59 61 62 64 64 64 63 63 62
67 69 70 72 72 71 69 68 67 65 64 64 64 63 64 64 64 64 64 62 62 61 61 62 62 62 63 63 63 64 64 65 61 59 59 62 62 64 65 65 65 66 66
68 68 69 71 71 71 70 69 68 66 65 65 65 64 65 65 65 65 65 63 62 62 63 63 63 63 63 63 63 64 64 65 61 60 59 63 65 65 66 64 66 65 66
67 68 68 69 70 70 70 70 69 68 66 66 67 67 67 66 67 66 66 64 63 63 64 64 63 62 62 63 63 64 65 65 62 61 59 60 64 63 64 63 63 63 64
61 66 67 68 68 68 69 70 69 69 68 67 67 67 65 65 66 68 67 66 64 64 64 64 64 64 63 64 64 64 64 64 61 58 58 59 62 62 61 60 61 61 62
61 61 65 67 67 66 67 68 69 69 68 66 65 66 64 62 65 66 65 66 66 65 64 65 64 65 66 65 64 63 63 60 55 56 55 59 59 58 58 59 59 61 62
60 60 61 65 66 65 66 68 67 67 66 63 61 64 63 60 64 63 65 66 66 66 65 65 63 64 63 60 61 62 58 50 51 52 53 56 55 56 56 57 60 59 58
59 60 59 62 64 64 66 67 66 66 65 63 58 62 60 58 59 60 61 61 62 63 62 63 61 59 51 50 50 49 47 46 45 49 51 53 52 51 54 59 56 56 55
58 59 60 61 62 65 67 68 66 66 64 62 58 58 57 57 56 54 59 58 59 58 60 58 53 49 48 46 41 38 37 39 35 45 51 53 52 51 57 55 54 53 52
54 58 60 60 61 63 64 66 65 65 64 62 62 58 58 56 55 56 57 58 58 56 55 53 49 47 45 40 38 33 30 32 29 40 48 56 55 54 53 51 50 48 47
49 56 59 60 61 63 63 64 64 64 63 63 62 58 57 58 58 58 57 56 54 52 51 51 47 43 40 33 31 29 28 29 28 30 44 50 51 49 48 46 45 44 44
44 50 55 59 60 63 64 65 66 64 64 63 62 59 58 59 59 59 56 54 52 49 47 43 40 36 34 33 31 28 26 25 26 28 35 43 45 46 41 40 39 39 40
45 45 51 56 59 60 63 66 66 65 63 63 63 60 59 61 60 57 55 53 48 47 43 39 36 35 32 31 29 29 27 29 29 28 31 34 38 36 38 35 32 33 33
44 45 46 48 53 58 62 65 65 65 63 63 63 62 60 61 58 54 51 46 45 43 38 35 32 31 30 30 27 24 29 31 29 25 28 28 28 30 31 30 29 32 30
40 44 45 47 46 50 59 64 65 65 64 63 63 62 61 60 56 52 46 43 41 38 35 35 31 29 29 28 24 25 30 32 30 30 28 27 29 26 27 25 25 25 31
37 41 44 46 46 47 50 59 62 62 63 65 65 62 62 59 51 45 44 39 38 36 34 30 30 30 29 28 28 28 30 29 32 30 31 29 27 26 22 22 22 22 23
40 40 41 44 46 47 49 55 60 60 58 58 62 62 58 52 48 43 40 36 33 30 28 28 30 29 29 27 24 28 27 27 28 29 32 25 22 22 21 19 19 19 21
38 40 42 45 45 49 53 58 55 55 52 50 49 47 47 46 45 47 46 40 32 34 33 31 31 30 30 27 24 26 24 24 22 25 23 26 20 23 20 21 21 20 20
37 40 43 45 45 49 55 57 57 57 54 50 49 48 45 44 44 43 44 38 33 33 30 28 28 26 29 26 27 24 25 22 20 18 23 21 20 18 20 22 20 20 20
33 40 41 45 45 49 54 57 57 53 50 48 45 43 42 44 43 40 35 35 31 31 27 26 25 23 24 27 25 24 22 23 21 20 20 21 21 21 22 22 20 21 20
34 36 44 47 48 52 56 58 54 50 46 43 40 41 41 40 36 33 30 30 29 29 28 27 26 25 25 25 24 23 23 21 21 20 20 19 19 20 20 21 20 21 21

GFSSE_sfc_dewp_051.txt.gz
Dewpoint
70 73 75 74 73 73 73 72 71 71 70 70 69 69 67 67 66 65 65 66 66 68 67 65 64 68 68 67 66 66 65 65 63 61 60 59 61 61 62 64 62 62 62
71 72 74 74 73 73 72 71 72 72 71 69 69 67 67 66 65 64 63 65 67 67 67 68 64 66 69 67 67 66 65 64 63 62 63 62 62 60 61 63 63 61 60
71 72 73 74 73 72 72 71 71 70 70 70 70 69 67 65 64 64 62 62 65 66 67 65 66 69 68 68 66 65 64 63 62 61 63 62 57 57 57 59 63 62 61
71 72 72 73 73 72 71 70 70 69 69 69 70 68 66 64 64 63 61 61 63 66 67 67 68 67 66 65 64 63 61 59 60 63 60 58 57 62 60 58 59 61 63
70 71 71 73 72 71 70 70 69 68 68 68 69 67 65 64 63 63 62 61 61 64 65 65 65 64 63 62 62 61 61 62 64 64 60 57 61 63 63 62 61 60 60
69 70 72 72 72 72 71 68 67 66 67 66 67 65 64 63 63 63 61 61 61 62 63 63 63 64 64 63 63 63 63 63 65 60 61 64 62 64 64 64 62 64 64
68 70 71 72 72 71 69 68 67 65 65 64 65 64 63 64 65 64 62 62 61 61 62 62 63 63 63 63 64 64 63 64 60 59 61 62 63 64 64 63 66 66 67
68 69 70 71 71 70 69 69 68 66 66 65 65 65 65 65 66 65 63 63 63 63 63 63 63 63 63 63 63 63 63 64 61 60 62 63 66 65 65 65 64 64 65
68 68 70 69 69 69 69 69 68 67 67 67 67 67 68 68 67 66 64 63 63 64 64 64 63 63 63 64 64 63 65 64 62 61 59 61 65 63 63 62 63 63 63
67 68 69 69 68 68 68 69 68 67 67 68 68 67 66 65 67 67 67 65 64 64 65 65 64 64 64 64 64 65 64 63 61 57 58 61 63 61 60 60 60 63 64
67 67 68 68 68 68 68 68 69 68 67 67 66 65 64 63 66 66 65 66 66 65 65 65 65 65 66 65 65 64 63 59 57 54 55 61 58 58 58 58 62 61 61
65 66 67 67 67 67 67 68 67 67 65 64 64 64 62 61 66 64 64 65 67 66 66 65 65 64 63 61 62 62 55 49 52 52 53 56 54 54 57 61 59 58 58
61 64 67 67 66 66 67 67 67 66 65 62 61 63 62 60 64 63 64 64 63 63 63 64 62 60 52 59 56 43 41 41 48 49 54 55 53 54 60 57 56 55 55
60 60 66 66 65 65 66 66 66 66 65 63 59 62 59 59 61 60 60 61 61 61 60 60 58 50 48 44 39 35 34 33 40 46 51 55 51 55 57 55 53 51 51
59 60 61 64 64 65 67 66 66 65 64 63 59 60 58 57 57 56 58 58 59 59 58 53 49 47 41 35 32 30 30 30 39 46 52 57 57 55 53 51 49 48 47
56 59 60 62 63 65 66 67 66 65 65 62 60 59 57 56 54 55 57 58 55 53 52 50 48 43 35 31 30 27 26 27 32 44 48 52 53 51 48 46 45 44 44
44 58 60 60 62 64 64 66 65 65 65 62 62 57 57 57 56 58 55 53 52 50 46 41 38 34 33 30 28 27 26 25 27 37 45 45 46 48 42 39 38 38 39
44 50 59 60 61 63 63 65 66 65 64 63 61 58 57 59 59 56 54 53 51 47 43 38 36 33 32 30 28 27 27 29 27 31 40 40 39 37 38 34 33 35 34
42 44 51 58 59 62 63 65 65 66 64 64 62 59 58 60 57 55 52 49 46 41 38 33 31 31 29 28 26 24 30 32 28 29 29 29 32 34 32 32 33 33 32
38 43 45 51 59 61 64 65 65 65 65 64 62 60 60 59 54 52 47 45 41 37 36 33 29 29 28 26 23 27 30 33 30 29 28 28 29 27 27 24 24 25 30
37 39 44 46 50 57 64 64 64 63 64 63 64 61 61 57 53 48 46 41 38 35 32 30 30 28 27 27 27 27 30 30 30 30 31 28 27 26 23 21 21 21 22
36 37 41 45 45 50 59 64 64 63 60 62 63 62 61 55 49 45 42 39 36 33 30 28 29 30 29 27 24 29 25 26 28 29 32 27 24 24 21 19 18 19 20
36 38 40 42 46 46 49 57 57 56 55 55 53 53 52 50 48 45 43 40 33 32 31 31 30 31 29 27 25 27 23 23 22 24 25 26 20 23 20 22 21 20 19
32 37 40 42 45 47 52 57 58 59 58 54 52 50 47 46 48 46 45 39 39 36 31 30 28 28 30 26 26 25 25 22 16 12 21 23 21 19 20 21 21 20 20
30 33 39 41 45 47 51 56 58 58 52 50 48 46 47 45 44 44 40 37 39 40 34 29 24 25 26 28 27 25 22 23 21 20 17 21 21 21 21 22 21 20 21
32 32 39 41 44 46 51 57 57 53 50 49 46 45 45 45 43 38 35 37 37 37 36 31 28 23 24 25 25 24 23 21 21 20 19 19 19 20 21 21 21 21 21

GFSSE_sfc_dewp_054.txt.gz
Dewpoint
70 72 75 74 74 74 73 73 73 72 72 71 70 69 68 67 66 66 67 67 68 67 66 65 68 68 67 67 66 66 65 63 61 61 60 62 61 62 63 63 62 62 63
71 72 74 74 74 74 73 72 72 72 71 70 69 68 67 67 66 65 66 67 67 65 64 64 67 69 68 67 66 66 64 63 62 62 62 61 62 59 60 63 62 61 61
71 72 72 74 74 74 73 72 72 71 70 69 68 67 66 66 65 63 64 65 65 65 65 64 66 69 69 67 66 65 63 60 61 62 62 60 57 58 57 60 62 62 61
71 72 72 73 73 73 72 71 71 71 70 70 69 68 66 65 64 63 61 63 65 66 66 66 68 69 68 66 65 63 59 60 62 63 58 59 58 62 60 58 60 62 63
71 72 71 73 73 72 72 71 71 70 70 70 69 67 66 65 63 62 61 62 65 67 67 67 66 65 65 64 62 60 61 63 64 62 59 58 62 63 63 63 61 60 60
71 71 72 73 72 72 72 70 69 69 69 68 69 66 65 63 63 62 61 61 64 65 65 64 64 64 64 63 63 62 63 63 62 59 60 62 62 64 63 61 62 65 65
70 71 71 73 72 71 70 69 68 68 67 68 67 65 63 64 64 62 62 62 62 63 64 64 64 64 63 64 64 63 63 63 60 60 61 62 63 65 64 66 66 65 66
70 70 70 71 72 71 70 68 68 68 67 67 66 64 64 65 65 62 63 62 62 63 63 63 63 63 63 63 63 63 63 64 61 61 62 63 65 64 64 64 64 65 64
69 69 70 70 70 70 69 69 68 68 67 67 67 67 67 67 66 64 63 63 63 64 64 64 63 63 63 63 63 63 64 64 60 61 60 61 65 63 62 63 62 62 65
68 68 69 69 68 67 67 68 68 67 67 67 68 67 67 67 67 66 65 65 64 64 64 64 63 63 64 63 63 64 63 63 59 58 59 61 63 60 61 60 63 63 63
67 68 68 68 67 67 67 67 67 67 67 67 67 66 65 64 66 66 65 65 66 65 65 65 64 64 66 65 65 63 60 56 55 54 56 62 59 59 59 62 61 60 60
66 67 68 68 67 67 66 67 66 65 65 65 65 64 62 62 65 65 64 65 66 66 66 65 65 66 64 61 61 59 48 52 51 52 53 58 54 56 61 60 58 58 57
66 66 67 67 67 67 66 67 66 65 64 63 63 63 62 61 65 64 63 64 64 64 63 65 63 60 54 58 51 42 41 48 48 50 55 58 54 57 58 56 56 55 54
65 66 66 66 66 67 66 67 66 66 64 62 61 63 61 60 63 62 63 62 61 62 60 61 59 51 47 44 38 35 33 39 45 46 52 55 53 60 56 54 52 50 49
62 65 66 66 66 66 66 66 66 65 64 63 60 61 61 59 62 62 61 60 60 60 59 59 53 47 38 32 30 29 31 32 43 48 53 59 59 56 54 50 48 48 47
59 61 66 66 66 66 66 66 65 65 65 63 61 59 59 59 61 59 58 58 58 58 57 53 48 42 33 31 27 27 27 30 42 47 51 54 56 52 49 46 43 42 42
51 60 62 66 65 65 66 66 66 65 65 63 61 58 58 58 57 57 57 57 55 53 51 44 37 34 32 29 27 26 25 25 32 44 47 46 48 50 43 40 38 38 38
44 49 60 63 65 64 66 66 66 66 65 64 62 59 57 57 56 56 56 54 51 48 43 39 35 32 31 29 26 27 27 29 28 42 43 40 39 39 39 36 34 34 36
40 43 57 61 63 64 65 66 66 65 65 64 61 58 57 56 57 56 55 52 49 44 39 36 33 31 28 27 26 24 29 31 29 33 38 36 36 35 31 34 35 33 32
37 40 46 59 62 64 65 65 66 65 65 64 62 58 57 58 57 56 53 49 43 39 36 32 29 29 27 25 23 27 30 33 29 30 29 28 31 29 28 24 23 25 29
36 36 41 48 59 63 64 64 64 64 64 64 63 60 59 58 55 53 49 43 39 37 34 29 29 25 25 26 26 27 31 30 29 30 30 28 28 26 23 21 21 21 22
34 35 37 44 50 60 63 63 64 64 63 63 63 62 60 57 55 54 46 41 37 34 31 30 30 29 27 26 24 29 27 25 28 28 32 29 26 24 21 19 19 19 20
34 36 37 39 46 56 62 62 58 58 57 57 59 60 60 56 54 52 46 42 38 35 32 30 31 30 27 26 25 27 25 22 22 23 26 24 21 22 21 22 20 20 20
30 33 37 40 43 46 58 61 61 60 59 59 59 54 53 53 53 50 46 43 43 40 32 32 32 34 32 25 26 24 25 23 15 11 20 23 22 19 20 21 21 21 20
29 30 33 38 42 46 54 60 60 60 59 52 52 52 50 51 52 49 45 42 43 41 36 35 35 34 30 29 27 26 23 24 21 18 14 20 22 21 21 21 21 21 21
32 32 33 38 41 44 49 56 59 57 51 50 49 50 48 48 50 48 43 43 43 40 39 38 30 29 27 27 26 24 24 22 22 21 20 20 19 20 21 21 21 20 21

GFSSE_sfc_dewp_057.txt.gz
Dewpoint
69 72 75 74 74 73 73 73 74 73 72 71 70 69 68 68 68 68 67 66 65 65 65 68 68 67 67 66 66 65 63 62 62 61 63 63 62 62 63 63 64 62 61
70 72 75 74 74 74 74 74 74 73 72 71 69 69 68 67 67 67 67 67 66 65 65 66 68 68 67 66 66 64 62 62 62 62 61 62 63 60 62 62 62 60 62
71 72 73 74 74 74 74 73 73 72 71 70 69 68 67 66 65 65 66 66 63 61 66 65 68 68 68 67 66 64 60 62 63 63 63 57 57 59 58 62 62 62 61
71 72 72 74 74 73 72 71 71 71 70 69 68 66 66 66 64 63 64 64 63 63 64 65 67 69 68 66 65 60 61 62 64 62 58 58 58 62 59 59 60 62 63
71 71 72 74 73 73 72 71 71 70 70 70 69 67 66 65 64 62 62 63 66 67 67 68 68 67 66 64 61 60 63 64 63 61 57 57 61 62 62 63 62 61 60
70 71 72 73 73 73 72 72 71 71 71 70 69 67 66 64 63 62 62 64 65 67 66 66 65 64 64 63 61 62 64 62 61 59 58 61 62 64 62 63 67 67 65
70 71 71 73 72 72 71 71 71 69 69 70 68 66 65 64 62 61 61 63 65 65 65 65 65 64 64 64 64 63 62 63 60 61 62 62 63 66 66 65 66 66 66
70 70 71 71 72 71 69 70 70 69 68 69 67 66 64 64 62 62 62 62 64 64 64 64 64 64 63 63 63 63 64 63 61 62 62 62 66 64 64 65 64 64 66
70 70 70 70 70 70 70 69 69 69 69 69 68 66 67 66 64 63 62 62 63 64 64 63 63 63 63 63 63 63 64 63 60 60 60 61 66 63 63 62 64 65 64
69 69 69 69 69 68 67 68 68 68 68 68 67 67 67 67 66 64 65 65 64 64 64 64 63 63 63 63 63 63 63 62 58 58 59 61 62 62 61 63 63 63 62
67 68 68 68 67 66 66 67 67 67 67 67 67 66 65 65 66 65 64 65 66 65 64 64 64 64 65 64 64 62 58 58 55 55 57 62 60 60 62 62 60 61 60
66 68 68 67 67 66 66 65 65 65 65 65 65 64 64 64 65 65 63 65 66 66 66 65 65 66 64 61 59 51 53 52 52 52 53 59 55 60 61 59 59 58 57
66 66 67 67 67 66 65 66 65 64 63 63 63 63 62 62 64 64 63 63 63 64 63 65 63 60 57 58 44 42 49 48 49 50 54 59 54 62 58 57 55 54 53
66 66 67 67 66 66 66 66 65 64 63 62 62 62 61 60 63 62 62 61 61 62 60 61 59 53 48 48 37 36 39 45 45 46 50 55 57 59 57 53 52 50 50
65 66 66 67 66 66 65 66 66 65 63 62 61 62 62 60 62 62 61 61 60 60 59 59 56 46 38 33 31 31 31 41 43 50 54 60 60 57 54 51 49 48 46
65 66 66 66 66 66 66 65 65 65 64 63 61 61 62 60 62 62 60 60 59 59 59 58 51 41 33 29 27 28 29 40 45 50 52 54 57 53 50 47 44 43 42
58 63 66 66 66 65 65 66 65 65 65 64 62 59 60 60 61 61 60 58 58 58 56 51 40 34 32 29 26 25 25 31 43 48 48 48 48 52 45 42 40 39 40
44 58 63 66 66 65 65 66 65 65 65 64 63 59 59 59 59 59 58 57 56 54 49 41 36 33 31 29 26 27 28 28 34 44 44 42 39 39 39 38 36 36 36
42 44 59 65 65 65 65 66 66 66 65 65 63 60 58 58 57 57 57 56 52 47 43 37 34 32 30 27 26 26 29 30 32 41 39 37 37 35 31 35 35 33 32
38 41 46 60 64 65 65 66 66 66 66 65 62 61 59 57 56 56 55 53 49 43 39 35 31 29 28 25 24 27 30 32 30 35 36 31 35 31 28 25 23 25 32
36 37 41 56 61 64 64 65 65 64 65 64 64 61 59 58 57 56 54 51 46 42 38 32 29 26 25 26 27 28 30 30 28 30 30 29 29 27 24 21 22 21 22
35 35 37 46 59 61 64 64 64 65 64 64 64 61 59 58 58 56 53 49 44 39 33 30 30 29 26 26 24 28 26 26 29 28 32 29 27 25 21 20 20 20 21
34 35 35 37 46 59 62 63 60 60 60 60 60 62 59 58 58 56 53 48 42 40 37 37 33 30 27 25 26 28 25 23 24 22 26 24 23 22 22 21 21 20 20
31 32 34 37 40 52 60 62 62 60 60 61 62 62 59 57 57 55 53 48 46 48 43 44 41 38 32 27 27 24 24 24 17 12 20 22 21 19 19 21 21 21 21
29 30 31 34 38 44 53 61 62 60 60 58 55 58 53 53 56 53 51 47 45 46 46 44 44 41 33 32 31 27 23 24 21 17 12 18 22 22 21 21 21 21 21
31 30 31 34 36 40 48 58 61 61 55 54 53 55 52 51 52 51 49 49 48 46 43 44 43 39 33 33 29 27 25 24 21 21 18 19 19 19 21 21 21 21 21

GFSSE_sfc_dewp_060.txt.gz
Dewpoint
66 71 75 74 74 74 74 74 74 73 72 71 70 70 69 69 68 67 66 66 66 67 68 68 67 67 67 66 65 63 62 63 62 63 64 63 62 63 63 64 64 62 61
69 73 75 75 74 74 74 74 74 73 73 71 70 69 68 68 68 68 67 68 67 66 65 68 68 68 67 66 65 63 62 63 63 62 61 62 63 61 63 62 62 61 62
69 72 73 74 74 74 74 74 74 73 72 71 69 68 67 67 67 67 68 66 63 63 65 67 68 68 67 67 65 61 63 63 63 63 61 57 58 59 61 63 63 62 60
71 72 73 74 74 74 74 73 73 72 71 70 69 67 66 65 65 65 65 64 62 63 65 66 68 69 68 66 62 62 63 64 63 61 58 58 61 61 59 60 61 62 63
71 72 72 74 74 74 73 73 72 71 70 69 68 67 66 65 64 63 63 63 65 65 67 66 68 68 66 64 60 63 64 64 63 59 57 59 62 62 63 63 63 62 60
70 71 73 74 74 73 72 72 71 71 70 70 68 66 65 65 62 63 64 65 67 69 68 68 67 66 64 63 62 64 64 63 61 59 58 61 62 64 65 66 66 67 66
70 71 72 73 73 73 72 72 72 71 71 70 68 67 66 64 63 62 64 65 65 66 66 66 65 65 64 64 63 64 63 63 60 60 61 61 63 65 66 66 65 66 67
69 71 71 72 72 72 72 72 72 70 71 70 68 67 65 64 62 62 63 65 65 65 65 65 64 64 64 63 63 63 63 63 61 61 61 62 65 64 65 64 64 65 65
69 70 70 70 71 71 69 71 70 70 69 70 69 67 66 65 63 62 62 63 65 65 65 64 63 63 63 63 63 64 64 63 60 60 61 62 65 64 63 65 64 64 62
69 69 68 69 69 69 68 69 69 69 69 69 68 67 67 66 65 64 64 64 64 64 64 64 63 63 64 64 63 63 63 62 58 58 59 61 63 62 63 64 63 62 61
68 68 69 68 67 66 66 67 68 68 68 67 67 66 65 64 64 63 64 65 66 65 64 64 63 64 65 65 63 59 59 57 55 55 57 63 61 61 63 61 61 60 59
66 67 68 68 66 65 66 65 64 65 64 65 65 64 64 64 64 64 63 65 66 66 66 64 65 66 62 60 54 55 54 53 52 52 53 59 58 63 61 60 59 58 56
64 65 66 67 66 65 65 64 63 63 63 63 63 63 63 63 63 63 62 62 62 63 63 64 63 60 58 56 44 50 49 49 49 50 54 60 58 61 59 57 55 54 53
64 65 65 67 66 65 65 64 63 63 62 62 62 62 61 61 62 62 62 61 61 61 60 61 59 52 56 44 39 41 45 46 44 45 48 54 61 59 57 54 52 51 50
64 65 65 66 66 65 64 65 64 63 63 62 62 62 61 60 61 61 61 61 60 60 59 59 56 46 40 35 33 32 37 41 43 50 54 61 61 57 53 52 51 48 47
65 65 65 66 66 65 65 65 65 64 63 62 62 62 61 61 61 62 61 60 59 59 58 58 53 40 33 29 28 30 33 41 47 50 52 55 58 54 51 48 46 45 44
64 66 66 66 66 65 65 65 65 65 64 62 62 61 62 61 60 62 61 59 59 58 58 54 44 34 32 28 25 25 30 39 46 48 49 48 49 53 47 44 43 41 42
53 63 66 66 66 65 65 65 65 65 65 64 62 60 60 61 60 60 60 60 59 57 56 49 38 34 32 30 27 27 27 29 41 45 45 42 40 39 42 41 39 38 37
40 46 61 66 66 65 65 65 65 65 65 64 64 62 59 60 60 60 60 59 57 54 51 43 35 34 31 28 27 27 30 29 37 43 41 37 38 34 33 40 38 35 33
38 40 45 62 66 66 65 65 65 66 65 65 64 63 60 58 58 59 58 57 55 50 45 38 34 30 30 27 24 27 31 31 32 40 38 35 36 31 30 27 23 25 35
37 37 40 53 63 65 65 65 65 64 65 65 64 63 61 59 58 57 57 56 53 49 45 37 32 28 26 26 28 28 30 31 28 31 33 29 31 28 24 21 22 21 22
35 36 37 40 54 63 65 65 65 65 64 65 64 63 61 59 59 57 56 55 52 47 39 34 31 29 26 28 26 28 25 27 29 29 31 28 28 26 21 20 19 20 21
33 34 35 38 43 59 63 64 61 62 61 62 63 63 61 60 59 58 56 55 51 47 43 40 38 33 31 27 26 30 26 25 26 23 27 27 25 23 22 21 20 20 20
30 33 34 36 39 47 61 63 62 62 61 62 63 63 62 59 59 58 56 55 51 48 46 45 43 44 42 36 33 27 25 27 23 16 21 22 21 20 19 21 20 21 22
30 30 31 33 38 41 52 61 62 62 62 58 60 61 61 57 58 58 56 53 48 48 49 46 45 44 45 40 37 36 32 25 21 18 15 20 22 22 22 21 21 20 20
33 33 32 31 33 38 45 55 61 61 58 55 56 60 57 55 56 55 54 51 49 48 47 47 45 43 39 37 36 33 31 27 23 21 17 19 19 19 21 21 21 21 21

GFSSE_sfc_dewp_066.txt.gz
Dewpoint
64 70 75 75 74 74 74 74 74 74 73 72 72 72 72 71 71 71 70 70 69 69 68 67 67 67 66 64 64 64 65 65 65 64 64 64 64 64 64 64 61 57 65
65 69 75 75 75 75 75 75 74 74 73 72 71 70 70 69 68 68 67 67 68 68 68 67 67 66 66 64 63 64 64 62 62 62 62 64 65 63 62 62 62 60 62
64 69 71 75 75 75 75 75 74 74 73 72 71 70 70 69 68 69 68 67 66 67 69 68 67 67 66 63 64 64 63 63 63 63 61 54 56 62 62 63 63 60 61
66 68 69 75 75 75 74 74 74 73 72 71 70 69 68 68 69 68 67 64 65 66 66 69 68 68 64 63 64 63 63 63 63 63 59 57 56 61 61 61 63 63 63
67 68 70 75 75 75 75 74 74 73 72 71 70 69 67 66 67 66 64 63 64 68 68 69 69 67 63 64 64 65 64 63 62 62 61 62 60 63 65 65 62 61 63
66 68 73 75 75 75 75 74 74 73 72 70 69 68 65 65 64 64 63 68 69 69 68 69 68 64 63 65 65 65 64 63 62 61 62 64 65 67 67 67 67 67 68
66 67 71 75 75 75 74 74 72 72 71 70 69 67 65 64 63 64 64 68 69 69 69 68 66 64 63 65 65 64 64 63 59 61 63 64 64 65 65 66 66 65 65
66 67 69 73 74 73 73 73 71 71 71 70 68 67 66 64 64 64 64 68 68 68 67 67 66 65 64 65 64 64 63 63 59 59 61 63 65 63 65 65 64 63 63
67 67 67 70 70 71 71 71 70 70 71 70 70 68 66 66 65 64 65 65 66 67 66 66 65 64 64 64 64 64 64 64 60 59 58 61 65 65 66 65 64 63 61
68 66 67 67 67 67 66 70 70 70 71 70 69 68 66 65 65 64 67 67 66 66 65 64 64 64 64 64 64 64 64 63 59 60 59 61 62 64 64 63 61 60 60
67 66 66 65 65 64 64 66 68 68 69 69 67 66 64 59 60 61 63 66 67 66 64 64 64 65 65 64 63 63 63 59 58 58 58 64 62 63 62 61 59 59 58
65 67 66 65 64 64 63 64 65 63 63 62 65 63 61 58 57 56 61 65 66 66 66 64 66 65 63 57 57 60 58 58 57 56 55 59 64 62 61 60 58 56 55
65 66 66 66 65 64 63 62 62 62 61 61 61 61 60 58 59 57 59 61 61 63 59 62 64 60 59 56 55 55 56 55 54 53 54 57 63 61 59 57 55 54 53
64 65 66 66 67 65 63 63 60 60 60 60 60 61 60 59 60 58 55 58 59 58 58 59 59 59 59 55 53 53 52 52 51 50 50 55 63 59 57 54 53 52 52
63 64 66 66 66 65 64 63 60 59 60 59 60 60 59 59 59 61 60 58 57 58 58 59 59 57 58 54 50 50 49 47 46 45 45 60 63 58 55 54 51 50 50
63 64 65 66 66 66 65 64 62 60 60 59 59 60 60 59 59 61 62 62 58 58 58 58 58 56 55 51 47 44 45 44 43 46 48 56 60 58 54 52 49 47 48
63 64 65 65 65 67 66 65 64 62 60 60 59 59 60 61 62 62 61 62 62 57 57 58 58 55 51 48 45 40 40 41 43 46 48 51 54 56 53 49 47 45 45
52 60 64 65 66 66 67 66 65 64 62 61 60 59 60 60 61 61 61 61 61 61 58 57 57 53 50 45 42 39 38 41 41 43 46 47 47 45 49 48 46 42 41
40 43 53 61 64 66 67 67 67 65 64 63 61 60 60 60 60 61 60 60 61 61 60 58 56 54 51 46 42 39 37 36 40 40 43 44 45 43 41 46 45 40 38
39 40 40 50 60 64 66 67 67 66 65 64 64 62 61 60 60 61 59 59 60 61 61 60 55 53 52 49 38 36 37 36 35 40 41 40 41 41 39 39 37 34 37
39 40 40 41 49 58 65 65 65 64 65 65 66 65 64 62 61 61 60 59 59 60 61 60 56 52 48 47 40 39 37 36 34 37 40 39 39 38 36 36 31 28 30
36 38 41 40 42 48 58 64 64 64 65 65 66 65 65 64 63 62 61 60 59 59 60 60 57 52 50 44 45 45 42 36 33 33 37 37 36 36 33 32 28 27 28
36 36 38 40 41 43 51 57 62 63 66 65 65 65 65 64 65 63 63 63 62 59 59 60 57 53 49 43 44 47 43 43 36 34 34 36 34 35 32 30 28 26 26
35 37 37 38 39 40 45 53 58 59 60 61 63 64 65 64 64 64 64 63 63 62 60 60 57 54 53 45 40 35 38 38 36 33 31 33 33 31 32 30 26 26 26
42 41 39 36 37 39 40 48 56 58 58 60 62 62 63 64 64 63 63 63 62 61 60 59 57 54 54 51 45 40 37 34 30 35 35 29 30 30 30 29 26 24 25
44 43 43 39 36 36 40 43 51 55 57 60 61 61 62 63 63 63 62 62 62 61 60 59 58 55 53 53 48 44 39 37 32 31 29 29 29 27 27 25 25 26 24

GFSSE_sfc_dewp_072.txt.gz
Dewpoint
69 73 75 76 75 75 75 75 75 75 74 73 73 73 72 72 71 71 70 70 70 69 66 67 67 66 66 66 66 65 64 64 64 65 66 66 64 63 64 65 67 65 68
70 72 75 76 76 75 75 75 75 74 74 73 73 72 72 71 71 70 70 70 69 68 68 67 66 65 65 64 64 63 63 62 62 64 66 65 65 63 63 63 65 62 64
69 72 74 75 75 75 75 75 75 74 74 74 72 71 70 69 68 68 67 67 69 68 67 67 67 65 65 64 64 63 63 62 61 62 66 60 62 64 65 65 65 65 65
69 70 72 75 75 75 75 75 74 74 73 72 71 71 70 69 69 69 68 67 67 68 69 68 66 65 64 64 64 63 63 62 62 66 62 59 61 64 63 63 63 64 64
67 67 72 75 75 75 75 74 74 74 73 72 71 70 69 70 69 67 64 64 67 69 69 69 65 65 64 65 64 63 62 62 65 64 65 66 65 67 67 68 68 68 68
65 70 74 75 75 75 74 74 74 73 72 71 70 69 68 67 66 64 65 68 69 70 70 68 65 65 65 65 65 63 62 63 65 64 65 66 66 68 68 67 66 67 67
68 71 73 75 75 75 75 74 73 73 72 71 69 65 64 65 64 67 68 69 70 70 69 66 65 66 66 65 65 63 62 64 61 63 62 62 63 67 66 65 64 63 64
69 70 72 73 74 74 74 73 73 71 71 70 66 65 64 64 65 66 68 70 70 70 68 66 65 66 66 65 65 63 64 63 61 62 62 62 66 66 65 64 63 63 62
68 69 70 72 73 73 73 73 71 71 70 70 69 68 67 67 67 66 69 70 69 68 68 67 66 65 65 65 64 63 64 63 62 62 60 64 67 66 64 63 62 61 61
68 69 68 69 70 70 70 71 70 70 69 69 69 67 66 65 65 67 66 69 69 68 68 67 65 65 65 65 64 65 64 64 60 60 60 64 66 65 63 62 61 61 60
66 67 67 66 67 68 67 68 69 69 68 68 67 66 64 62 62 63 63 67 68 67 66 65 65 66 66 65 65 64 63 60 58 59 61 67 65 64 62 61 60 59 58
65 65 66 66 65 65 64 66 66 68 67 66 65 63 62 59 58 59 64 65 67 67 66 66 66 66 65 61 61 63 60 60 57 59 61 66 64 62 62 60 58 57 56
64 65 65 64 63 62 64 64 64 65 66 66 65 63 62 58 57 60 63 63 64 64 63 65 66 64 61 59 59 58 58 57 56 56 59 65 63 62 61 58 57 55 55
64 65 65 65 61 60 61 61 62 62 61 61 63 63 61 58 57 56 59 60 62 62 61 61 62 61 59 57 56 55 55 54 53 54 57 64 64 61 59 57 56 55 55
64 65 65 66 63 60 60 60 59 59 60 60 60 61 60 58 57 54 56 58 59 60 58 59 59 58 57 56 53 53 53 51 49 50 52 62 63 61 58 56 55 54 54
63 64 65 66 66 64 61 61 60 58 58 59 59 60 59 59 58 58 56 56 57 57 56 58 58 57 57 56 52 51 51 49 47 46 50 58 62 61 58 56 54 53 53
62 63 65 66 66 65 65 64 63 61 59 59 59 58 59 59 58 58 59 59 58 56 56 56 57 57 56 55 52 50 49 47 46 45 54 59 59 59 59 55 53 52 52
61 62 63 65 65 65 65 65 64 63 61 60 59 59 59 58 58 58 59 61 61 61 56 56 56 56 55 54 51 49 46 45 44 45 47 56 54 53 57 57 53 51 51
50 60 62 64 64 65 65 66 67 64 63 62 61 60 59 58 58 60 60 60 61 60 59 56 56 56 55 52 50 48 44 45 44 44 45 46 54 51 49 55 54 53 50
43 44 47 60 64 65 66 66 67 67 66 64 63 61 60 59 59 59 60 60 59 60 60 59 56 57 54 53 49 47 44 44 44 44 43 44 45 46 46 46 46 44 49
39 41 42 43 48 60 65 65 65 66 65 66 65 63 62 61 59 59 60 60 59 59 60 59 58 56 55 53 50 45 44 43 41 41 43 43 44 44 43 42 40 38 41
36 38 40 41 43 45 53 65 65 65 65 65 64 66 66 64 62 60 60 60 60 59 59 60 59 58 55 54 50 45 42 43 41 40 40 41 41 43 41 40 39 36 37
34 36 39 40 41 42 44 52 64 64 63 63 64 65 65 65 65 63 61 61 61 60 60 60 60 59 56 53 49 48 47 46 40 41 38 41 40 41 40 38 37 32 34
41 41 40 39 40 40 43 44 52 62 61 63 64 64 63 64 64 64 64 63 62 61 60 60 60 60 58 54 53 49 49 45 41 36 38 37 39 38 38 37 34 31 29
44 43 42 39 38 38 39 41 44 45 53 60 60 62 62 63 63 63 64 62 63 63 62 62 60 60 60 57 52 51 50 46 43 41 35 36 37 37 38 35 33 30 29
46 45 43 40 38 37 38 40 41 43 46 53 57 56 57 59 63 63 63 63 63 62 62 62 62 60 59 58 54 52 50 49 47 44 43 38 37 36 36 34 31 30 30

GFSSE_sfc_dewp_075.txt.gz
Dewpoint
71 74 76 76 76 76 76 75 75 75 74 73 73 72 72 72 71 71 71 70 70 68 66 67 66 66 66 66 65 64 64 63 64 66 66 65 65 65 67 67 66 66 68
72 74 75 76 76 76 76 75 75 74 74 74 73 72 72 71 71 70 70 69 68 68 67 67 66 65 65 64 63 62 62 63 64 65 66 66 66 65 63 64 64 63 64
72 73 74 75 75 75 75 75 75 74 74 74 72 72 71 70 69 68 69 69 69 68 67 67 66 65 64 63 62 63 62 62 63 64 65 61 63 65 65 66 66 66 65
72 73 74 75 75 75 75 75 75 74 74 73 72 71 70 69 69 69 68 68 69 69 68 67 66 65 64 63 62 63 64 64 64 66 62 61 63 64 65 66 66 66 65
71 72 74 75 75 75 75 74 74 74 73 73 72 71 71 70 68 66 65 67 69 70 69 66 66 65 65 63 63 63 64 65 67 66 66 66 66 67 68 68 68 68 68
70 72 74 75 75 75 74 74 74 73 73 72 71 70 69 68 65 65 67 68 70 70 69 66 66 66 66 65 63 63 64 65 66 64 64 66 66 68 67 66 65 67 68
70 73 74 75 75 75 74 74 73 73 72 70 69 66 66 66 67 66 67 70 71 70 68 67 66 66 66 65 63 63 63 64 62 62 62 62 65 66 64 64 63 64 64
71 72 73 73 74 74 74 73 73 72 70 70 68 65 66 65 66 68 68 70 71 69 67 66 67 66 66 65 63 63 63 64 62 61 62 64 67 65 63 63 62 62 62
71 72 73 73 73 73 73 73 72 71 70 69 68 67 67 68 68 68 69 70 70 69 68 67 66 66 65 65 63 63 64 64 61 61 64 65 67 64 63 63 62 62 62
69 71 71 72 72 72 71 71 70 70 69 69 68 67 66 66 67 68 69 69 70 69 68 68 66 65 65 65 64 65 64 63 60 60 63 66 66 64 63 62 61 61 60
68 68 70 70 70 69 69 68 69 69 68 68 67 65 64 62 64 63 65 68 69 69 68 66 66 66 66 65 65 63 63 60 59 60 63 67 65 63 62 61 60 59 59
67 67 67 68 68 67 67 67 67 66 67 66 65 63 62 61 61 62 63 67 68 67 67 66 66 67 65 62 62 62 60 59 58 60 64 66 64 62 61 59 59 57 58
65 66 66 65 67 66 65 66 66 67 66 65 64 62 62 60 58 62 63 64 64 63 64 65 66 64 62 60 59 59 58 58 57 59 65 66 63 62 61 58 57 57 56
64 65 65 65 64 63 65 64 65 66 66 66 64 62 62 57 58 61 62 62 62 63 62 62 63 62 61 60 58 57 57 56 55 57 63 65 64 62 60 58 57 56 56
64 64 65 65 64 62 64 63 63 64 64 64 64 63 62 57 56 58 59 61 62 62 61 61 61 61 60 58 56 55 54 52 53 54 58 63 64 63 60 58 57 56 56
63 64 65 65 65 62 60 60 59 60 62 60 63 63 61 57 56 55 57 58 60 60 60 59 59 59 58 57 54 52 51 50 48 51 55 62 63 62 59 58 56 56 55
63 64 64 65 66 65 65 63 61 59 59 59 59 60 60 58 58 57 56 56 58 58 57 58 58 57 57 56 54 51 50 47 46 48 52 59 61 61 61 58 56 55 55
62 64 65 65 65 65 65 65 65 62 59 59 58 59 59 59 58 58 59 58 57 57 56 56 56 56 55 55 53 50 48 47 45 45 55 58 58 56 60 60 57 55 54
61 63 65 65 65 65 65 65 66 66 61 60 59 58 58 58 58 58 59 60 60 60 58 56 56 56 55 53 52 50 46 45 44 45 49 57 55 54 53 58 58 56 55
51 61 63 65 65 65 65 65 65 66 67 64 62 59 58 58 58 58 59 60 61 60 60 57 55 56 55 53 50 49 46 44 45 45 44 50 55 52 50 51 52 51 55
35 41 46 56 65 65 65 63 63 64 64 65 65 64 61 59 58 58 59 60 59 60 60 59 56 55 55 53 49 46 44 44 42 44 44 44 47 50 48 48 46 43 47
34 37 39 40 44 60 65 65 64 64 64 64 64 65 66 65 61 59 59 59 60 59 60 59 58 56 56 53 50 44 42 42 43 41 41 42 43 45 45 44 41 38 40
38 38 38 39 40 41 46 64 63 64 62 62 63 64 64 65 64 63 61 60 60 60 59 60 59 58 56 55 50 47 45 44 42 41 40 40 41 43 43 42 40 37 37
42 42 40 39 38 38 39 45 62 62 62 62 62 63 63 63 63 63 63 62 60 60 59 59 60 60 57 55 54 50 50 48 42 40 42 43 43 41 42 40 39 35 35
43 43 42 38 37 37 37 39 42 47 53 60 62 62 63 62 63 63 63 62 62 61 60 59 59 59 59 57 55 52 52 51 46 43 42 43 43 43 43 40 37 33 33
46 45 45 39 40 40 38 37 39 40 42 45 53 58 60 61 61 62 62 63 62 61 62 62 62 60 60 60 57 55 52 51 50 47 43 42 42 40 38 36 34 32 34

GFSSE_sfc_dewp_078.txt.gz
Dewpoint
70 74 76 76 76 76 75 75 75 74 74 73 72 72 71 71 71 71 69 68 68 67 67 67 67 67 66 65 64 64 64 64 65 65 65 66 66 67 67 67 67 66 67
72 74 75 76 76 76 75 75 74 74 74 74 73 72 72 71 71 70 69 68 68 67 66 66 65 64 64 63 62 63 64 64 63 64 66 66 67 64 64 65 65 63 63
73 74 74 76 75 75 75 75 75 74 74 74 72 72 71 71 70 70 70 69 68 67 67 66 65 64 63 63 63 63 63 64 64 64 64 62 64 65 65 66 66 65 65
72 73 74 75 75 75 75 75 75 74 74 74 72 71 70 69 69 68 69 69 69 68 67 66 64 64 63 64 65 65 65 64 63 64 60 62 62 66 66 66 67 66 65
72 73 74 75 75 75 75 75 74 74 74 73 72 72 71 70 68 67 67 69 70 69 67 66 65 64 63 64 65 65 65 68 68 65 66 66 66 68 68 68 68 68 68
72 73 74 75 75 75 74 74 74 74 73 72 72 72 70 68 66 66 66 70 71 69 67 66 66 65 64 64 64 65 66 67 65 64 66 67 66 67 66 65 65 67 68
72 73 74 75 75 74 74 74 73 72 72 71 70 69 68 66 65 66 68 70 70 69 68 66 66 65 65 64 64 64 64 66 62 62 63 65 64 65 64 64 64 63 65
71 73 73 73 74 74 74 73 73 71 70 69 67 66 66 66 67 66 69 70 70 68 67 67 67 65 65 64 63 63 65 64 62 62 64 65 66 64 63 63 62 62 62
71 72 73 73 73 73 73 72 72 71 70 69 68 67 67 68 68 67 69 71 70 69 69 68 67 66 65 64 63 63 64 64 61 63 64 65 66 63 63 62 62 62 61
71 72 72 72 73 72 71 71 71 69 69 68 68 68 67 66 68 68 69 70 70 69 68 68 67 66 65 64 64 63 63 63 61 63 64 65 65 63 63 61 61 60 60
70 71 71 71 71 71 70 69 69 69 68 67 67 65 64 64 65 66 67 68 69 69 68 67 67 67 67 65 64 64 62 59 59 62 64 67 64 63 62 61 60 59 58
67 69 70 70 70 69 68 67 66 66 66 65 64 63 62 62 63 62 66 67 69 68 68 67 67 67 65 62 61 62 59 58 59 61 64 67 64 63 61 59 59 58 58
67 68 68 69 69 67 67 66 66 66 65 65 63 62 61 60 61 61 62 65 65 64 64 65 65 64 61 59 59 59 58 58 59 61 65 66 64 62 61 59 58 57 57
66 66 66 67 68 66 66 66 66 66 65 65 63 62 61 59 58 60 61 62 62 62 62 62 63 62 61 60 58 57 56 57 57 59 63 65 65 63 61 59 58 57 57
64 65 65 65 65 65 65 65 65 65 66 65 64 62 62 58 57 60 61 61 61 61 61 61 61 61 60 59 59 58 56 55 56 57 61 63 65 64 61 59 58 57 57
64 64 65 65 64 64 64 63 64 64 65 65 65 64 62 58 57 59 59 60 61 61 61 60 60 60 59 59 58 56 55 52 54 54 59 62 64 64 61 59 58 58 57
63 64 65 65 65 62 62 62 62 62 63 62 65 64 62 58 56 57 58 58 60 60 61 60 59 59 59 58 56 53 52 50 49 51 54 60 62 62 62 60 58 57 57
63 63 64 65 65 64 64 64 63 60 61 60 61 63 61 59 57 56 56 57 58 58 59 58 58 57 57 57 56 54 51 49 46 47 51 58 59 59 61 62 59 57 57
62 63 64 64 65 65 65 65 65 65 60 59 59 59 60 59 58 57 58 57 57 57 57 56 56 56 56 55 55 53 49 48 47 45 50 55 58 57 56 59 60 59 58
61 63 64 65 65 64 65 65 65 65 66 62 60 58 58 59 58 58 58 59 59 58 58 56 55 56 56 55 53 51 49 46 46 45 45 55 56 56 54 54 56 55 58
46 60 63 64 65 64 64 63 63 63 64 64 63 61 59 58 58 58 58 59 60 60 58 59 56 55 55 54 50 48 46 45 43 45 45 46 54 55 53 52 52 50 52
37 40 45 49 60 64 64 64 64 63 63 64 64 64 63 61 59 58 58 59 59 59 59 59 58 56 55 53 51 46 47 46 44 43 43 44 44 51 52 50 49 46 46
37 37 38 39 40 46 60 64 63 63 62 62 62 63 64 64 63 61 59 59 60 60 59 59 59 57 57 55 52 51 45 45 44 43 42 41 42 44 47 47 46 43 42
41 41 39 38 38 38 40 55 62 63 62 61 61 62 62 63 63 63 63 61 60 60 59 59 59 59 56 55 54 55 50 47 45 44 42 47 46 44 44 44 43 41 39
43 42 42 37 37 37 37 40 53 57 59 59 60 61 61 61 62 62 62 62 61 60 59 59 60 59 59 59 55 52 51 51 47 46 47 44 46 46 46 46 47 46 45
45 45 42 44 45 44 40 38 39 40 41 43 47 55 60 61 61 61 61 61 61 61 61 60 59 60 60 60 59 57 55 53 52 48 45 44 44 42 40 40 41 42 43

GFSSE_sfc_dewp_081.txt.gz
Dewpoint
69 74 76 75 75 74 74 74 74 74 73 72 71 71 71 71 70 69 68 67 68 67 67 67 67 67 66 64 64 64 64 65 65 66 66 68 67 68 68 67 67 64 65
71 74 75 76 76 75 75 75 75 74 74 73 72 71 71 71 70 69 68 67 67 66 66 65 65 64 63 63 65 64 63 63 64 65 66 66 66 65 66 65 65 62 63
72 73 74 75 75 75 75 75 74 74 74 73 72 72 71 71 71 69 69 68 67 67 66 64 63 63 63 64 64 64 64 64 64 65 65 63 64 65 65 66 66 65 64
72 73 74 75 75 75 75 75 74 74 73 73 72 71 70 70 70 70 70 68 68 67 66 64 63 63 64 65 65 65 64 63 62 64 60 62 63 66 67 67 67 66 65
72 73 74 75 75 75 75 75 74 74 74 73 72 71 70 70 68 68 70 70 68 67 66 64 63 64 65 66 65 66 67 67 67 64 65 66 67 67 67 69 68 68 68
72 72 74 75 75 75 75 74 74 74 73 73 72 72 70 68 67 67 69 71 70 69 66 65 64 64 65 65 65 67 68 67 66 65 66 66 65 66 65 65 66 67 68
72 73 73 75 75 75 74 74 74 74 73 72 71 70 68 67 66 66 69 70 69 68 66 66 65 65 65 65 64 66 67 65 62 63 64 64 63 64 64 64 63 63 64
70 73 73 73 74 74 74 74 73 72 70 69 68 68 67 66 65 67 68 70 69 68 67 66 65 64 64 64 64 65 66 64 62 63 64 64 66 64 63 63 62 62 62
71 72 73 73 73 73 73 72 72 70 69 69 68 67 67 68 68 68 69 70 69 69 68 67 66 64 64 63 63 64 65 64 62 64 64 64 66 63 62 62 62 61 61
71 71 72 72 72 72 71 71 71 69 69 68 68 67 67 67 68 68 69 70 70 69 69 68 67 65 64 64 64 64 64 64 61 63 64 64 65 63 62 61 61 60 59
70 69 71 71 71 71 70 69 69 68 68 67 67 66 65 64 65 65 67 69 69 69 68 67 66 67 67 66 65 63 61 60 60 63 64 67 64 63 61 60 59 58 58
68 68 69 71 70 70 69 68 67 66 65 65 64 63 62 63 63 65 66 68 69 68 68 67 66 67 65 61 60 62 59 58 59 61 63 67 64 63 61 60 58 58 57
68 67 68 70 70 69 68 67 66 65 65 64 63 62 61 61 62 62 64 65 65 65 65 66 65 63 60 59 59 58 58 57 59 61 64 67 64 63 61 59 57 57 57
66 67 69 69 68 67 66 66 65 65 64 63 63 62 61 59 60 60 61 62 63 63 62 62 62 62 60 59 57 56 56 57 58 60 62 65 66 63 62 59 57 57 57
65 66 67 67 67 66 65 65 65 65 65 64 63 62 61 59 58 60 60 61 61 61 61 60 61 61 59 59 59 58 57 56 55 58 60 63 65 65 62 60 59 57 57
65 65 66 65 66 65 65 65 65 65 65 65 64 62 62 59 57 59 60 60 60 60 60 60 60 60 59 58 58 58 57 56 54 57 59 61 64 65 63 61 60 58 57
64 65 65 65 64 65 64 64 64 64 65 65 65 64 62 59 58 58 59 59 60 60 60 60 59 58 58 58 57 57 55 54 51 54 56 59 61 63 64 61 60 59 58
63 64 65 65 65 63 64 63 63 63 63 64 64 64 63 60 57 57 58 58 59 59 60 59 58 58 57 57 57 57 54 51 49 50 52 57 59 60 62 63 62 59 58
63 63 63 64 65 63 63 63 63 62 61 61 61 63 63 61 58 56 56 57 57 58 58 58 57 57 56 56 56 56 54 51 49 46 48 52 57 59 58 60 62 61 60
62 63 63 64 65 64 64 64 64 65 62 60 60 60 61 61 59 57 57 57 56 57 57 56 56 56 56 56 55 54 53 50 48 47 46 49 54 57 57 56 57 58 60
57 61 63 63 64 64 63 62 62 62 63 63 61 60 59 60 60 58 58 58 59 57 56 57 55 55 55 54 52 51 49 48 47 45 46 46 53 55 55 55 54 55 54
38 53 60 62 63 64 63 63 63 63 63 64 64 62 61 59 59 58 58 58 58 59 59 58 57 56 55 54 53 50 50 51 47 46 44 45 45 53 54 54 53 53 51
36 38 43 47 51 62 63 63 62 62 62 62 62 63 64 63 61 60 59 59 59 59 59 59 58 57 57 54 52 55 48 48 46 46 43 43 44 44 48 51 51 50 46
40 40 39 38 38 39 48 61 62 63 61 61 61 62 62 63 63 63 61 59 59 59 59 58 59 59 58 58 54 54 53 50 48 47 44 45 44 43 44 45 47 46 46
42 42 39 37 38 37 37 42 57 60 60 60 60 60 61 61 62 63 63 61 61 59 58 58 58 59 59 59 57 55 54 51 48 48 50 49 46 45 46 46 47 47 47
44 42 44 45 45 44 40 38 41 52 53 52 50 54 57 59 60 61 61 61 61 60 60 59 58 58 59 59 58 57 56 53 52 50 48 49 46 44 41 42 44 44 46

GFSSE_sfc_dewp_084.txt.gz
Dewpoint
68 73 75 75 74 74 74 74 74 73 73 72 72 71 71 70 69 68 68 68 68 67 68 68 67 66 65 65 65 65 66 66 66 67 67 68 68 68 67 67 66 63 63
71 73 75 75 75 75 75 75 74 74 73 73 71 71 71 70 69 68 67 67 67 66 66 65 65 64 65 65 64 63 63 64 65 66 66 66 67 67 66 65 64 63 64
71 73 74 75 75 75 75 75 74 74 74 73 71 71 71 70 69 69 68 67 67 66 65 64 63 64 65 65 66 65 65 64 65 65 65 63 63 65 66 66 66 64 65
72 73 74 75 75 75 75 74 74 74 73 73 72 71 71 71 69 69 68 67 67 66 64 63 64 65 65 65 65 64 63 64 64 64 62 63 63 67 67 67 67 66 65
72 73 74 75 75 75 75 74 74 74 73 73 72 71 70 70 70 70 69 68 67 66 64 63 65 66 66 66 66 66 66 65 65 65 66 67 67 67 69 69 68 69 67
72 72 74 75 75 75 75 74 74 74 73 72 72 71 70 69 68 69 70 70 69 67 65 64 65 66 66 66 68 68 68 68 67 65 65 66 64 65 64 64 64 68 68
71 72 73 74 75 75 74 74 74 74 73 72 71 70 69 67 67 68 70 70 68 67 66 64 65 65 65 65 66 68 67 66 64 64 63 63 63 64 64 64 63 62 63
71 72 73 73 74 74 74 74 74 73 72 72 70 69 67 67 66 67 70 69 68 67 67 65 65 65 65 65 66 67 65 64 63 63 63 63 66 64 63 63 63 63 62
70 71 72 73 73 73 73 73 72 71 70 70 69 69 68 68 67 67 69 70 68 68 67 66 65 65 65 64 64 65 65 64 62 63 63 63 66 63 63 62 62 61 61
70 70 71 72 72 71 71 71 70 69 69 69 68 67 67 67 67 69 69 70 70 69 69 68 66 65 65 64 64 64 64 64 62 63 63 64 64 63 62 61 60 60 59
68 68 70 71 70 70 70 69 69 68 67 67 67 66 65 65 65 66 67 69 69 69 68 67 67 66 65 65 64 63 62 60 60 62 63 66 63 63 61 60 59 58 58
66 68 69 70 70 70 69 68 66 66 65 65 64 63 62 63 63 65 65 68 69 68 68 67 66 66 63 60 60 61 59 58 58 61 63 66 63 62 61 59 58 58 57
65 66 68 69 69 69 68 67 66 65 64 64 63 62 61 62 62 63 64 65 65 65 64 65 64 63 60 58 58 57 58 56 58 60 63 66 64 62 61 59 57 57 57
67 65 68 69 69 68 67 67 65 64 63 63 62 62 60 60 60 60 62 63 63 63 62 62 62 61 60 58 56 55 56 56 58 59 61 65 66 63 62 60 58 57 57
66 66 67 69 68 66 65 65 65 64 64 63 62 62 60 59 59 59 60 61 61 61 61 60 60 60 59 58 57 57 57 56 56 56 59 62 65 66 63 61 59 57 56
65 66 67 67 67 66 65 65 65 65 64 63 62 62 61 59 57 59 59 59 60 60 60 59 59 59 59 57 57 57 57 57 56 55 57 60 64 65 64 62 61 59 58
65 65 66 66 66 65 65 64 64 65 65 64 63 62 62 60 57 58 59 59 60 60 60 59 58 58 58 58 56 57 57 56 54 53 55 58 60 63 65 63 61 60 59
65 65 65 66 65 65 65 64 64 64 64 64 64 64 62 61 59 58 58 59 59 59 59 59 58 57 57 56 56 57 57 55 52 50 53 55 58 60 62 65 64 61 60
64 64 64 65 64 64 65 64 63 63 63 64 63 64 63 62 60 58 58 58 58 58 58 58 57 57 56 56 56 56 56 55 53 49 48 51 54 58 59 61 62 62 62
63 63 64 64 65 63 63 63 63 63 62 62 62 62 64 63 61 58 57 57 57 57 56 56 56 56 56 56 55 55 55 54 52 50 48 47 50 55 57 57 57 59 61
60 62 63 63 64 64 63 62 62 63 63 61 60 61 61 62 61 59 58 57 56 56 56 56 55 55 54 54 53 53 52 51 51 49 48 47 47 52 54 56 55 55 56
53 58 60 62 63 64 64 63 63 62 63 63 63 61 61 60 60 60 59 58 58 57 57 56 56 54 54 54 53 51 52 52 49 48 47 46 45 49 53 54 54 54 54
38 44 55 60 62 63 63 63 62 62 61 61 62 62 62 61 60 59 59 59 58 59 58 58 57 56 55 54 53 56 51 50 49 49 44 44 44 45 47 51 53 53 52
37 38 39 41 43 48 61 62 61 61 61 61 61 62 62 62 62 61 60 59 59 59 58 58 58 58 58 58 55 55 54 52 52 50 46 44 45 43 44 45 48 49 48
41 40 38 38 38 37 38 47 59 60 61 60 60 60 60 61 62 62 62 61 59 58 58 58 57 57 58 57 55 54 52 52 50 50 51 52 47 45 44 44 47 48 48
42 42 44 44 45 44 40 39 40 50 56 56 56 56 58 59 60 60 61 61 61 60 59 58 58 57 57 57 58 57 55 54 52 50 49 50 50 46 42 41 42 42 45

GFSSE_sfc_dewp_087.txt.gz
Dewpoint
69 72 75 75 74 75 74 74 74 74 73 72 71 71 70 69 69 68 68 68 69 69 69 69 68 67 67 67 66 66 66 66 67 68 68 69 69 68 67 66 64 61 64
70 72 74 75 75 75 75 74 74 74 73 73 71 71 70 69 68 68 68 67 67 67 66 66 66 66 65 64 64 64 65 65 66 65 65 67 68 67 65 65 65 64 64
70 72 73 74 75 75 75 75 74 74 73 73 72 70 70 69 69 68 67 67 66 65 65 65 66 66 66 66 65 64 64 65 66 66 66 63 63 67 67 66 65 65 64
71 72 72 74 75 75 75 74 74 74 73 73 72 71 71 69 69 68 68 67 66 64 64 65 65 65 65 65 65 65 65 65 65 65 64 64 66 68 68 68 68 66 66
71 72 73 74 74 75 74 74 74 74 74 73 73 72 71 70 70 69 68 68 66 64 65 66 67 67 67 67 67 66 66 66 67 67 67 67 66 66 67 66 68 67 67
71 72 74 74 75 75 74 74 74 74 73 72 72 71 70 69 70 70 69 68 68 66 65 66 67 67 67 68 68 68 68 68 67 65 64 65 64 64 64 64 65 68 68
71 72 73 75 75 75 74 74 74 74 73 71 71 70 69 68 69 71 70 69 68 66 65 66 66 66 66 68 68 68 68 66 65 64 64 64 64 64 64 64 63 63 64
70 72 72 73 74 74 74 74 74 73 73 72 72 69 68 67 68 70 70 69 68 66 65 66 66 66 66 67 67 66 66 65 64 64 64 63 65 64 63 63 63 62 62
71 71 72 72 72 73 73 73 73 72 72 71 70 69 68 68 68 69 70 70 68 68 67 66 65 65 65 65 67 65 65 65 64 63 62 62 66 63 63 62 61 62 62
71 70 71 72 71 71 72 71 71 70 70 69 69 68 67 67 67 68 70 70 70 69 68 67 65 65 65 64 64 64 65 64 63 64 63 62 64 63 62 61 60 60 60
68 69 70 71 71 71 71 69 69 68 68 67 67 66 65 66 66 66 67 69 69 70 68 68 67 66 65 65 64 63 63 62 63 63 63 65 63 62 61 60 59 59 59
67 67 69 70 70 70 69 68 66 65 64 63 64 64 64 66 65 66 65 68 69 69 68 67 67 66 62 61 61 61 61 61 61 62 63 65 63 62 61 60 58 58 58
66 67 68 69 70 69 69 67 65 64 64 64 63 63 63 64 65 65 66 68 68 65 66 66 66 64 62 59 59 59 59 59 59 60 63 65 65 63 61 59 58 58 57
65 67 68 68 70 69 68 67 65 64 64 63 63 62 62 63 64 65 66 67 67 66 65 65 65 64 63 60 57 56 57 58 58 60 62 64 66 64 62 60 58 57 57
65 65 67 69 70 69 68 67 65 64 63 63 63 62 60 62 62 63 64 65 65 65 64 64 64 63 63 61 59 57 57 56 56 57 59 61 64 66 63 62 60 58 57
66 65 66 68 68 68 67 66 65 64 64 63 63 63 61 59 61 62 62 63 64 64 64 63 62 62 62 61 59 57 58 59 58 58 57 58 62 65 65 63 62 60 59
65 66 66 67 68 68 67 66 66 65 64 64 63 63 62 61 59 59 61 61 61 62 63 63 62 61 61 60 59 57 57 58 58 57 56 57 59 62 65 64 63 61 60
65 66 67 67 68 68 67 66 66 65 65 64 64 63 63 62 61 59 58 59 60 61 61 61 61 60 60 59 58 58 58 58 58 56 54 54 57 59 62 65 65 62 61
65 65 66 67 67 67 67 66 66 65 65 65 65 64 64 63 62 61 59 59 59 60 60 60 60 60 59 58 58 58 58 58 58 56 55 53 54 57 59 61 63 64 64
64 65 66 66 66 66 66 66 65 65 65 65 65 65 65 64 63 62 61 60 59 59 59 59 59 59 58 58 57 56 57 57 57 56 55 53 52 53 55 58 59 60 61
62 63 65 65 65 64 64 64 64 64 65 64 63 64 64 64 64 62 61 60 59 59 58 58 58 57 57 57 56 57 56 56 56 56 55 53 52 51 52 53 55 57 58
57 61 63 64 65 65 65 64 64 64 65 66 65 63 63 63 64 63 62 61 60 58 58 57 57 57 57 57 56 55 54 55 54 53 53 52 52 50 50 51 53 54 57
39 52 60 62 63 65 65 64 63 63 63 64 64 64 63 62 62 62 62 61 61 60 61 59 59 58 58 58 57 58 53 52 52 53 49 48 47 48 48 49 51 53 54
38 41 45 56 62 63 64 64 63 64 63 63 64 64 64 63 62 61 61 61 61 61 60 61 61 60 59 58 57 56 57 55 54 53 52 49 47 46 47 46 46 48 51
42 42 41 41 42 43 55 62 63 63 63 63 63 63 63 64 64 64 62 61 60 61 61 60 60 60 60 60 59 56 56 55 54 52 52 54 51 47 45 45 47 49 48
43 41 44 44 44 41 41 42 51 58 60 60 61 60 61 61 62 63 64 64 63 61 61 60 60 60 60 60 60 59 57 56 53 53 51 52 53 50 45 44 44 45 46

GFSSE_sfc_dewp_090.txt.gz
Dewpoint
67 69 75 75 74 74 74 74 74 74 73 72 71 70 69 69 68 69 69 70 70 70 70 69 68 68 67 67 67 67 67 68 67 68 69 69 68 67 65 65 66 59 66
68 69 74 75 75 75 75 74 74 73 73 72 71 70 69 68 68 68 68 68 67 67 67 67 66 65 64 64 65 65 65 66 65 66 67 67 68 67 66 66 66 62 64
67 69 70 74 75 75 74 74 74 74 73 73 71 70 69 68 68 68 67 67 66 66 66 67 66 66 65 65 64 64 65 66 66 66 66 64 65 68 68 67 66 65 65
67 69 68 74 74 74 74 74 74 74 73 73 72 70 70 68 68 68 67 65 65 65 66 66 66 66 66 66 66 65 66 66 67 66 65 64 64 68 68 69 67 67 66
67 68 69 74 74 74 74 74 74 74 73 73 73 72 71 69 68 68 67 65 65 66 66 67 67 67 67 67 67 66 67 68 68 66 64 64 62 64 67 68 68 68 69
66 68 73 73 74 74 74 74 74 74 73 72 72 72 71 71 69 69 67 66 67 68 67 67 67 68 69 68 68 68 68 68 67 63 62 63 61 64 65 65 65 66 68
65 68 71 73 75 74 74 74 74 74 72 71 70 70 69 70 70 69 68 67 65 66 67 67 67 67 68 68 68 68 68 67 62 61 61 61 62 64 64 64 64 63 64
66 68 70 73 74 74 74 74 74 73 73 72 71 69 68 68 70 69 68 68 66 65 67 67 66 66 68 68 67 67 66 66 60 60 60 61 65 64 63 63 63 63 63
67 68 69 70 72 73 73 73 73 73 72 72 70 70 68 68 69 70 69 68 67 65 66 66 66 66 66 67 66 65 65 65 60 60 59 60 65 63 63 62 61 62 61
66 66 67 69 70 70 70 72 72 71 70 70 70 69 67 67 68 70 69 69 69 68 67 66 66 66 65 65 65 65 65 65 60 61 60 62 64 63 62 61 60 60 60
66 66 66 67 68 68 68 69 69 69 69 68 67 66 65 59 61 65 68 68 69 69 68 66 66 66 65 65 64 65 64 60 59 60 60 65 63 63 61 60 59 59 59
65 66 67 67 68 68 67 68 66 65 64 63 62 62 58 60 60 60 66 68 69 69 69 68 66 65 62 58 59 61 59 59 59 61 61 65 63 63 61 59 58 58 58
66 67 68 68 67 67 67 66 65 64 63 62 59 57 58 61 61 60 63 68 67 65 65 65 64 62 60 55 57 57 58 58 58 59 61 64 66 63 61 60 58 58 57
66 66 68 68 67 66 66 66 64 63 63 62 60 56 57 59 61 59 60 63 64 64 64 64 62 62 62 59 53 52 55 56 57 58 60 64 65 65 63 61 59 58 58
65 66 67 68 68 67 66 65 64 63 63 62 62 60 56 57 59 61 62 62 63 63 62 62 61 61 61 60 57 52 52 53 55 56 57 62 63 66 65 63 61 59 58
65 65 67 67 67 67 66 66 64 63 63 63 62 62 60 57 57 60 61 62 62 62 61 61 59 58 59 59 58 54 53 55 57 57 57 57 62 64 66 64 63 61 60
64 66 65 67 68 67 66 66 65 64 63 63 63 63 62 61 60 60 58 59 60 59 59 60 60 59 57 57 56 55 52 54 57 57 58 57 58 62 64 65 64 63 62
64 65 66 67 68 68 67 66 66 65 64 64 63 63 63 62 62 61 60 57 57 59 59 59 59 58 57 57 56 57 57 56 57 57 57 57 57 57 62 65 65 64 63
63 64 66 67 67 68 68 68 66 66 65 64 64 64 64 63 62 62 61 60 58 59 59 59 59 58 58 58 58 57 58 58 58 57 57 57 57 57 57 62 63 64 64
63 64 64 66 67 68 69 68 69 66 65 65 65 64 64 63 63 63 62 62 61 60 60 60 59 59 58 57 56 56 57 58 58 58 58 57 57 57 56 57 57 58 62
63 63 64 64 66 67 67 66 66 67 67 66 65 66 65 65 64 64 63 62 62 61 60 60 59 59 58 58 57 57 58 58 58 58 58 57 56 56 55 54 55 55 56
61 63 64 64 64 66 66 66 66 67 67 68 68 66 65 65 65 64 64 63 62 62 61 60 59 58 58 58 57 57 56 55 56 56 56 55 54 54 53 53 53 53 54
46 58 62 63 64 66 66 65 65 65 65 66 66 66 66 65 65 65 64 63 64 63 62 62 61 60 59 60 59 58 55 54 55 55 54 52 51 51 50 50 50 52 52
40 42 49 61 63 65 66 65 64 64 64 65 65 66 66 64 63 63 63 63 63 63 62 64 63 62 61 59 60 58 59 58 55 54 55 54 50 49 49 49 49 49 50
43 43 45 49 59 63 65 65 65 65 65 65 65 64 65 65 65 64 63 63 62 62 62 62 62 61 61 61 61 60 59 57 56 55 54 55 54 49 47 47 48 49 50
44 44 45 45 46 48 57 62 64 65 64 63 64 63 64 64 64 65 65 65 64 63 62 62 62 62 61 61 61 61 59 58 57 55 54 54 55 53 48 47 47 47 47

GFSSE_sfc_dewp_093.txt.gz
Dewpoint
66 70 75 74 74 74 74 74 74 73 72 71 70 69 69 69 70 70 71 71 71 71 70 69 68 67 67 67 66 68 68 68 69 69 69 68 67 66 67 67 66 63 68
66 68 74 74 74 75 74 74 74 73 73 71 70 69 68 68 69 69 69 69 69 68 68 67 66 65 65 65 65 66 65 65 66 67 68 68 69 69 67 67 67 62 65
65 67 71 74 74 75 74 74 74 73 73 72 70 69 68 68 68 68 67 67 67 67 67 66 65 65 64 64 64 65 65 66 66 67 68 65 66 70 68 67 68 67 67
65 66 69 74 74 74 74 74 73 73 72 72 71 70 68 68 68 67 66 66 67 67 66 66 67 67 67 66 66 67 68 68 67 68 64 64 62 68 69 68 69 69 68
65 65 69 74 74 74 74 74 73 73 73 72 72 72 70 68 68 66 65 66 67 67 67 67 67 67 67 67 68 69 69 68 69 63 62 62 62 65 67 67 67 69 69
65 64 71 73 74 74 74 74 73 73 72 72 72 72 71 69 69 67 65 67 68 69 68 68 69 69 69 68 69 69 68 68 68 60 60 62 62 64 65 66 65 66 67
65 69 69 73 74 74 74 74 73 73 73 72 71 71 71 70 69 67 66 67 68 68 67 67 68 69 69 69 69 68 67 67 59 58 59 60 62 64 63 64 64 65 65
65 70 68 72 73 74 74 74 73 73 72 72 71 69 69 71 69 68 66 67 67 67 67 67 67 68 68 68 68 67 66 66 58 59 61 62 65 63 63 63 63 63 63
66 68 68 69 71 72 73 73 73 72 72 71 71 70 69 70 70 68 69 68 66 67 67 67 66 67 68 66 65 65 65 65 59 59 58 61 65 63 62 61 61 61 61
67 67 66 67 68 69 70 72 72 71 70 70 70 69 67 67 70 70 69 69 68 67 67 66 66 65 66 66 65 64 65 65 59 59 61 63 64 63 62 61 60 60 60
65 67 66 66 67 68 67 69 71 70 69 69 67 66 65 60 65 68 67 68 69 68 67 66 66 65 65 65 64 65 64 59 58 59 61 66 64 62 61 60 60 59 59
64 65 66 67 67 67 67 67 68 67 65 64 63 63 59 56 56 65 66 68 69 69 68 67 66 65 63 58 60 62 60 57 57 59 62 66 63 63 61 59 59 58 58
65 67 65 67 66 66 67 66 67 64 63 62 60 59 56 57 59 63 67 68 67 66 65 65 64 61 57 53 55 55 56 56 56 57 62 65 65 63 61 60 58 58 57
65 66 67 67 67 66 66 65 66 63 61 60 57 54 56 57 58 57 61 66 66 65 65 64 61 60 60 57 52 50 52 54 55 56 62 65 65 65 64 61 59 58 58
66 65 66 66 67 65 64 64 65 62 61 61 59 54 53 56 57 56 58 61 62 62 63 62 60 59 59 58 56 50 50 51 53 55 56 63 64 65 66 64 62 60 59
66 66 65 65 65 64 65 64 64 64 62 62 61 59 55 55 56 59 60 60 60 60 60 59 58 57 57 58 57 54 51 52 54 56 57 59 62 63 65 65 64 63 61
64 66 67 67 67 65 65 65 63 63 62 62 61 61 60 58 58 58 58 59 59 58 57 58 58 57 55 54 55 54 52 51 55 56 58 58 59 62 64 66 65 64 63
62 64 65 66 66 67 65 65 67 64 63 63 62 62 62 61 61 61 60 57 57 58 58 58 58 57 56 56 55 56 56 54 54 55 57 58 59 57 62 65 66 65 64
61 62 64 66 66 66 67 67 68 66 64 62 62 62 63 62 61 61 61 59 56 58 58 59 58 57 58 58 58 58 58 59 59 57 57 58 59 59 59 63 64 65 65
61 61 63 66 66 66 68 69 69 68 66 64 64 64 63 62 62 62 61 61 60 59 59 60 59 59 58 58 56 56 58 59 60 59 58 58 58 59 59 59 61 60 63
61 61 62 64 66 67 68 68 67 66 67 67 67 66 65 63 63 63 62 62 62 61 60 60 60 59 60 60 59 59 59 59 59 59 60 58 58 58 57 57 57 57 59
60 62 62 61 63 66 67 67 67 67 68 68 68 66 66 66 66 64 64 63 62 62 61 61 61 60 60 61 59 59 57 58 59 58 59 57 57 57 56 55 54 55 56
60 61 62 61 61 64 66 67 66 67 67 67 67 67 67 67 67 66 65 64 64 64 63 63 62 61 60 61 60 59 57 55 57 57 56 56 54 54 52 51 51 52 53
47 57 61 62 63 65 65 65 65 64 63 65 66 67 66 67 66 66 66 65 64 65 64 64 63 62 62 60 62 59 60 59 57 55 57 56 53 51 51 50 51 51 51
46 47 50 59 62 64 65 65 65 64 65 65 66 65 65 66 66 65 65 65 64 64 64 63 64 63 62 61 61 62 60 60 58 57 55 56 56 52 50 50 50 50 51
48 48 49 49 55 61 64 64 64 63 63 64 64 64 65 65 66 66 66 65 64 63 63 63 63 63 62 62 62 62 60 58 57 57 55 55 55 54 50 49 48 48 48

GFSSE_sfc_dewp_096.txt.gz
Dewpoint
69 73 75 75 75 75 75 74 74 72 70 70 69 69 70 71 72 72 72 71 72 71 69 68 68 67 67 67 68 69 69 68 67 67 69 69 69 67 66 67 67 65 68
70 72 75 75 75 75 74 74 73 73 72 71 69 68 69 69 70 70 70 70 69 68 67 66 66 65 65 66 65 65 67 67 67 68 69 69 70 68 68 68 69 65 67
69 71 73 74 74 74 74 74 73 73 72 71 70 68 68 68 68 68 68 68 68 67 66 66 65 65 65 65 65 66 68 68 68 69 68 64 68 69 69 69 69 68 67
68 70 71 74 75 75 74 73 73 73 72 72 70 70 68 67 67 67 67 67 67 67 67 67 67 66 67 68 68 68 68 68 68 67 61 62 64 69 69 69 69 69 67
67 68 71 74 74 74 73 73 73 73 72 72 71 70 70 67 66 66 67 67 67 67 67 67 68 68 68 69 69 69 69 69 68 62 61 62 62 65 67 67 68 68 69
65 69 72 73 73 73 73 73 73 73 73 73 72 71 71 68 65 66 67 68 68 68 68 69 69 69 69 69 69 68 67 68 65 59 61 63 61 64 65 66 66 66 66
65 70 72 74 74 74 73 73 73 73 73 73 72 71 70 68 66 67 67 69 69 68 68 69 69 69 69 69 68 67 67 67 59 59 61 62 60 63 63 63 63 65 65
68 68 70 72 73 73 73 73 73 73 73 72 72 71 71 68 67 66 67 68 68 67 68 68 68 68 68 68 67 66 66 66 59 60 62 63 65 62 62 62 62 62 62
68 67 69 71 72 73 73 73 73 72 72 71 71 71 71 70 69 67 68 68 67 67 67 67 68 68 67 66 65 64 64 65 59 60 61 62 65 62 62 61 61 61 61
68 67 68 69 70 71 71 72 71 70 70 70 70 69 69 69 69 69 68 68 69 68 68 68 67 68 67 66 65 64 63 64 60 61 63 64 64 62 62 61 61 60 61
67 66 67 68 69 70 70 70 70 70 69 68 67 66 65 68 68 67 67 67 68 68 68 67 66 66 66 65 65 65 64 61 59 61 63 66 64 63 61 61 60 60 60
67 66 66 65 68 69 68 68 69 68 66 65 64 64 63 61 67 66 66 67 68 68 67 67 66 66 63 60 60 62 61 59 58 61 64 66 64 63 62 60 60 60 59
65 66 67 67 67 67 67 67 67 66 65 64 63 62 61 59 65 67 67 67 67 66 66 66 64 61 58 56 59 58 57 56 57 59 64 67 65 64 62 60 60 59 58
65 66 66 68 67 67 67 66 66 65 63 62 60 58 58 60 59 65 66 67 66 65 65 64 63 62 60 57 54 51 53 55 55 59 63 65 66 65 64 62 60 59 58
66 66 67 68 68 67 67 66 65 64 62 60 57 53 57 58 58 57 64 66 65 64 64 64 62 60 60 58 56 52 49 50 53 55 61 63 65 66 65 64 62 60 60
66 65 67 67 67 66 66 66 64 64 61 61 60 57 54 57 58 58 59 62 62 63 63 61 59 58 58 58 57 53 51 51 53 55 58 61 63 64 65 65 65 63 61
65 67 66 65 66 66 67 67 65 63 62 62 62 60 57 56 56 59 60 60 60 59 58 58 58 57 56 55 54 54 52 50 55 56 57 58 60 62 64 65 65 65 64
65 65 67 68 67 67 66 67 67 64 64 63 62 62 61 60 60 59 59 58 59 58 58 58 58 57 56 56 55 55 55 52 52 55 56 57 58 58 62 65 66 66 65
64 65 66 67 66 67 67 68 67 66 65 64 63 62 62 61 61 61 61 59 56 58 58 59 58 58 57 57 57 57 58 58 57 57 57 57 57 58 59 62 63 64 65
62 64 65 66 66 66 67 67 67 67 66 65 64 63 63 62 61 62 62 61 58 59 59 59 59 59 58 58 57 56 57 58 59 59 58 58 58 58 58 59 61 61 63
61 62 64 65 66 67 67 66 65 65 66 66 65 64 63 63 63 62 62 62 61 59 59 59 59 59 59 59 58 58 58 58 58 59 59 58 58 57 56 56 56 56 59
60 61 64 65 66 66 66 67 66 65 65 65 66 66 66 65 65 63 63 63 62 62 61 60 60 59 59 60 58 58 56 57 58 58 58 57 55 55 54 53 52 53 54
60 61 63 63 64 67 67 66 65 65 65 65 65 66 66 66 66 66 65 64 64 63 62 62 61 60 59 59 59 57 54 54 55 56 54 54 53 52 50 50 50 51 51
60 61 62 61 63 65 66 65 63 63 62 63 64 65 65 66 65 65 65 65 65 64 63 63 63 62 60 59 60 60 59 58 54 53 55 53 51 51 50 50 51 50 51
50 54 60 62 63 64 64 64 63 62 61 61 63 63 64 65 65 65 65 64 64 64 64 64 63 63 62 60 60 59 58 58 57 55 53 53 53 50 49 49 49 49 49
48 48 49 58 61 63 63 62 60 61 60 61 62 62 63 64 65 65 65 64 64 64 63 63 63 63 62 61 61 61 59 57 57 56 55 55 52 50 48 47 47 47 48

GFSSE_sfc_dewp_099.txt.gz
Dewpoint
71 73 75 76 75 75 74 73 70 69 70 69 70 72 72 72 72 72 72 72 71 70 68 68 67 67 68 69 70 68 68 69 69 70 70 70 68 67 66 67 67 66 69
71 73 75 75 75 74 74 73 71 71 71 70 69 70 71 71 71 71 71 69 68 67 67 66 66 66 66 67 67 68 68 68 69 69 70 69 69 69 69 68 69 65 69
71 72 73 74 74 74 73 73 72 72 71 71 70 68 69 70 69 69 69 68 67 66 65 65 65 65 65 66 68 69 69 69 69 68 67 67 67 70 70 69 69 66 67
71 71 72 74 74 74 73 73 72 72 71 70 70 69 68 68 68 68 68 67 67 67 66 66 67 67 68 69 69 69 69 68 67 66 62 63 65 68 69 70 69 69 68
70 71 72 74 74 74 73 73 72 72 71 71 70 69 68 67 67 67 67 67 67 68 68 67 68 69 70 70 69 68 68 67 66 63 62 61 62 65 68 67 66 68 68
70 71 73 74 74 73 73 73 73 73 72 71 71 70 68 66 67 67 67 68 69 69 69 69 69 69 69 69 68 67 68 66 64 61 61 61 60 64 65 66 65 65 66
69 71 72 74 73 73 73 73 73 73 72 71 71 68 66 66 67 68 68 69 69 70 69 69 69 69 69 68 67 66 67 65 61 62 62 60 59 63 63 63 64 64 64
69 70 71 72 72 73 73 73 73 73 72 72 72 69 67 66 67 68 68 69 68 69 69 68 69 69 68 67 65 65 67 64 61 62 62 62 64 62 62 62 62 62 62
69 70 71 71 72 72 72 72 73 73 72 72 71 70 69 67 68 68 69 69 68 68 68 68 68 67 66 65 64 65 65 65 61 62 62 62 65 63 62 61 61 61 61
69 70 71 71 71 71 71 71 71 71 70 71 71 69 68 68 67 69 68 69 68 68 68 69 68 67 66 64 64 63 63 63 61 62 63 63 63 63 62 61 61 61 61
68 69 69 70 71 71 71 70 69 69 69 68 68 67 67 67 67 66 66 68 68 68 68 67 67 67 66 65 65 64 63 60 61 63 63 66 63 63 62 61 61 61 60
66 68 69 69 70 70 69 69 68 67 66 65 65 65 66 67 66 66 65 66 68 67 68 67 66 65 63 60 59 62 59 59 61 62 64 66 64 63 62 61 60 60 60
66 67 68 68 69 69 68 68 67 66 65 64 63 63 62 65 66 66 66 66 65 65 65 65 64 62 60 60 59 58 58 57 59 62 65 66 66 64 62 61 60 60 60
65 66 67 68 68 67 67 67 66 65 65 64 63 62 59 62 66 66 66 65 65 65 64 64 63 61 59 57 57 53 53 55 57 61 64 65 67 65 64 62 61 60 59
65 66 68 68 68 67 67 67 66 65 64 63 60 58 59 62 64 66 65 65 65 65 65 64 64 62 60 58 57 51 49 50 53 60 61 63 66 67 66 64 62 61 60
65 66 68 67 68 67 67 66 65 64 62 58 56 54 58 59 58 61 65 65 64 64 64 63 62 60 59 59 57 53 50 50 52 55 60 61 64 65 66 66 65 63 62
65 66 67 67 67 66 67 67 65 64 62 59 58 55 54 57 58 58 63 63 63 63 63 61 58 57 56 55 55 55 52 50 52 55 57 59 61 63 64 65 65 65 64
65 65 66 67 67 67 66 67 67 64 63 61 60 59 57 57 58 58 59 60 59 59 57 58 57 57 56 55 54 54 54 51 52 54 56 57 58 58 62 65 66 66 65
65 65 66 67 67 66 66 67 67 66 63 62 62 61 60 59 60 59 60 58 58 58 58 58 58 57 57 56 56 56 57 56 55 55 57 57 57 59 59 61 63 64 65
65 65 66 66 66 67 67 67 67 67 65 63 63 61 61 61 61 61 61 60 57 58 58 59 58 58 57 57 57 56 57 57 58 58 58 57 58 58 58 60 61 61 62
64 65 65 65 66 66 66 65 65 65 66 66 65 64 63 62 61 61 62 61 58 58 58 58 59 58 58 58 57 57 58 58 57 58 59 58 58 58 57 57 59 58 57
62 64 64 65 66 66 66 66 65 64 64 65 66 65 65 64 63 62 62 62 61 59 59 59 59 59 59 59 57 57 55 56 58 58 58 58 55 55 52 51 52 52 55
60 62 64 65 65 65 66 65 64 64 64 64 64 65 65 66 66 65 64 64 63 62 61 61 60 59 58 59 58 57 53 53 54 56 54 53 52 51 50 50 51 51 52
60 61 63 64 65 66 65 65 63 62 62 63 64 65 65 65 65 66 65 65 65 64 64 63 63 62 60 59 60 60 58 57 55 54 55 52 51 50 50 50 50 50 50
60 59 61 62 64 65 65 63 62 61 60 62 62 63 63 64 64 65 65 64 64 64 64 63 63 63 62 61 60 59 58 58 58 56 54 53 51 49 49 48 48 48 48
52 51 56 60 62 63 62 61 60 58 59 60 60 61 62 63 64 64 64 63 63 63 63 63 63 63 63 62 61 60 58 57 56 56 55 54 54 50 47 47 47 46 47

GFSSE_sfc_dewp_102.txt.gz
Dewpoint
71 72 75 75 75 74 72 70 69 70 70 72 72 73 73 73 72 72 72 71 71 69 68 67 68 70 69 69 69 70 69 70 69 69 69 70 68 67 67 68 69 67 69
72 73 74 75 74 74 72 70 70 71 71 71 72 72 72 72 72 71 70 69 68 67 67 67 68 69 68 69 69 69 69 69 69 69 69 69 70 69 68 67 69 67 69
72 73 73 74 74 73 72 72 71 71 71 71 71 72 72 71 70 69 68 67 67 66 65 65 65 67 69 69 69 68 68 67 67 67 67 67 68 69 68 68 69 67 69
72 72 73 74 74 73 73 72 71 71 70 70 70 70 70 70 69 68 67 66 66 66 65 65 66 69 70 70 70 67 67 66 66 65 62 63 65 69 69 69 69 69 69
71 71 72 74 73 73 72 72 71 71 71 70 70 70 70 69 68 67 67 67 67 67 67 68 69 70 70 70 69 67 66 66 65 62 61 61 63 66 67 65 66 68 68
71 71 72 73 73 72 72 72 72 71 70 68 68 69 69 68 67 67 67 68 69 69 69 69 70 70 69 69 69 67 66 65 63 60 60 61 60 64 65 64 64 65 65
71 71 72 73 72 73 73 72 72 71 71 68 67 67 67 67 67 67 67 69 69 70 69 69 69 69 68 68 66 66 65 64 61 61 60 59 59 63 63 63 63 64 63
70 71 71 72 72 72 73 73 72 71 72 70 68 66 67 67 67 68 69 70 70 69 69 69 69 69 67 66 66 66 65 64 62 61 61 61 63 62 62 62 62 62 62
70 70 71 70 71 71 72 72 72 71 71 70 69 68 68 68 68 68 68 69 69 68 69 69 68 67 65 65 65 66 65 64 61 61 61 62 64 62 62 62 61 62 62
69 70 70 70 70 70 71 71 71 71 70 70 69 68 67 67 68 69 68 68 69 69 69 68 67 66 65 65 64 65 65 64 61 62 62 63 64 63 62 62 61 61 61
69 70 70 70 70 70 70 70 70 70 69 69 68 66 66 66 66 66 67 68 68 69 69 68 67 66 65 64 63 63 62 61 61 62 63 66 63 63 62 62 61 61 61
67 69 70 70 70 70 69 68 67 67 66 67 67 66 66 65 65 65 66 67 68 68 68 67 66 66 63 59 58 61 59 60 61 62 64 66 64 63 62 61 61 61 60
67 68 69 69 69 69 68 67 66 65 64 64 65 65 66 65 65 64 64 65 64 64 65 65 64 62 60 59 59 57 58 59 61 62 64 67 65 64 62 61 61 60 60
67 68 69 69 69 68 67 66 66 64 64 64 63 64 64 64 65 64 63 63 63 63 62 62 61 59 58 58 57 58 54 56 60 62 63 65 67 65 63 62 61 60 59
66 67 68 69 68 67 67 66 65 64 64 64 63 62 60 65 65 65 64 64 63 63 63 62 62 61 61 59 56 51 50 53 59 61 62 63 66 67 65 64 62 61 60
66 67 68 68 67 66 67 66 65 65 64 63 61 61 60 64 66 65 64 64 63 64 64 63 63 63 62 59 58 54 50 50 53 60 60 61 64 66 67 66 65 63 62
66 67 67 68 67 66 67 66 65 64 63 62 58 58 59 61 63 64 64 64 64 64 63 63 62 59 58 56 57 57 53 50 51 54 59 59 61 63 65 65 65 65 64
66 66 67 68 67 67 66 66 65 64 61 59 56 56 56 58 59 59 63 63 63 62 62 61 58 57 56 55 54 54 54 52 51 53 56 58 59 60 62 65 66 66 65
65 66 67 67 66 66 67 66 65 65 61 59 58 57 56 56 58 59 60 61 60 59 58 58 57 57 56 56 55 55 56 55 53 53 54 56 57 58 58 61 63 64 66
65 66 66 67 66 66 66 66 66 65 63 62 60 59 59 59 59 59 60 58 58 58 58 58 57 57 57 57 56 57 57 57 58 58 57 57 57 58 58 59 60 61 62
64 65 65 66 66 66 66 65 65 64 65 65 64 62 61 60 60 60 60 60 57 57 58 58 58 58 58 58 57 57 57 58 57 57 59 58 58 58 58 58 59 58 57
64 64 64 65 66 66 66 65 65 64 64 65 66 65 64 63 62 61 61 61 60 57 57 58 58 59 58 59 57 56 54 55 57 58 58 58 57 55 52 52 52 55 55
62 63 64 65 65 66 66 65 64 64 64 64 64 65 66 65 65 64 63 63 62 60 60 60 60 60 59 59 58 56 53 53 54 56 54 54 53 52 50 51 51 52 52
61 62 63 64 65 65 65 65 64 64 62 63 64 64 65 65 65 65 64 65 64 64 63 62 63 62 61 59 60 60 59 58 56 54 55 52 51 50 50 50 50 49 49
59 61 62 63 63 64 64 64 63 61 62 62 63 63 63 64 64 64 65 64 64 64 64 63 63 62 62 61 60 59 59 58 58 56 54 52 49 49 49 48 48 48 47
57 57 59 61 62 63 63 61 61 60 59 60 60 60 62 63 63 64 64 63 63 63 62 62 62 62 62 62 61 61 59 57 57 56 54 54 53 49 47 47 47 46 46

GFSSE_sfc_dewp_108.txt.gz
Dewpoint
69 72 74 74 72 71 71 71 71 72 72 73 73 73 72 73 72 71 72 70 70 70 69 69 69 69 68 68 68 69 70 70 70 69 69 69 69 69 70 70 69 66 68
70 72 74 73 72 72 70 70 72 74 73 73 74 72 72 72 71 70 69 69 69 69 68 69 69 70 69 68 69 70 70 70 70 70 70 68 68 68 69 69 69 67 68
71 72 72 73 72 71 70 70 72 73 73 74 74 73 72 71 71 69 68 68 67 68 68 68 70 69 69 68 69 69 69 69 68 68 68 67 68 70 69 69 69 68 68
71 71 71 73 72 71 70 70 72 72 73 73 73 73 72 71 69 68 67 67 67 69 69 70 70 69 69 68 68 68 68 67 67 65 63 63 62 67 68 67 67 67 66
71 71 71 72 72 71 70 70 72 72 72 72 72 72 71 69 68 67 66 67 69 70 71 70 69 69 68 67 66 66 66 66 65 62 62 62 62 63 65 64 63 63 64
71 71 72 72 72 71 71 71 71 72 72 72 72 71 70 68 67 67 67 68 69 71 70 69 69 69 68 66 64 64 64 64 62 59 60 62 61 64 64 64 64 63 63
70 71 71 72 72 71 71 71 71 71 71 71 71 70 68 67 67 67 67 69 70 71 70 68 68 68 67 65 64 64 64 63 59 59 59 60 61 64 64 64 63 63 62
69 70 70 71 71 71 70 70 70 70 70 71 70 69 68 67 67 67 68 70 71 70 69 68 68 68 67 66 64 64 64 63 60 60 60 61 64 63 63 63 63 63 62
70 69 69 69 70 70 70 70 69 69 69 69 69 68 68 68 68 68 69 70 70 70 70 69 67 67 67 66 64 64 64 63 60 60 61 61 65 63 63 63 62 62 62
68 69 69 69 70 69 69 69 69 68 68 68 68 67 67 68 69 70 69 70 70 70 70 69 68 67 67 66 65 65 64 63 60 61 61 63 64 63 63 62 62 62 62
68 68 69 69 69 69 69 69 69 68 68 67 67 66 66 66 66 66 67 68 69 70 69 68 66 66 66 65 66 65 62 60 60 61 62 65 63 63 63 62 62 62 61
66 68 69 69 69 69 69 69 68 67 66 65 65 64 65 64 65 66 66 68 69 69 68 67 66 64 60 58 59 61 60 60 61 61 62 65 63 63 63 62 62 61 61
66 68 68 68 69 68 68 68 68 67 65 64 63 64 64 64 64 64 64 64 64 64 64 63 62 59 58 57 58 57 59 59 60 61 63 66 64 63 62 62 61 61 61
66 67 68 68 68 67 67 67 67 66 65 64 64 63 63 63 62 62 62 62 62 62 61 60 59 58 58 57 56 57 56 58 60 61 61 65 66 63 63 62 61 61 60
64 66 68 68 68 67 67 65 65 65 65 64 64 64 63 62 61 61 61 60 60 60 59 58 58 57 57 58 57 56 51 54 58 60 60 63 66 66 64 63 62 61 60
65 66 68 67 68 67 66 64 63 64 65 64 64 64 63 63 62 61 61 61 60 61 61 60 59 59 60 60 59 57 51 51 55 58 60 60 64 66 67 65 64 63 62
62 66 67 67 68 66 66 64 62 63 63 64 64 64 64 64 63 62 62 61 61 61 61 61 61 61 60 60 58 58 57 51 50 54 59 59 60 63 65 66 65 65 64
65 66 67 67 67 66 65 65 63 63 63 63 62 64 63 65 65 63 62 62 62 62 62 61 61 59 58 57 56 55 55 54 52 51 54 57 59 59 61 64 65 65 65
65 66 67 67 67 66 65 65 65 64 63 63 61 60 61 62 64 64 63 62 62 62 62 61 60 58 57 56 55 55 55 55 55 51 52 54 56 58 59 60 62 63 64
66 67 67 67 67 66 66 65 65 64 63 61 60 58 59 60 62 63 63 62 62 62 61 60 59 58 57 56 56 56 56 57 57 56 56 55 56 57 57 58 58 60 62
65 66 67 67 67 66 66 64 64 63 61 60 59 59 58 58 59 61 61 61 61 61 61 59 58 57 57 57 57 57 57 57 57 57 57 57 58 58 58 59 59 59 60
63 65 66 66 66 66 66 65 64 64 63 63 62 60 59 58 59 59 59 59 59 59 58 58 58 57 57 58 56 56 54 55 56 55 56 57 55 55 56 58 58 56 55
63 64 65 65 66 66 65 65 64 63 63 62 62 62 62 62 60 60 60 60 58 58 58 58 58 58 58 59 59 57 54 53 55 55 53 55 55 54 54 54 55 54 53
62 63 64 65 66 66 66 65 63 63 62 63 63 63 64 64 62 62 62 62 61 61 61 60 61 61 60 59 60 60 59 58 56 54 54 52 51 52 52 52 52 53 51
61 62 63 63 64 65 65 64 62 63 64 64 63 63 64 64 64 64 63 63 63 63 63 63 62 62 61 61 60 59 59 59 59 57 54 54 52 51 51 51 51 50 49
58 61 62 63 63 64 64 64 63 62 62 62 62 63 63 63 63 64 64 64 64 64 63 63 63 62 62 61 60 60 58 57 57 57 56 55 53 51 50 50 49 49 49

GFSSE_sfc_dewp_111.txt.gz
Dewpoint
69 70 74 74 72 71 72 71 73 74 74 74 74 73 73 73 72 72 72 71 71 72 70 69 68 69 68 69 70 70 70 68 68 68 69 70 70 70 70 69 69 65 68
69 70 73 73 72 73 73 73 73 73 74 74 73 73 72 72 72 72 71 69 70 68 69 69 69 69 69 70 70 70 70 70 69 69 69 68 69 70 69 69 70 66 66
69 70 71 73 73 72 72 73 73 73 74 74 73 73 72 72 71 70 71 71 70 70 70 70 69 68 69 69 69 69 69 69 69 68 69 67 67 70 69 69 69 67 65
70 70 70 72 72 72 72 73 74 74 74 74 73 73 73 71 70 69 70 70 70 71 70 70 70 69 68 68 69 69 68 67 67 67 62 62 61 67 66 65 65 64 64
70 70 70 72 72 72 72 73 73 74 74 73 72 72 72 71 69 68 69 70 70 71 71 70 69 69 68 67 67 67 67 66 65 64 63 63 62 64 65 64 64 63 63
70 70 71 72 72 72 72 73 73 73 73 72 72 72 71 70 68 68 70 70 71 71 70 70 68 68 66 65 65 65 65 64 64 62 62 63 62 64 64 64 64 63 63
69 70 70 72 72 72 72 73 73 73 73 72 72 71 70 69 68 68 69 71 71 70 70 69 68 67 65 64 64 64 64 63 60 61 61 62 62 64 64 64 63 63 63
69 70 70 70 71 71 71 72 72 72 72 72 71 70 69 68 68 68 70 71 71 69 69 69 68 67 65 64 64 64 64 63 60 61 62 62 65 64 64 63 63 63 62
69 69 69 69 69 70 70 71 71 71 71 71 71 70 69 68 68 68 70 71 71 70 69 69 68 67 65 64 64 64 64 63 60 61 60 61 65 64 64 63 63 62 62
69 69 69 68 67 68 68 69 70 70 70 70 69 68 67 67 68 69 70 70 70 70 69 69 69 68 67 65 64 64 64 63 60 62 62 62 64 64 63 63 63 62 62
68 68 69 68 68 68 66 67 68 68 68 68 67 66 66 65 67 67 67 69 69 70 69 68 67 67 67 66 66 64 62 60 60 61 62 65 64 64 63 63 63 62 61
67 67 68 68 67 68 67 67 66 66 65 64 64 65 67 68 67 66 66 68 69 69 68 67 66 64 62 61 62 62 60 60 60 61 62 65 63 63 63 62 62 62 61
66 67 67 67 67 67 67 68 66 66 65 65 65 65 67 67 67 67 68 68 67 65 65 64 61 59 59 58 59 60 61 60 61 61 63 66 64 63 63 62 62 62 61
66 66 67 67 67 67 68 67 66 65 65 64 65 65 66 66 66 66 66 66 66 65 64 62 59 59 59 58 58 57 57 61 61 62 63 65 66 63 62 62 61 61 61
65 66 67 68 67 65 65 67 66 64 64 64 65 65 65 65 64 65 64 64 64 63 62 60 58 58 58 58 58 57 54 58 60 61 62 62 65 65 63 63 62 61 60
65 67 67 67 67 66 65 65 65 64 63 64 64 64 64 64 63 63 63 62 62 61 60 58 57 58 60 61 60 57 53 53 56 60 61 61 64 66 66 65 64 63 62
65 67 66 67 67 66 66 66 65 64 63 63 63 64 63 63 63 62 61 61 60 61 61 61 61 62 62 62 61 60 59 55 52 54 59 60 61 63 65 66 66 65 65
65 66 67 67 67 67 65 65 65 65 65 64 63 63 63 62 62 61 60 61 62 63 63 63 62 62 62 60 60 59 58 57 55 52 54 58 59 59 62 64 65 65 64
64 66 66 67 66 66 66 65 64 64 64 64 64 64 63 64 63 63 62 62 63 63 63 63 62 62 61 60 58 57 56 56 56 54 53 54 57 59 59 61 62 63 64
64 66 67 66 66 66 66 65 65 64 63 63 63 64 64 64 65 65 64 63 63 63 63 62 62 61 60 58 56 56 57 58 58 57 55 54 55 57 58 59 59 60 62
65 66 66 66 66 66 65 64 64 63 64 64 62 61 62 63 64 65 64 64 63 63 62 62 61 60 59 58 58 58 58 58 58 58 58 58 59 59 59 59 59 60 61
64 66 66 66 66 66 66 65 65 65 64 64 63 61 60 61 61 62 62 62 63 62 62 61 60 59 58 59 58 57 56 56 57 55 57 58 58 57 58 60 60 60 58
63 65 66 66 66 66 66 65 65 65 64 64 63 63 61 60 61 61 61 62 61 61 61 61 60 60 59 60 59 59 56 55 57 57 55 55 57 57 56 56 57 56 56
61 64 65 65 64 66 65 64 64 63 63 64 63 63 63 62 61 62 62 62 61 62 61 61 61 61 61 60 61 61 61 60 56 56 55 53 53 53 54 54 53 53 52
63 63 64 64 64 63 65 64 63 61 63 63 64 63 63 63 63 63 63 63 63 63 63 62 61 61 62 61 61 60 61 60 60 57 55 56 54 54 54 52 53 52 51
61 62 63 62 63 64 64 64 62 61 62 64 64 63 63 64 64 64 64 64 64 64 64 64 63 63 63 62 62 61 60 58 57 57 56 56 56 54 52 52 52 51 50

GFSSE_sfc_dewp_114.txt.gz
Dewpoint
64 69 73 73 73 73 72 74 75 74 75 75 74 73 73 72 72 71 72 72 72 72 69 70 68 68 69 70 69 68 68 69 69 70 71 70 70 70 69 70 68 63 65
65 68 73 74 73 73 73 74 75 75 74 74 74 72 72 72 72 71 72 72 71 70 69 68 68 70 70 71 70 69 69 68 69 69 69 70 69 70 69 68 68 63 64
65 68 71 73 71 73 73 74 74 74 74 74 74 73 72 72 71 71 71 71 71 71 70 69 69 70 70 70 70 70 70 70 68 68 69 66 67 69 67 66 65 64 64
65 68 69 73 73 73 73 73 74 74 74 74 74 74 73 72 71 71 71 70 72 71 71 69 69 69 69 69 69 69 68 67 67 67 60 59 61 66 65 65 64 64 64
65 68 69 73 73 73 74 73 73 74 74 74 73 72 72 72 71 71 71 71 72 72 71 70 68 68 68 69 68 68 67 66 66 61 60 60 60 63 64 63 63 64 64
65 67 71 72 73 73 74 73 74 74 74 73 72 72 72 71 71 71 71 72 72 71 71 69 68 67 66 67 66 66 65 64 63 58 59 61 61 64 64 64 63 63 63
66 68 69 72 72 73 74 73 74 74 73 72 72 72 71 70 70 71 71 72 71 71 70 68 66 65 64 64 64 64 64 64 57 58 59 60 62 64 64 64 63 63 63
67 68 69 71 71 73 73 73 73 73 73 72 72 71 70 70 70 70 72 71 71 70 69 68 65 65 64 64 64 64 63 63 58 59 60 61 65 64 64 63 63 63 62
68 68 68 68 69 71 72 72 72 72 72 71 71 70 69 69 69 70 71 71 70 70 70 69 66 65 64 64 64 64 64 63 58 58 58 60 66 64 64 63 63 62 62
69 68 67 65 64 69 71 71 71 71 71 70 69 68 68 67 68 70 70 70 70 70 70 69 68 65 64 64 64 64 64 63 58 59 59 62 64 64 64 63 62 62 61
68 68 67 64 62 62 69 69 70 70 69 68 67 66 65 63 66 68 67 69 69 69 70 69 68 67 66 66 65 63 63 57 57 58 59 66 64 64 64 63 62 62 61
67 68 66 63 61 61 64 68 68 67 66 65 65 64 59 60 62 64 66 68 69 68 68 68 67 66 64 61 60 62 57 57 57 59 60 66 64 63 63 63 62 62 62
66 68 66 63 63 60 60 66 67 66 65 64 64 60 58 59 62 65 67 66 66 64 62 63 62 59 60 58 59 59 58 58 57 59 62 65 64 63 63 62 62 62 61
66 66 66 63 62 59 59 59 62 65 64 61 60 59 62 64 61 63 65 65 63 62 61 60 58 59 59 58 57 56 58 58 58 59 61 65 65 63 63 62 62 61 61
64 66 66 64 61 60 59 58 58 59 59 59 59 62 64 64 63 64 64 64 62 61 60 57 56 57 57 57 57 57 55 58 59 59 59 64 65 65 63 63 62 62 61
64 66 66 66 61 63 62 59 58 58 58 59 59 62 64 63 61 61 61 61 61 60 57 56 55 55 56 56 56 55 52 54 55 58 58 60 64 66 65 64 64 63 62
60 67 66 65 63 62 65 63 60 58 58 59 59 60 62 62 62 61 59 60 59 57 56 55 55 56 58 59 59 57 58 56 54 54 55 57 60 63 65 67 66 65 64
60 66 66 66 65 63 65 65 64 61 57 58 59 60 60 60 60 59 58 58 57 56 56 55 55 57 60 61 60 59 59 58 57 55 54 55 57 57 62 65 66 65 65
57 63 66 66 65 65 66 66 66 65 60 57 56 57 59 58 59 58 56 56 57 60 60 61 61 61 61 61 60 59 57 57 57 55 55 54 55 57 58 62 63 64 65
60 63 66 66 66 66 67 66 66 65 64 63 60 58 57 57 58 58 58 60 61 62 61 61 61 62 61 60 56 56 58 58 58 57 56 55 54 57 57 58 59 59 61
62 64 65 66 66 66 65 65 65 63 63 63 64 64 63 62 62 62 62 62 63 62 62 62 62 62 61 60 58 57 58 59 59 59 59 58 58 59 59 59 59 60 61
63 64 65 66 66 66 66 65 65 64 63 62 63 63 63 63 64 63 63 63 63 63 63 62 62 61 61 60 57 58 56 57 58 57 58 59 59 59 59 60 61 61 61
62 63 64 65 66 66 66 66 65 65 65 63 64 63 62 62 63 64 63 64 64 64 63 63 63 62 60 61 60 59 56 55 58 59 57 57 58 59 58 57 58 57 56
62 64 64 66 66 66 66 66 65 64 63 62 64 64 63 61 62 63 63 62 63 64 63 63 63 63 61 60 61 61 62 60 57 55 57 56 55 55 55 56 55 55 54
62 61 64 64 65 65 66 65 64 64 65 65 65 64 64 63 62 62 62 62 63 63 63 62 61 61 62 61 61 61 61 61 60 58 56 57 56 56 56 55 54 54 52
61 61 62 63 63 64 64 64 63 63 63 63 64 64 64 64 63 63 63 63 63 64 63 63 62 62 62 62 62 62 60 59 58 58 56 56 56 56 54 54 54 54 52

GFSSE_sfc_dewp_117.txt.gz
Dewpoint
62 69 74 74 74 74 75 75 75 75 75 74 73 72 72 72 72 71 71 71 70 72 70 68 68 69 68 68 69 70 70 70 70 70 71 70 70 69 68 68 66 61 65
64 68 73 74 74 74 75 75 74 74 74 74 73 72 72 72 72 71 72 71 71 70 69 69 70 70 70 68 68 68 68 69 70 70 69 69 69 68 67 66 66 63 65
64 67 70 73 74 74 75 75 75 75 74 74 73 73 72 72 71 72 72 72 71 70 69 70 70 70 70 70 70 70 69 68 68 69 69 64 64 66 65 65 66 64 64
64 67 67 73 74 74 74 75 75 74 74 74 73 73 73 72 72 72 72 72 72 71 71 70 70 70 70 69 68 68 66 65 66 66 59 59 60 65 65 64 64 64 64
65 68 68 72 73 74 74 74 75 74 74 74 73 73 72 72 72 72 71 71 71 71 70 69 70 70 69 68 68 67 64 65 64 60 59 61 61 63 64 64 64 64 64
67 67 71 72 72 73 73 74 74 74 74 73 73 72 72 72 72 71 72 72 71 71 70 68 68 68 68 68 67 65 63 64 65 58 60 62 61 64 64 64 64 63 63
66 68 70 73 73 73 73 73 74 74 73 73 73 72 72 72 72 72 72 71 71 71 69 68 66 66 66 65 64 63 62 64 57 58 59 61 62 64 64 64 63 63 63
66 69 69 71 72 73 73 73 74 73 73 72 72 72 71 71 71 72 72 71 71 70 67 66 65 65 65 64 64 63 63 64 58 59 61 62 65 64 64 63 63 63 63
68 70 69 69 70 72 72 73 73 73 72 71 71 71 70 70 71 72 71 71 71 70 68 67 65 65 64 64 64 63 64 63 58 58 59 61 66 64 64 63 63 62 62
68 69 69 67 66 68 71 71 71 71 71 70 70 69 68 68 69 71 70 70 70 70 69 67 66 65 64 64 64 64 63 63 58 58 60 62 65 64 64 63 62 62 62
68 68 69 66 63 64 68 70 70 70 69 69 67 66 66 64 66 68 67 69 69 70 69 68 67 66 66 65 64 64 63 56 57 58 60 66 64 64 64 63 63 62 61
67 67 68 64 60 62 67 70 69 69 68 66 65 64 61 60 64 66 66 68 69 69 69 68 67 66 63 59 59 62 57 56 57 58 61 66 64 64 64 63 62 62 61
65 67 68 63 59 60 65 69 69 69 66 66 64 62 55 59 64 67 67 65 65 65 64 65 64 61 60 58 58 56 55 55 56 58 63 66 64 63 63 63 62 62 61
61 65 68 62 58 58 63 68 68 67 65 64 64 57 55 58 64 66 65 64 62 61 61 60 59 58 58 57 56 56 56 56 56 58 62 65 65 63 63 62 62 62 61
62 63 67 64 59 56 60 64 67 66 64 64 64 55 57 59 60 65 64 64 61 60 59 58 57 57 56 55 55 55 55 56 57 58 61 64 66 65 63 63 62 62 61
61 64 63 66 61 56 56 62 64 65 64 59 59 60 64 61 60 63 64 64 61 60 58 56 55 56 55 55 54 53 52 54 55 57 58 62 65 66 65 64 64 63 62
59 66 65 66 60 56 55 55 57 61 60 58 58 62 64 61 61 62 61 61 60 59 56 55 54 54 55 56 56 54 54 53 53 54 56 58 62 64 66 66 66 65 64
61 64 66 66 60 59 56 56 55 57 57 57 57 61 62 60 61 61 60 59 58 56 55 55 54 56 58 60 60 59 58 59 56 55 55 55 58 58 63 66 66 66 66
58 63 65 66 61 63 62 60 57 55 57 57 58 59 60 59 59 59 58 57 56 56 55 56 56 57 61 60 60 59 59 58 57 56 55 55 57 58 59 63 64 64 65
61 61 63 65 64 64 65 64 62 57 56 57 58 59 59 58 58 58 57 55 55 58 59 60 60 61 60 60 58 56 58 59 59 58 56 55 56 57 58 60 61 60 62
61 61 64 65 64 65 65 65 64 61 58 57 57 56 57 56 56 56 56 57 59 60 60 60 61 61 61 61 60 59 58 58 58 58 59 58 58 59 59 60 61 62 60
60 60 61 65 65 65 64 64 64 64 63 63 62 59 57 56 58 58 60 60 60 61 60 61 62 62 62 62 58 59 57 58 58 58 58 59 59 60 60 60 62 62 63
57 61 60 62 65 65 65 65 65 64 64 64 64 64 63 63 63 63 63 62 63 62 63 63 63 63 61 62 60 59 56 56 58 59 58 57 58 59 58 58 59 58 58
58 58 62 61 65 65 65 64 64 63 62 62 63 63 63 63 64 65 65 64 64 65 64 64 64 64 64 62 61 61 62 60 58 56 57 56 56 56 57 57 56 56 56
59 60 62 63 64 65 65 65 64 63 62 62 64 63 63 63 63 64 64 64 64 65 65 65 64 62 62 62 62 62 61 61 60 58 56 58 58 59 58 56 56 54 53
60 61 62 62 63 64 64 64 64 64 64 63 64 63 63 63 63 63 63 64 64 64 64 63 63 63 62 62 62 62 61 60 59 57 56 57 57 57 58 56 55 55 55

GFSSE_sfc_dewp_120.txt.gz
Dewpoint
68 72 75 75 75 76 75 76 75 75 74 74 72 72 72 71 72 71 71 70 70 71 68 68 68 69 70 70 70 70 70 71 71 70 71 70 69 67 66 65 66 62 65
70 72 74 75 75 76 75 75 75 75 74 74 73 72 71 72 72 71 71 71 71 69 68 70 69 69 69 69 69 69 70 70 70 70 69 68 67 66 66 66 67 63 65
69 71 73 74 75 75 75 75 75 75 74 74 73 72 72 72 71 72 71 72 71 69 70 70 69 68 69 69 70 70 69 69 69 70 67 63 63 65 65 65 67 65 65
67 69 70 74 74 75 75 75 75 75 74 74 73 73 73 72 72 71 72 71 71 71 71 71 71 70 70 69 68 66 65 67 67 68 60 60 61 65 65 65 65 65 65
66 67 69 73 74 75 75 75 75 75 74 73 73 73 73 72 72 72 72 72 72 71 71 71 71 69 67 68 67 64 65 67 66 62 60 61 62 64 65 64 64 64 64
66 66 72 73 74 74 74 74 75 74 74 74 73 72 72 72 72 72 72 72 71 71 70 70 69 68 67 68 65 64 64 65 63 59 61 63 62 64 65 64 64 64 64
66 68 70 73 73 73 74 74 74 74 74 73 73 73 72 72 72 72 71 72 71 70 69 68 68 67 67 65 63 63 64 65 59 60 61 62 62 64 64 64 64 64 64
67 69 69 71 71 73 73 74 74 74 73 73 73 72 71 71 72 72 71 71 71 69 68 66 66 65 65 64 63 63 64 64 60 61 62 63 65 64 64 64 63 63 63
69 69 70 69 70 72 72 73 73 73 73 72 72 71 70 71 72 72 71 71 70 68 67 67 65 65 64 64 63 64 63 64 59 61 61 63 66 64 64 63 63 63 62
69 69 69 69 69 69 71 71 72 72 71 71 70 69 69 69 70 71 70 70 69 68 68 67 66 65 64 64 64 64 63 62 58 61 62 64 65 64 64 63 63 62 62
68 68 69 68 68 68 69 71 71 70 70 69 68 67 67 68 68 68 67 69 69 68 68 67 66 65 66 64 64 64 63 58 58 61 63 66 65 64 64 63 63 62 62
66 67 68 68 66 65 68 70 70 70 69 67 66 65 65 66 67 67 67 68 69 68 68 67 66 66 63 60 59 62 60 57 59 61 63 66 64 64 64 63 63 62 62
64 67 68 68 66 64 66 70 69 69 67 66 65 63 61 64 67 67 67 67 67 66 67 66 65 62 61 58 58 59 56 57 58 60 64 66 65 64 64 63 63 62 62
59 59 67 67 69 65 68 69 68 68 66 66 64 62 58 63 67 65 64 65 64 64 64 63 62 61 60 58 57 56 55 57 59 62 64 64 65 64 63 63 63 62 62
57 58 63 65 65 66 67 68 68 68 66 65 63 60 58 63 65 64 63 62 62 61 61 60 59 58 57 56 55 54 56 56 57 61 63 63 65 65 64 63 63 62 62
58 58 58 64 63 63 67 67 68 67 65 65 63 57 56 63 65 63 63 63 61 60 59 58 57 57 56 55 54 54 53 55 56 58 62 63 64 66 65 64 63 63 62
59 59 59 60 63 63 66 66 67 66 65 64 62 63 62 61 63 62 62 63 62 60 57 56 55 55 55 56 55 53 52 52 53 54 59 61 64 64 66 65 65 65 64
59 58 59 63 61 61 62 65 66 65 65 60 60 63 62 62 62 62 61 63 60 58 56 55 54 54 57 58 59 57 58 58 56 53 54 58 61 62 64 66 67 66 66
59 59 58 63 62 63 63 60 62 64 60 57 61 61 61 61 61 61 61 59 58 57 56 54 54 56 59 60 59 59 58 57 56 56 55 54 56 58 61 63 64 65 65
59 59 59 60 64 63 61 58 57 56 57 57 59 61 61 60 60 59 58 57 56 56 57 58 57 59 60 60 58 57 58 58 58 57 56 55 55 56 56 60 61 61 63
60 60 59 62 62 63 62 60 57 55 57 57 58 60 60 59 58 57 57 55 57 59 59 59 60 60 61 60 59 58 58 58 58 58 59 59 59 59 60 61 63 62 61
59 60 59 59 63 63 62 60 57 55 56 58 59 59 59 58 58 55 56 56 59 60 60 60 61 61 61 61 58 57 55 57 58 57 59 58 58 59 59 59 60 61 61
59 59 59 59 64 64 63 62 61 60 57 57 57 58 58 57 58 58 60 60 60 61 61 61 62 61 60 61 59 58 54 53 57 58 57 57 57 57 57 57 58 58 58
57 59 60 60 62 64 64 63 62 60 58 58 58 57 58 59 60 63 63 62 62 63 63 63 63 62 62 60 61 61 60 59 55 54 56 55 56 56 55 55 55 56 56
57 58 60 60 61 62 63 63 63 62 62 62 62 62 61 62 63 64 64 64 64 64 63 63 62 61 61 61 60 60 59 58 59 56 53 54 55 56 56 55 54 53 53
58 58 60 60 59 61 63 64 62 62 61 62 62 62 62 63 63 63 63 63 64 63 63 62 62 62 61 61 61 60 59 57 57 56 55 54 54 55 55 55 54 53 53

GFSSE_sfc_dewp_123.txt.gz
Dewpoint
71 73 75 76 76 76 76 76 75 73 72 73 72 72 72 71 71 70 69 69 70 71 70 69 71 71 71 71 70 70 71 70 70 69 69 68 67 66 66 66 66 62 65
71 73 75 76 76 76 75 75 75 74 73 73 73 72 72 71 71 71 71 70 70 68 68 69 70 70 70 70 70 70 70 69 68 68 67 67 67 66 66 66 67 63 65
71 73 73 75 75 75 75 75 74 74 74 73 74 72 72 72 72 71 71 71 70 70 70 68 69 69 69 70 70 70 70 69 69 67 66 63 63 65 65 66 66 65 65
71 72 73 75 75 75 75 75 74 74 74 74 73 73 73 72 72 72 71 71 71 71 71 71 70 69 70 69 68 66 66 68 67 65 61 61 62 66 66 65 65 64 64
70 71 72 74 75 75 74 75 74 74 74 74 73 73 73 73 72 72 72 72 72 71 71 71 70 69 69 68 68 66 67 67 66 62 61 62 62 64 65 64 64 64 64
69 70 73 74 74 74 74 74 74 74 74 73 73 73 73 72 72 72 73 72 72 71 71 70 68 68 68 67 66 65 65 66 64 61 62 63 61 65 65 65 64 63 64
67 70 72 73 74 74 74 74 74 74 74 73 73 73 73 73 72 72 72 71 71 71 69 68 66 68 67 66 65 65 67 65 61 61 62 62 62 65 64 65 64 63 63
67 70 71 72 73 73 74 74 74 73 73 73 73 73 72 72 72 72 71 71 70 69 69 67 68 67 65 65 64 65 66 64 61 62 62 63 65 64 64 64 63 63 63
69 69 70 71 71 72 72 72 73 73 73 73 72 72 71 71 72 71 71 71 70 68 68 67 65 64 64 64 64 64 65 64 61 62 62 63 66 64 64 63 63 63 63
69 69 69 68 69 71 71 71 72 72 72 72 71 70 69 69 70 71 70 69 69 68 68 67 65 64 64 65 64 64 64 64 61 62 63 64 65 64 64 63 63 63 62
68 69 69 69 69 70 71 71 71 71 70 70 69 67 68 69 69 68 68 68 68 68 68 67 65 65 65 63 63 62 62 59 61 62 63 66 65 64 64 63 63 62 62
63 66 68 68 68 69 69 70 71 71 70 69 68 68 68 68 68 68 67 67 68 67 67 66 66 65 62 59 58 62 59 59 61 62 63 66 65 65 64 63 63 62 62
61 63 64 67 68 67 68 70 70 70 69 68 67 66 67 66 67 67 67 67 66 65 65 65 64 61 57 57 58 58 58 59 61 62 64 66 65 64 64 63 63 62 62
58 59 60 62 68 67 68 69 69 69 67 66 66 64 65 66 66 66 66 66 66 65 64 63 62 61 60 59 57 58 56 59 61 62 64 65 66 64 64 63 63 62 62
56 59 59 60 65 66 68 69 68 68 66 66 65 62 64 66 65 65 65 65 64 63 63 62 61 61 60 58 56 55 56 58 61 62 63 63 65 65 64 63 63 62 62
57 57 59 59 60 65 67 68 68 67 66 66 65 60 62 66 64 63 63 63 62 62 62 61 60 58 56 55 54 53 53 57 59 61 62 63 64 65 65 64 64 63 62
57 56 57 58 61 63 63 63 66 67 65 66 65 58 61 65 63 62 62 61 61 61 60 59 57 56 55 55 54 53 52 53 54 60 61 62 64 64 66 65 65 65 64
58 57 58 58 58 62 62 63 63 67 66 66 64 57 62 64 63 62 62 61 62 60 57 55 54 54 55 57 58 55 55 55 53 53 60 61 62 63 64 66 67 67 66
56 58 57 58 59 62 62 62 61 67 66 66 63 58 62 63 62 61 61 61 60 57 56 55 54 55 58 59 59 59 58 57 56 56 54 57 60 61 61 63 64 65 66
52 56 57 58 58 61 62 62 62 64 65 64 61 60 62 63 62 60 59 61 57 56 55 54 54 57 60 59 58 57 58 57 57 57 56 56 55 57 59 60 61 61 62
56 57 57 59 57 61 62 61 63 64 62 61 60 60 61 61 61 60 60 58 56 55 56 56 57 59 60 60 58 58 57 58 57 58 59 59 59 60 60 62 62 61 61
55 56 58 58 60 62 62 61 63 63 60 60 60 59 60 60 59 58 57 56 56 57 58 59 60 60 61 60 58 57 55 56 57 58 58 58 58 59 59 59 59 61 60
54 57 58 58 60 62 63 60 60 60 60 58 60 59 60 60 59 57 56 57 58 58 59 59 61 61 60 60 59 57 54 53 56 57 56 56 56 56 56 56 57 57 57
53 57 59 59 59 60 64 59 58 58 56 57 59 59 59 59 58 59 58 59 60 61 61 61 62 62 61 60 60 60 59 57 53 53 55 55 55 55 54 55 54 55 55
54 57 59 59 58 61 63 61 58 57 57 57 58 58 58 58 58 60 59 59 62 62 62 63 62 61 61 60 60 59 58 57 57 54 51 53 54 54 55 54 54 53 52
55 57 59 59 58 58 59 62 59 57 58 57 57 57 58 59 59 62 62 62 63 63 63 62 61 61 61 61 60 60 58 57 56 55 55 54 53 54 55 54 53 52 51

GFSSE_sfc_dewp_126.txt.gz
Dewpoint
70 73 75 76 76 75 75 74 73 73 73 73 72 72 70 69 68 70 70 70 71 71 69 71 71 71 71 71 70 70 70 69 69 68 68 67 66 66 66 65 65 62 65
70 73 75 75 76 75 75 74 73 73 73 73 73 72 71 70 69 69 69 69 70 69 70 71 71 71 70 70 70 69 68 67 66 67 68 67 67 66 66 66 67 63 65
71 72 74 75 75 75 75 74 74 73 74 74 73 72 72 71 71 70 70 69 68 69 70 70 70 69 69 70 70 68 67 66 66 66 66 63 64 65 65 65 66 64 64
71 72 73 75 75 75 75 74 74 74 74 74 73 73 73 72 71 71 70 70 71 71 70 69 69 70 70 69 68 68 67 66 65 65 62 62 62 64 64 64 64 64 66
71 72 73 75 75 75 75 74 74 74 74 74 73 73 73 73 72 72 71 71 71 71 71 70 70 69 68 69 69 69 66 66 65 63 62 62 62 63 65 64 64 63 64
71 71 74 75 75 75 74 74 74 74 74 74 73 73 73 72 73 72 72 72 71 71 71 69 69 68 67 68 67 66 66 65 64 62 62 63 61 64 64 64 63 63 65
70 72 73 74 75 74 75 74 74 74 74 73 73 73 72 72 72 72 72 71 71 70 69 68 68 66 66 67 66 66 66 65 61 61 62 62 61 64 64 64 64 63 63
69 71 72 73 74 74 74 74 74 74 74 73 73 73 72 72 72 72 72 71 70 69 68 67 68 65 66 65 67 66 66 64 62 62 62 62 65 64 64 63 63 62 62
70 71 71 72 73 73 73 73 73 73 73 73 72 72 72 71 72 71 71 71 70 69 68 68 67 65 65 65 67 66 65 64 62 62 62 63 66 64 64 63 63 63 62
68 69 70 71 72 72 72 72 72 72 72 72 71 70 69 69 70 70 69 69 69 69 68 67 65 65 66 66 67 66 65 64 62 62 63 64 65 64 64 63 63 63 62
67 67 68 69 70 71 71 71 71 71 70 70 69 68 68 69 69 68 67 68 68 68 67 66 66 66 65 64 65 64 62 61 61 62 63 66 65 64 64 63 63 62 62
58 65 67 68 69 70 70 71 71 71 71 70 69 68 69 69 68 68 66 67 67 67 67 66 66 65 62 58 59 61 60 61 62 62 64 66 65 65 64 63 62 62 62
59 62 62 66 68 69 68 70 70 70 70 68 68 68 68 68 68 67 66 66 65 64 65 65 64 59 56 56 57 58 59 60 61 63 64 66 65 65 64 63 63 62 61
56 59 61 62 66 67 69 69 69 69 69 68 67 67 67 67 67 66 65 64 64 63 63 61 60 59 57 57 57 58 58 60 61 62 63 65 66 64 64 64 63 62 62
54 57 58 61 63 66 67 68 67 68 67 67 67 66 66 66 65 65 64 64 64 63 62 60 60 60 60 60 59 56 58 60 61 62 62 63 65 65 64 64 63 63 62
55 56 58 58 60 65 67 67 67 68 67 67 65 65 65 65 65 65 64 64 63 63 62 61 60 60 60 57 55 56 57 59 60 62 62 63 64 65 65 64 64 63 63
56 55 56 57 60 63 64 66 67 68 67 66 64 63 65 65 64 64 63 63 63 63 62 60 59 58 56 55 54 53 55 58 60 61 62 62 63 63 65 65 65 65 64
54 55 55 58 58 59 63 64 65 67 67 66 65 61 65 65 63 63 63 62 62 62 60 59 57 56 55 56 54 53 52 53 56 60 60 61 62 63 64 66 67 66 66
52 56 55 57 55 57 62 63 64 64 67 66 66 61 64 64 63 62 62 61 61 61 59 58 55 55 56 58 59 57 57 56 56 55 57 60 61 62 62 63 64 65 66
48 55 56 56 56 58 62 62 62 62 63 66 66 62 63 64 62 61 60 60 61 60 57 55 54 57 58 59 58 58 57 57 57 57 55 55 57 60 60 60 60 61 62
45 52 56 56 56 58 60 61 61 60 60 63 66 62 62 64 62 61 60 60 60 57 56 54 55 58 59 59 58 57 57 58 57 58 58 59 59 60 60 60 61 60 60
44 50 54 55 56 56 58 60 61 61 60 65 65 64 62 64 62 60 59 59 58 56 55 54 58 59 60 59 57 56 55 56 57 58 58 58 57 58 58 57 59 59 58
49 53 54 55 56 56 58 60 61 62 62 61 63 63 63 63 62 60 59 59 57 56 55 56 59 60 59 59 58 56 53 52 56 57 56 56 55 56 55 55 56 56 56
48 54 55 56 57 57 61 61 60 60 60 61 61 63 63 62 62 61 60 58 57 57 57 58 60 61 60 59 59 60 58 57 54 54 55 54 55 54 54 54 54 54 54
49 53 55 55 56 57 61 61 61 59 61 61 61 61 62 61 60 59 58 58 58 59 59 60 61 61 61 60 59 59 57 57 57 54 50 52 53 54 54 54 53 52 52
51 52 53 53 56 57 57 61 60 60 60 61 61 60 60 60 59 58 58 59 60 60 61 61 62 61 60 60 60 59 58 56 56 55 52 53 51 53 53 53 52 51 51

GFSSE_sfc_dewp_129.txt.gz
Dewpoint
70 73 75 75 75 75 74 74 74 74 74 73 71 70 69 69 69 70 70 70 71 70 71 71 70 71 71 71 71 70 69 68 67 67 67 67 66 65 65 65 65 62 64
71 73 74 75 75 75 74 74 74 74 73 73 71 69 69 70 71 71 71 70 69 70 71 70 71 70 70 69 69 68 68 67 66 67 67 66 67 65 65 65 66 60 64
71 72 73 75 75 75 74 74 74 74 73 73 72 70 69 69 70 70 71 70 70 71 71 70 70 70 69 69 68 66 66 66 66 66 66 63 62 66 64 64 66 66 64
72 72 73 75 75 75 74 73 73 74 74 73 73 73 71 70 70 69 69 70 71 71 70 70 70 70 69 69 68 66 66 66 66 65 62 62 60 64 65 63 66 65 63
71 72 73 75 75 75 74 74 74 74 74 73 73 73 73 72 71 69 71 71 72 71 71 71 69 67 68 70 68 66 66 66 65 63 61 61 61 63 64 64 64 63 62
71 72 73 75 75 75 74 74 74 74 74 73 73 73 73 73 72 71 71 71 71 71 71 70 67 67 68 70 67 66 66 66 64 62 62 63 60 63 64 64 63 64 62
71 72 74 75 75 75 74 74 74 74 74 74 73 73 72 72 72 72 72 71 71 71 70 69 67 67 67 68 66 66 66 64 61 61 61 61 61 64 63 63 63 63 63
70 72 73 73 74 74 74 74 73 73 74 73 73 73 72 72 72 71 72 71 71 69 69 68 66 66 67 68 66 66 65 64 62 62 62 62 65 64 64 63 62 62 62
69 71 72 73 72 72 72 73 73 73 73 73 72 72 71 71 72 71 71 71 70 69 69 68 66 66 67 67 66 66 65 64 61 62 62 62 65 63 63 63 62 62 62
68 69 70 71 72 72 72 72 72 72 72 72 71 70 69 69 70 71 70 69 69 69 69 68 67 66 67 68 66 66 65 64 61 62 63 63 65 64 63 62 62 62 61
62 66 68 69 71 71 71 71 70 70 70 70 69 68 68 70 70 69 68 69 69 69 68 67 67 67 66 66 66 65 63 61 61 62 63 66 64 64 63 63 62 62 62
54 60 66 67 68 70 71 71 70 70 70 70 69 69 69 69 68 67 66 67 68 67 67 67 67 66 62 60 62 63 61 60 61 62 63 66 64 64 64 63 62 62 62
54 59 61 63 67 68 69 70 70 70 70 69 68 69 69 68 67 66 66 66 65 64 64 65 64 60 57 57 58 59 59 60 61 62 64 66 65 64 64 63 62 62 61
52 55 59 61 64 67 68 69 70 69 69 68 68 68 67 67 67 65 65 63 63 62 62 61 59 57 56 57 58 58 59 60 61 62 63 65 66 64 64 63 63 62 61
51 53 57 59 61 66 66 68 69 69 69 68 68 68 67 66 66 65 64 63 62 61 60 59 57 57 57 57 57 58 59 59 60 62 62 63 65 66 64 63 63 62 62
49 53 55 58 59 64 66 66 67 68 68 68 67 67 66 66 65 64 63 63 62 61 60 59 57 58 59 59 59 56 58 60 60 61 62 62 64 65 65 64 64 63 63
46 51 54 56 58 61 63 66 67 67 68 68 67 66 66 66 64 63 63 62 62 61 60 59 59 59 58 55 55 56 58 59 60 60 61 61 63 63 65 65 65 64 64
45 50 54 56 58 59 62 64 66 67 67 67 67 66 65 65 65 64 63 61 62 61 60 59 59 58 56 55 54 53 56 58 59 59 60 61 62 63 63 65 66 66 66
41 44 52 54 57 58 60 62 64 66 67 67 66 65 65 65 64 64 62 61 61 61 60 59 57 56 55 56 55 55 55 53 55 58 59 60 60 61 62 62 63 64 65
40 43 49 53 55 56 60 61 62 64 64 67 66 64 66 65 64 63 62 61 61 61 59 58 55 56 56 58 57 57 57 56 56 56 55 57 59 60 60 60 59 60 62
39 41 46 52 54 55 59 59 60 61 62 63 66 63 64 65 63 63 62 61 60 60 58 57 55 56 58 59 57 57 57 58 57 57 58 58 58 58 60 60 60 59 60
38 40 43 50 53 54 57 59 59 60 61 62 65 65 62 65 64 63 61 60 60 59 58 56 56 58 59 59 57 56 54 56 57 57 57 58 57 58 57 57 58 58 57
41 41 42 48 52 54 55 58 59 60 60 60 62 64 62 64 64 63 62 60 59 59 57 55 56 58 58 59 58 56 53 52 55 56 56 56 56 56 55 55 55 56 55
41 44 44 47 52 54 55 55 57 57 57 59 62 63 63 63 65 63 61 60 59 59 57 56 56 58 59 59 58 59 57 56 53 53 55 54 55 54 53 54 53 54 53
40 44 49 49 52 53 55 55 56 56 57 59 60 63 62 63 64 64 63 61 59 59 57 57 58 60 59 59 58 58 57 57 56 53 51 53 54 53 53 53 52 52 51
43 46 50 53 53 54 56 57 57 57 58 59 60 61 62 62 63 63 63 62 60 59 58 58 59 60 60 60 59 59 58 56 55 54 52 51 52 52 52 52 51 50 50